GFSSE_850_spd_000.txt.gz
Wind_Speed
25 22 23 25 25 24 25 24 24 23 23 23 24 23 21 19 17 15 12 12 12 11 12 13 13 13 12 12 10 9 8 7 9 10 9 8 6 7 7 7 11 5 7
20 19 24 25 23 22 22 23 22 23 22 22 22 21 20 18 16 14 11 11 11 10 11 11 12 13 13 11 10 8 8 7 6 9 9 13 8 7 7 10 11 6 7
15 18 24 21 17 19 19 20 21 22 21 21 21 19 18 16 14 12 11 10 9 8 8 9 10 11 11 12 10 8 7 5 4 6 12 7 5 7 8 7 8 8 12
19 18 16 16 16 18 18 19 21 21 19 19 19 17 15 12 9 10 9 8 7 6 7 8 8 10 11 11 10 7 7 5 4 5 8 4 3 7 7 6 7 10 8
18 16 16 17 16 16 17 19 20 19 18 18 18 17 13 8 7 7 6 6 6 6 5 6 8 10 10 10 10 8 6 6 5 4 5 3 6 4 6 6 7 9 13
16 13 18 17 15 15 17 18 19 18 16 16 16 14 11 8 7 5 4 4 5 4 4 6 8 9 9 9 9 8 7 5 5 5 3 3 5 2 6 6 5 6 8
16 14 14 15 15 16 18 21 21 17 15 15 15 13 12 9 5 4 3 4 5 5 5 8 8 8 8 7 9 9 7 6 4 3 1 3 1 4 4 4 6 4 7
17 14 13 16 15 17 20 22 20 15 13 13 13 13 11 7 3 2 1 4 5 5 7 8 8 8 7 6 7 9 9 8 6 5 3 2 1 2 2 3 4 4 6
17 15 14 13 15 17 18 19 18 12 12 11 11 10 9 5 3 1 1 5 4 5 5 6 6 7 7 6 6 7 8 9 8 8 4 3 0 1 1 2 2 4 6
17 15 14 15 14 14 16 17 15 14 12 10 10 9 7 5 3 2 2 3 3 4 5 5 5 6 6 5 6 8 9 12 7 5 3 1 1 1 1 1 2 4 7
17 16 14 13 13 15 13 14 14 13 12 11 10 8 5 3 3 3 6 5 4 4 4 5 5 6 6 10 9 9 9 6 4 3 5 3 2 3 2 1 3 3 5
18 17 16 14 13 13 12 12 11 10 10 10 8 7 4 5 4 3 5 3 4 3 3 4 5 5 9 4 7 11 7 9 6 4 4 6 3 3 4 4 3 5 5
19 17 16 16 14 13 13 11 11 11 11 11 11 9 7 5 4 3 3 1 1 3 2 4 4 3 4 5 7 7 8 9 7 5 8 7 7 6 6 6 5 6 7
20 19 17 16 16 15 13 12 12 12 12 11 10 11 9 5 5 4 3 2 2 3 3 4 5 6 8 10 9 10 9 9 7 7 7 12 8 7 6 5 9 5 8
20 19 18 18 17 16 15 13 12 13 12 11 10 11 10 8 9 6 7 6 5 6 6 6 7 8 9 9 10 11 9 10 11 8 7 14 9 8 7 6 5 9 8
21 20 18 19 18 17 16 16 15 12 12 12 12 12 13 10 11 7 7 7 7 7 6 5 8 9 10 10 10 10 10 10 10 10 7 8 10 9 9 8 7 7 10
22 21 21 19 19 18 17 16 14 13 12 13 13 13 13 12 13 10 9 8 7 8 9 8 9 10 11 12 11 11 10 10 8 8 6 6 7 9 8 9 8 8 8
23 23 22 20 19 19 17 17 16 14 14 13 13 13 14 13 12 11 11 9 10 10 10 9 9 10 12 11 12 11 10 9 8 6 5 5 6 6 10 9 10 9 9
23 23 23 23 21 21 19 17 18 16 16 17 15 16 15 15 14 12 11 10 11 12 13 8 10 12 10 10 9 10 9 7 6 4 3 3 3 2 5 11 11 10 9
23 22 22 22 22 21 20 19 18 17 14 14 14 15 13 13 12 12 11 11 12 11 8 10 11 10 8 9 8 7 6 3 4 3 3 4 4 4 1 1 5 7 11
24 23 22 23 22 20 18 17 17 16 16 16 15 16 14 13 14 14 10 11 10 8 9 9 10 9 6 7 5 4 3 2 4 3 3 4 4 4 4 3 2 2 6
26 24 23 24 25 24 19 18 18 16 14 14 13 14 14 14 14 11 11 9 11 8 10 7 6 4 5 5 3 4 3 3 2 1 2 5 4 4 4 4 3 3 1
28 27 26 25 25 24 24 19 15 16 15 12 13 11 10 11 11 11 12 9 11 9 7 4 4 5 3 4 2 2 3 1 3 2 0 3 6 5 5 5 3 3 4
29 27 26 25 25 24 24 23 21 15 14 12 12 11 12 11 10 10 9 9 12 6 6 4 4 3 2 3 4 3 2 3 4 2 2 3 4 4 4 4 4 4 4
28 28 27 27 27 25 24 24 22 19 16 14 13 13 13 13 11 11 11 11 11 4 7 5 3 3 3 4 4 3 3 3 3 3 7 5 7 4 4 4 4 4 4
30 29 27 28 29 28 26 24 25 20 19 16 16 13 12 12 12 13 12 12 9 7 6 4 5 4 4 5 4 5 3 3 3 5 8 8 9 8 8 8 7 6 7

GFSSE_850_spd_003.txt.gz
Wind_Speed
19 23 23 23 25 23 24 24 22 23 24 25 24 21 19 18 16 14 14 14 15 15 15 15 15 15 14 12 12 11 10 10 10 12 15 13 10 11 10 10 13 5 8
21 21 24 23 22 23 23 22 22 22 23 23 22 20 18 17 16 15 13 13 13 13 13 13 14 15 14 12 11 10 9 9 10 15 11 16 12 11 10 8 13 5 8
18 23 24 21 20 22 22 21 21 21 22 21 19 18 18 16 15 14 12 11 11 11 11 11 12 13 13 13 11 9 9 8 9 16 13 6 8 10 9 8 5 7 9
21 18 17 18 19 20 21 20 20 20 20 19 17 16 14 13 12 11 11 10 10 10 10 10 11 11 12 12 10 8 7 8 8 13 9 4 7 9 8 8 7 9 10
20 17 15 18 19 18 21 22 20 19 19 18 15 14 10 7 7 8 9 10 10 10 9 9 10 10 10 10 9 8 6 6 8 11 7 4 13 6 8 9 10 10 12
17 14 16 18 17 18 20 21 19 17 16 16 14 12 7 5 5 7 8 9 9 8 8 8 10 9 8 8 8 8 6 5 10 7 3 7 5 4 7 8 7 7 7
15 13 15 16 17 19 20 19 17 15 15 15 14 10 7 6 4 5 6 7 8 6 7 8 9 9 7 7 8 8 8 8 7 4 3 5 3 3 6 6 7 6 7
17 16 15 17 17 19 19 19 17 14 12 12 11 10 9 5 3 3 3 6 6 5 6 8 7 7 7 6 7 9 9 8 9 3 3 5 1 3 4 6 6 6 5
15 16 14 15 18 19 19 18 15 11 11 11 12 11 8 4 2 1 2 5 5 5 5 6 6 7 8 7 8 9 11 13 4 6 5 2 1 2 4 5 5 5 8
15 17 15 13 14 14 16 16 12 10 10 10 10 9 6 2 1 1 4 2 3 4 4 5 4 7 9 10 10 10 11 11 8 5 1 4 1 1 3 4 5 6 8
18 15 14 15 15 14 11 13 12 11 10 9 8 7 5 1 4 6 7 9 5 5 4 5 6 10 10 13 14 12 14 6 4 5 4 7 2 1 1 2 5 5 7
17 16 15 13 13 15 11 12 9 8 7 7 5 5 4 5 5 3 7 7 6 4 4 8 9 9 11 8 9 11 6 8 7 3 9 9 3 1 3 3 3 5 6
19 17 16 19 14 14 16 10 10 8 9 8 9 7 5 4 5 6 5 4 7 8 6 8 7 6 5 6 7 8 9 9 5 4 10 11 8 6 4 4 5 7 7
19 18 15 13 15 14 14 11 10 10 10 8 8 11 8 5 5 4 4 1 3 3 7 2 6 9 6 8 8 9 8 7 8 5 9 13 11 7 5 5 9 7 7
20 19 18 17 17 15 14 11 10 11 11 9 9 10 8 7 8 6 7 5 5 7 5 6 7 8 9 9 9 10 9 9 9 7 6 12 11 7 6 6 5 9 7
21 21 19 18 16 19 16 13 12 11 11 11 10 10 10 8 11 7 7 5 7 10 5 6 8 8 9 10 11 10 11 9 9 7 5 9 10 6 7 7 6 6 11
23 21 20 19 17 17 17 16 14 13 11 12 12 11 12 11 10 12 8 8 9 13 12 9 8 11 10 12 10 10 9 9 7 6 3 4 7 9 5 8 7 6 6
24 24 22 18 18 18 18 16 13 13 14 12 12 13 12 12 12 8 10 7 10 8 9 10 12 8 11 10 9 8 8 8 8 5 3 3 3 4 9 7 6 7 6
25 24 23 22 20 19 16 15 15 16 15 16 12 11 10 13 13 12 10 11 12 10 10 9 8 8 11 8 8 7 5 5 6 4 4 5 3 3 2 7 8 9 7
25 25 24 24 23 21 20 21 17 16 16 14 14 13 13 15 14 12 10 13 11 10 9 7 10 11 8 6 8 6 1 2 2 2 5 5 5 5 3 1 5 6 8
27 26 25 25 25 23 22 18 18 16 15 14 13 14 13 11 12 13 8 12 9 9 6 13 10 8 7 3 6 3 5 3 2 3 4 4 5 3 2 2 2 2 3
29 28 27 26 27 25 21 20 16 16 14 14 13 15 11 12 10 12 7 9 12 6 10 7 6 3 4 4 4 5 4 4 6 5 2 4 5 4 3 4 3 4 1
30 31 30 29 27 26 24 17 18 15 16 10 13 11 13 14 13 13 12 8 6 7 6 6 4 3 2 4 5 2 5 5 1 5 4 1 4 3 3 5 2 3 2
31 30 30 30 29 26 27 22 21 16 15 14 12 12 11 8 8 8 5 6 8 6 9 5 3 4 3 2 2 0 4 3 5 6 5 3 1 3 5 2 4 7 5
31 30 30 32 29 28 26 25 22 19 14 13 12 11 14 9 10 8 7 9 6 6 9 7 4 3 3 3 2 3 2 2 1 1 5 1 6 2 4 5 5 5 8
32 31 31 33 33 29 27 25 27 22 20 15 16 12 10 10 6 10 8 10 7 3 5 3 5 4 5 7 4 5 2 2 1 3 5 6 7 7 5 8 7 7 7

GFSSE_850_spd_006.txt.gz
Wind_Speed
23 26 25 26 26 25 25 24 24 26 25 23 21 20 19 18 18 17 17 16 15 14 15 16 16 16 15 14 13 12 12 15 15 14 18 15 11 11 13 15 15 3 9
21 23 24 24 24 25 25 24 24 26 24 22 20 19 18 17 16 16 16 14 13 12 13 15 15 16 15 14 13 13 12 16 15 11 12 16 13 12 12 9 11 3 10
19 24 23 22 24 24 23 23 24 24 23 21 20 19 18 17 15 15 13 13 12 12 12 13 14 14 13 12 11 12 12 14 15 12 11 10 10 9 10 12 7 8 10
22 19 21 20 22 22 22 22 23 23 21 19 18 17 16 15 14 12 12 12 11 11 11 12 12 12 11 11 11 10 11 13 14 11 9 7 5 9 9 10 11 11 11
22 17 20 21 21 21 22 21 21 20 19 17 15 12 11 11 11 11 11 11 11 10 11 11 11 11 10 10 10 8 8 10 12 15 5 6 5 8 8 11 10 12 11
18 13 18 20 19 21 21 20 19 18 17 15 13 10 7 7 8 9 10 11 10 10 11 10 11 10 9 9 9 10 8 6 8 11 9 7 7 6 9 12 10 9 9
18 16 19 18 19 21 22 20 17 16 16 14 12 8 5 5 6 6 8 9 8 8 10 10 10 10 9 10 10 10 8 7 6 5 6 7 2 5 8 10 9 9 9
18 17 18 19 20 21 21 19 16 15 14 13 11 8 6 4 4 4 5 5 6 7 8 9 10 10 10 11 11 11 10 9 8 3 4 2 1 4 8 10 9 9 8
19 16 18 19 20 20 20 18 15 13 13 12 11 9 7 3 3 3 4 5 6 7 9 9 10 11 12 14 15 11 12 10 4 6 4 3 2 2 6 8 8 9 9
19 16 16 17 20 20 20 17 14 13 12 12 11 9 4 2 4 4 4 5 6 6 7 9 10 12 14 17 17 15 14 11 13 11 9 5 2 3 4 5 6 9 9
19 20 16 15 13 15 17 16 12 11 11 10 9 7 5 2 3 4 9 10 8 6 7 11 12 12 13 13 15 15 14 12 11 12 13 9 7 1 3 3 4 7 9
21 16 24 18 15 12 12 12 11 9 8 8 5 4 4 5 2 4 9 10 8 7 8 12 11 7 12 11 12 15 10 13 10 8 9 10 8 4 1 2 4 5 9
21 18 24 18 18 15 18 9 6 5 5 5 5 4 2 5 7 7 3 5 4 5 6 7 9 9 10 8 5 10 8 7 8 9 11 12 10 7 4 3 7 5 5
24 22 19 18 18 19 14 9 11 9 5 8 9 7 11 0 6 9 2 6 4 7 5 7 8 9 8 10 10 10 8 8 7 7 13 11 11 9 3 5 7 5 9
23 21 17 16 17 16 16 10 10 12 10 9 9 9 7 4 10 7 3 3 3 2 6 8 7 8 10 9 11 8 9 8 10 5 7 11 11 10 3 4 5 5 8
23 22 18 18 18 17 18 17 14 16 10 12 9 11 11 10 9 12 8 6 6 6 8 4 7 5 7 8 8 12 11 6 10 7 5 7 9 9 3 3 5 4 9
24 23 22 21 20 23 21 22 21 12 12 12 11 9 12 14 12 10 7 8 7 11 11 9 9 10 4 8 8 9 6 9 5 10 2 5 7 8 5 5 4 5 5
23 25 23 20 18 14 19 17 21 16 14 14 12 15 16 15 13 12 4 8 13 5 11 9 11 9 8 7 7 5 6 5 7 7 2 4 4 4 6 4 3 3 5
26 27 27 23 22 20 18 20 16 12 15 15 16 11 17 13 12 8 6 11 4 13 12 7 12 4 8 5 4 4 2 3 4 2 2 5 2 4 4 4 5 5 4
29 28 29 28 24 23 20 14 13 12 16 17 16 16 8 12 15 12 7 11 14 15 6 9 5 12 3 6 4 6 5 3 4 0 5 3 9 5 5 2 4 6 3
29 31 30 31 29 24 22 21 21 22 17 14 12 9 15 17 16 12 11 10 10 7 8 4 12 4 2 4 7 6 10 1 6 6 5 4 7 5 4 7 3 2 3
32 32 33 32 32 33 28 23 17 18 12 14 16 16 16 10 10 10 8 5 6 5 5 9 11 2 2 5 6 5 8 7 6 7 3 3 4 3 1 2 3 3 2
35 36 35 34 32 33 30 25 22 18 18 14 14 14 14 14 13 9 10 9 10 8 6 7 5 2 4 2 5 1 2 2 8 7 6 4 5 1 2 5 9 6 1
36 37 35 35 33 32 28 25 19 21 15 15 13 14 15 13 13 18 13 9 10 9 8 8 4 4 4 2 1 4 3 1 2 7 11 3 1 2 9 1 2 8 9
35 37 38 36 34 32 29 30 22 20 17 16 18 16 21 12 8 8 10 10 14 6 9 9 10 8 6 5 4 4 0 1 3 1 11 5 6 3 5 7 7 5 6
37 37 38 37 37 33 31 29 28 23 22 17 19 20 18 14 14 18 16 15 15 7 10 9 6 6 12 10 9 6 5 2 6 1 3 4 4 5 9 8 8 4 7

GFSSE_850_spd_009.txt.gz
Wind_Speed
23 24 27 27 25 25 27 29 30 27 25 24 22 22 20 20 20 18 17 15 16 16 16 15 16 15 14 13 13 15 13 13 16 17 16 11 11 15 16 16 10 9 12
26 24 28 27 28 25 27 29 28 25 24 21 20 19 20 19 18 17 16 15 14 15 14 14 15 14 14 13 13 13 14 15 12 12 17 14 13 14 15 11 9 10 12
25 28 26 26 27 26 26 27 26 24 22 21 19 19 18 17 16 16 14 13 13 13 13 13 13 12 12 11 13 13 12 11 12 11 13 13 10 10 13 12 9 12 12
27 27 26 25 25 24 25 26 25 23 22 20 19 18 17 16 16 15 13 12 12 11 12 12 12 11 11 10 11 13 11 9 10 11 10 8 9 11 10 11 11 13 15
24 24 26 25 24 24 24 25 24 22 21 19 17 15 14 14 14 13 12 11 11 11 10 11 11 10 11 11 11 10 9 9 8 11 8 6 9 9 10 10 13 13 14
20 22 24 24 23 23 23 23 23 21 18 16 13 10 11 12 11 11 12 11 10 10 11 11 12 11 11 13 12 9 8 5 7 8 8 4 8 9 11 12 11 10 12
19 19 22 22 23 23 22 22 21 19 16 13 11 8 9 9 8 9 10 9 9 10 11 11 12 13 13 14 13 10 5 6 4 10 8 5 6 8 8 9 9 9 10
18 21 22 21 23 23 22 20 19 17 14 12 10 7 7 7 6 7 10 9 9 10 10 11 13 16 17 16 15 16 12 9 11 10 9 4 6 6 6 7 8 8 9
19 22 21 23 23 23 21 18 17 16 14 12 10 7 6 5 7 8 8 11 10 11 11 11 14 18 21 22 18 17 16 10 15 11 11 5 4 6 5 6 7 7 8
13 19 22 23 23 23 21 18 16 15 13 12 9 8 5 6 7 9 10 11 10 9 11 13 12 13 16 19 17 15 16 13 13 12 9 8 4 4 6 5 5 7 7
13 16 20 23 23 22 21 18 14 13 12 12 11 8 5 5 5 6 4 7 4 9 10 9 9 11 12 12 13 12 14 13 10 9 9 11 5 4 6 6 3 6 5
18 15 18 19 22 22 19 16 13 13 12 12 10 9 3 5 2 1 7 5 5 9 7 5 8 8 10 8 8 8 6 7 7 5 6 6 5 2 1 6 6 6 8
23 21 19 17 14 16 17 13 12 13 11 11 12 11 2 2 1 3 5 5 4 10 6 6 7 8 8 10 5 6 6 1 11 5 5 6 6 4 1 6 8 5 7
26 26 23 17 19 18 16 8 13 11 8 6 4 5 5 3 2 4 2 3 7 6 6 3 7 7 10 8 9 9 16 7 3 6 5 4 6 4 5 5 8 9 10
30 28 27 24 22 20 19 12 12 10 6 5 6 4 2 8 3 4 1 0 4 3 5 4 2 4 6 4 7 6 11 6 5 7 4 1 3 4 4 6 9 7 8
33 29 27 24 18 23 21 15 13 12 13 10 11 7 6 3 7 4 4 3 3 4 4 7 10 7 3 4 1 7 8 4 11 6 3 1 2 4 2 3 6 6 9
35 28 25 24 22 24 24 21 20 18 17 15 10 4 8 7 8 13 8 4 4 6 4 7 7 6 1 1 4 7 3 9 8 9 10 3 4 1 3 1 3 5 5
31 30 26 24 23 22 25 26 24 20 17 16 13 9 8 10 12 9 7 6 7 10 6 8 9 7 2 2 1 2 6 3 6 5 4 1 2 1 2 1 3 1 2
34 32 29 25 20 19 18 26 25 23 19 15 15 13 14 16 12 10 8 7 3 5 9 9 7 10 8 8 4 4 2 5 5 5 5 5 5 3 2 2 2 0 4
33 33 29 25 23 22 17 18 20 21 21 15 17 20 16 13 14 10 8 9 5 7 10 8 5 11 2 2 3 3 4 4 3 4 5 12 9 6 3 3 1 3 5
34 33 35 33 26 24 23 19 18 22 17 16 20 18 18 15 15 12 12 11 10 6 5 7 7 7 5 3 3 1 7 3 6 7 4 7 4 4 6 3 2 0 2
38 39 37 35 33 27 25 24 21 21 19 18 14 16 16 16 12 7 8 8 9 8 8 9 6 4 4 5 3 3 6 8 8 6 2 6 3 2 2 1 2 3 5
43 42 41 38 34 35 29 26 22 18 21 20 20 20 21 18 15 10 11 10 8 10 11 8 7 7 8 7 3 3 5 4 12 7 6 4 4 6 9 3 2 4 5
45 42 40 38 36 35 37 32 29 24 25 24 18 21 19 15 15 13 15 12 12 14 13 9 7 4 11 7 5 1 3 4 5 9 10 6 2 2 7 7 7 6 5
48 45 43 40 37 35 35 37 34 26 25 19 18 18 17 19 16 13 15 13 15 11 13 11 6 5 15 11 9 9 2 3 5 5 15 12 10 4 4 7 7 6 4
50 48 46 43 40 37 32 33 33 27 23 26 26 25 22 25 20 14 16 15 14 14 13 11 8 10 14 17 13 11 10 5 8 4 8 5 4 8 6 6 11 8 8

GFSSE_850_spd_012.txt.gz
Wind_Speed
30 29 25 23 29 25 27 28 27 28 27 25 23 22 21 20 18 17 16 14 15 15 16 14 13 13 13 12 12 11 13 15 15 12 10 9 12 14 13 11 11 10 13
29 28 24 25 26 27 30 28 27 26 24 22 21 20 20 18 16 15 14 14 14 15 15 15 14 13 13 12 12 12 12 10 12 14 14 12 12 13 11 11 10 10 13
28 28 26 26 27 29 30 27 26 23 22 20 20 19 18 16 15 13 14 14 13 14 13 13 13 12 12 12 10 10 11 11 10 11 15 10 9 8 10 8 9 10 12
31 29 28 27 27 28 28 26 24 22 20 21 20 18 16 15 14 14 12 12 13 12 12 11 12 12 12 11 9 9 9 11 10 9 12 12 9 10 7 8 10 11 12
30 29 28 26 26 27 27 25 23 22 20 20 19 16 14 14 14 13 11 12 12 12 13 12 12 13 12 11 8 6 6 7 9 9 11 10 6 9 10 11 11 13 12
28 28 28 26 25 26 26 24 22 21 19 17 15 13 13 13 13 11 12 11 12 13 14 14 13 14 13 12 10 8 7 5 9 8 6 8 8 9 9 11 10 12 12
26 27 26 25 24 24 25 23 21 19 17 14 11 10 11 11 10 11 11 12 12 13 14 15 15 14 14 14 13 8 8 14 9 4 9 3 7 8 9 9 7 10 9
24 26 26 24 23 23 23 22 20 18 15 12 9 9 10 10 9 12 13 13 13 13 13 16 17 16 18 16 12 11 13 14 9 9 7 8 6 7 7 8 8 10 10
19 24 25 25 24 22 21 21 19 17 14 12 9 8 9 9 9 9 10 11 11 11 10 15 19 18 16 13 12 11 16 12 13 8 9 9 8 6 8 8 8 9 10
20 22 23 25 26 24 22 20 18 16 14 12 9 9 8 8 8 10 7 9 11 9 11 12 14 14 11 9 11 8 14 10 9 9 9 7 9 7 7 9 10 10 10
21 22 23 25 25 24 22 19 17 15 14 12 11 10 8 6 5 5 6 7 10 9 7 8 10 10 10 8 11 10 9 8 6 8 7 7 7 7 3 8 10 11 11
22 24 24 25 25 24 22 19 16 15 13 12 12 10 7 4 2 4 7 8 10 7 7 6 6 7 11 9 6 6 7 5 4 5 3 5 3 4 3 7 8 11 10
20 22 25 25 25 24 22 18 16 14 14 14 13 11 5 2 2 4 5 4 4 8 7 5 6 6 7 8 8 5 13 7 2 2 3 2 3 1 3 7 9 9 11
24 22 25 24 25 23 20 15 13 14 14 13 12 9 4 3 2 2 5 7 3 7 4 3 3 2 6 3 5 6 13 2 5 5 3 1 2 2 4 5 10 7 11
26 25 25 25 23 23 22 14 17 17 15 13 11 7 5 7 4 1 5 2 2 2 4 4 2 5 3 3 4 3 8 4 8 9 3 3 1 3 3 6 8 7 8
28 27 27 24 23 23 21 18 20 17 14 11 12 9 8 6 5 4 3 4 4 1 2 5 5 5 7 2 1 3 4 3 7 5 0 3 2 2 3 5 8 9 7
33 29 28 27 25 23 23 21 21 15 14 13 12 13 13 8 7 6 6 4 3 2 3 5 8 7 6 3 0 3 2 4 4 9 6 2 4 2 2 2 7 7 8
37 36 32 30 29 25 26 24 21 16 18 17 14 13 12 10 9 8 7 8 10 8 9 7 10 7 4 4 0 1 2 0 1 2 1 2 3 3 1 0 2 5 6
40 37 35 35 30 26 27 28 26 22 24 19 17 18 15 14 12 6 10 9 7 6 9 9 7 6 5 6 6 4 3 3 4 1 6 4 3 3 3 3 2 2 5
43 39 36 34 30 25 25 26 27 28 24 24 22 18 17 15 12 14 10 9 8 8 6 7 6 5 5 5 6 6 3 2 4 4 6 9 7 5 3 6 4 5 6
41 41 41 39 32 27 27 26 31 31 31 26 22 19 20 17 15 13 12 12 12 8 4 5 6 6 7 7 7 7 6 3 4 5 6 5 4 4 6 8 7 1 5
45 44 42 39 34 30 27 25 24 27 29 30 25 21 21 19 18 14 10 10 12 12 10 10 8 4 10 7 5 8 12 8 7 7 4 3 3 7 4 1 3 5 6
43 46 45 41 37 33 30 26 24 21 26 28 26 25 20 22 16 14 12 12 12 15 14 12 9 6 12 11 5 7 7 7 13 10 8 4 3 5 8 5 5 2 2
51 47 45 43 40 37 35 31 31 30 31 29 25 25 23 20 20 18 16 15 14 14 14 12 9 8 13 14 10 6 6 8 12 12 13 8 5 2 4 4 6 8 5
55 54 51 48 45 41 38 36 35 33 29 22 26 23 22 23 20 19 17 16 17 15 13 12 9 8 15 13 11 8 5 8 10 13 13 15 10 7 3 3 4 6 6
58 55 54 53 49 45 42 37 38 38 34 28 29 27 22 22 23 21 18 18 17 15 14 10 9 9 12 14 12 12 10 10 9 9 9 14 10 11 5 8 7 8 8

GFSSE_850_spd_015.txt.gz
Wind_Speed
30 32 30 27 24 24 25 27 29 29 27 24 22 20 19 18 16 14 14 14 14 13 13 13 13 12 12 10 9 11 14 12 10 8 6 7 8 12 10 10 10 10 11
33 30 25 28 25 26 26 28 28 26 23 22 21 19 18 16 14 13 14 13 14 14 15 14 14 11 10 10 11 9 9 10 12 11 10 11 11 10 9 10 10 11 12
31 26 27 26 26 28 26 27 25 24 21 21 20 18 16 14 13 13 12 14 13 13 13 14 13 11 10 10 11 11 10 7 9 13 9 8 8 9 8 10 9 10 13
28 26 26 25 27 28 26 25 23 22 20 20 18 16 14 13 13 12 13 13 12 13 13 14 13 11 9 9 9 9 9 8 10 10 11 8 9 9 7 9 10 11 12
28 27 26 27 27 27 25 23 22 21 21 19 17 15 14 13 12 13 13 13 13 13 14 14 13 13 12 10 8 6 7 9 10 12 10 10 7 8 8 10 12 12 12
29 28 27 27 27 26 24 22 21 21 20 17 15 14 13 12 13 13 12 13 13 13 14 14 14 14 13 10 8 6 7 5 9 10 10 10 8 8 10 10 12 12 11
29 28 26 25 27 26 24 22 21 20 17 14 13 12 11 12 13 13 13 13 13 13 13 14 15 14 14 12 12 10 9 7 13 9 10 10 9 9 11 10 10 11 10
28 28 26 24 25 26 24 22 20 18 14 12 10 10 10 11 12 12 12 12 12 13 14 14 15 13 13 11 13 12 12 11 5 5 5 8 8 9 9 8 9 11 11
26 26 25 25 24 24 23 21 19 16 14 11 9 9 9 10 9 9 10 9 10 13 16 17 15 13 11 10 10 10 13 12 8 7 4 6 7 8 8 8 8 9 10
25 25 25 25 24 24 23 21 19 16 14 11 9 9 9 8 8 6 8 7 9 13 14 13 12 8 8 8 9 10 8 8 7 7 5 4 5 4 6 8 7 8 9
24 25 25 26 26 23 22 21 19 17 14 12 10 9 8 7 5 4 5 5 7 11 11 9 10 8 7 8 10 10 8 5 4 5 6 3 5 5 5 7 9 8 8
27 27 26 27 26 24 23 21 19 17 15 13 12 10 7 5 3 4 6 7 6 7 7 7 5 8 10 9 10 9 5 3 1 3 3 3 3 5 4 6 8 9 9
26 27 26 26 27 26 24 20 18 17 15 14 14 11 7 5 4 1 1 8 3 8 6 7 7 5 4 5 6 3 14 5 2 2 3 3 2 3 4 7 8 10 9
27 27 26 26 27 26 22 20 17 16 16 16 14 12 6 3 3 2 5 8 5 5 4 3 4 2 4 2 3 3 11 3 5 5 7 6 4 2 4 7 8 8 10
26 27 27 28 27 25 23 19 17 16 16 14 13 11 6 5 3 0 5 4 5 3 3 1 2 4 4 5 4 3 6 3 9 6 2 4 2 3 4 7 9 7 8
27 26 29 28 27 26 24 20 18 18 16 17 17 11 7 6 5 3 3 4 5 4 2 2 2 5 5 4 1 2 3 5 6 5 0 2 2 3 1 5 8 8 6
31 26 29 27 27 26 25 19 21 19 19 17 16 15 11 8 9 6 5 5 6 5 5 4 4 5 5 4 0 1 1 3 3 8 2 0 3 3 1 2 7 8 8
31 32 29 27 24 26 27 22 24 22 20 17 15 14 13 13 11 8 7 6 7 5 7 5 6 6 4 6 5 3 4 1 1 0 1 1 1 1 2 1 2 6 7
34 32 34 32 28 26 26 25 26 23 21 20 20 19 15 13 12 9 6 7 9 8 6 8 9 6 5 8 6 6 4 2 3 2 3 1 2 1 1 2 1 1 3
35 35 33 33 32 29 25 27 27 27 23 22 20 17 15 15 13 11 10 9 9 9 8 7 7 7 7 4 8 9 5 2 2 1 2 5 4 4 1 4 5 6 6
40 38 38 37 35 33 32 32 33 31 28 26 24 19 17 15 13 12 11 12 13 11 9 8 8 7 5 7 8 9 5 4 4 3 2 1 2 3 4 6 7 6 5
44 42 41 40 38 37 34 31 33 31 31 30 26 23 20 17 17 16 14 14 14 13 12 9 8 9 8 9 9 7 9 8 7 6 2 1 2 7 5 3 2 4 4
48 46 44 43 44 41 37 32 32 27 32 34 34 29 25 20 17 17 16 16 14 13 15 13 12 10 11 11 8 6 5 5 11 11 7 4 2 5 8 10 9 5 3
49 46 46 44 45 45 41 37 34 32 32 33 34 33 28 23 21 21 18 18 16 13 13 15 14 11 11 12 10 8 7 6 10 8 13 10 6 3 2 3 5 8 7
48 47 46 47 46 46 46 42 37 34 31 27 29 30 28 24 22 23 23 22 17 16 14 14 13 11 11 14 14 11 8 9 11 12 13 14 11 8 4 3 2 2 4
55 51 48 48 49 49 47 45 42 37 33 31 28 30 28 27 27 26 23 23 19 18 16 14 11 12 9 15 15 14 11 10 12 13 14 14 14 11 11 8 8 6 4

GFSSE_850_spd_018.txt.gz
Wind_Speed
30 27 24 26 25 25 24 22 23 23 24 21 18 17 17 16 15 14 13 13 12 13 12 12 12 10 9 8 9 11 11 10 7 6 7 8 8 9 9 10 10 11 11
34 30 26 25 23 23 25 26 27 25 21 19 19 18 16 14 15 14 13 13 13 13 14 13 11 9 9 9 9 9 9 11 10 10 11 12 11 8 9 8 9 12 12
33 30 25 23 24 25 27 27 25 22 20 20 19 16 14 14 13 13 13 13 13 13 13 11 9 8 8 9 8 7 6 8 10 11 11 11 9 9 10 10 10 11 10
30 28 26 24 26 26 28 25 23 21 20 18 17 15 13 13 14 14 12 13 13 13 12 10 10 8 8 8 6 5 6 6 9 11 11 9 9 10 10 10 10 12 10
25 28 25 26 28 27 26 24 21 20 18 17 15 14 13 13 14 14 14 14 14 13 13 12 10 9 7 6 4 3 5 5 7 9 11 11 9 9 10 11 10 10 9
27 27 26 28 28 26 24 22 21 19 18 16 15 14 13 13 14 14 14 14 13 13 13 11 11 9 9 8 9 6 5 4 6 7 10 10 9 9 11 11 11 11 10
28 27 28 28 27 25 23 21 21 19 17 14 14 12 12 13 14 14 13 12 12 12 12 12 11 11 12 12 11 10 7 2 3 4 8 10 9 9 10 10 9 9 9
29 28 28 27 26 24 23 21 20 18 15 13 12 11 11 13 13 12 12 12 12 11 11 11 12 10 11 11 11 11 13 11 6 3 5 7 8 9 8 7 8 8 9
27 27 27 27 26 24 22 21 19 16 13 10 10 10 10 11 11 10 10 11 12 12 12 11 10 10 10 11 10 12 13 10 6 3 4 5 8 7 6 6 7 8 9
27 26 26 25 26 25 23 21 19 15 12 9 9 8 8 8 8 8 8 9 12 13 11 9 8 8 10 11 11 10 9 9 9 8 4 4 6 5 5 6 8 7 7
27 26 25 25 25 25 23 21 18 15 13 10 9 7 6 6 6 5 5 8 11 11 8 6 7 10 12 11 10 11 8 7 5 6 7 3 3 3 4 6 6 8 6
29 27 25 24 24 23 22 21 19 16 14 12 10 8 6 4 4 6 4 7 8 8 7 5 4 9 8 8 8 7 14 5 3 1 5 5 1 3 2 5 8 7 7
28 28 27 25 25 24 23 22 20 17 15 14 12 9 6 5 5 3 4 6 6 7 7 6 5 4 5 5 7 4 12 7 1 2 5 4 4 2 3 4 6 8 7
29 28 27 27 27 25 23 21 19 17 16 15 14 11 7 6 4 3 6 5 7 5 5 4 3 2 3 5 4 6 12 6 11 8 6 4 2 1 3 4 7 8 8
29 29 27 27 28 27 25 22 19 17 16 16 15 12 7 6 5 4 6 5 8 6 6 2 2 4 2 4 3 4 8 3 7 8 3 3 2 2 2 6 8 6 8
28 28 28 28 27 27 25 22 19 17 16 17 16 12 7 6 6 4 5 4 4 3 3 3 1 5 5 4 5 2 4 5 5 6 1 1 1 2 2 5 5 8 6
28 28 29 28 27 27 25 22 20 18 17 18 17 13 9 6 6 5 4 4 6 6 7 7 4 5 5 2 2 2 1 4 4 8 4 3 3 2 2 1 5 7 5
28 28 28 28 29 27 26 24 20 20 20 18 17 16 12 12 9 8 6 6 7 7 6 7 5 7 4 3 4 2 3 2 1 1 4 3 3 3 5 3 2 5 6
32 29 27 29 29 28 26 25 21 21 21 19 18 16 16 12 13 12 7 6 7 8 9 6 6 5 4 5 7 5 3 1 1 3 4 2 4 2 3 5 5 4 1
33 30 28 29 28 26 25 26 25 25 24 22 20 20 18 15 14 12 10 8 7 7 6 5 7 5 5 4 3 7 4 1 2 4 4 5 6 3 2 4 2 5 5
35 34 32 32 31 29 30 29 30 29 28 25 21 19 18 15 15 13 11 10 9 9 9 8 7 5 6 3 6 7 3 3 2 3 4 1 3 1 4 6 7 6 4
39 39 37 34 33 34 32 29 29 29 29 27 22 21 21 17 15 12 12 11 11 11 11 10 6 4 3 7 8 9 6 5 5 4 1 2 3 7 6 4 2 1 1
43 44 43 39 37 37 35 32 32 31 32 29 29 26 24 20 17 15 14 13 13 12 11 11 10 7 5 10 10 6 5 6 8 9 7 3 3 5 8 11 10 6 4
46 44 44 43 41 39 37 36 35 33 32 32 33 30 28 24 20 19 16 14 14 13 12 10 12 10 8 12 13 11 11 6 9 7 12 10 7 2 2 3 6 6 6
50 47 47 46 43 41 41 40 38 37 32 28 27 30 32 31 27 22 20 18 16 15 13 11 12 11 10 11 14 11 10 10 10 10 9 14 12 9 5 2 2 1 2
51 51 51 51 48 46 45 45 43 40 37 32 29 27 29 29 28 26 22 21 19 19 16 12 12 12 10 10 14 14 12 10 10 11 11 9 13 11 9 8 6 6 5

GFSSE_850_spd_021.txt.gz
Wind_Speed
23 32 28 29 34 31 26 22 20 20 21 18 15 15 14 13 12 12 11 11 10 9 8 9 8 8 7 6 8 9 8 6 5 6 7 8 8 9 8 10 12 10 9
30 31 28 29 27 24 23 22 21 22 20 17 15 15 13 12 12 12 12 11 10 9 9 7 7 7 6 6 7 8 9 9 9 10 10 11 10 8 9 10 14 11 11
30 31 27 26 25 24 24 24 23 21 18 17 15 13 13 12 11 11 11 11 10 9 8 7 7 6 6 6 5 4 5 9 7 9 10 9 9 9 10 11 12 11 11
30 29 26 25 25 26 27 25 22 20 18 17 14 12 12 12 12 11 11 11 10 9 8 8 7 7 5 5 6 7 5 5 6 7 7 7 8 9 10 11 13 11 9
30 28 26 25 26 27 25 23 20 19 18 16 13 12 13 12 12 12 12 11 9 9 8 8 7 7 6 4 4 5 5 5 5 5 8 10 9 9 9 11 11 10 9
28 27 28 27 27 26 23 21 19 18 17 15 13 13 13 13 13 12 12 10 8 9 9 9 9 9 9 8 7 5 4 6 6 5 6 7 9 8 11 11 10 10 10
29 27 28 27 27 25 23 20 19 17 16 15 13 12 13 13 12 11 10 10 8 9 10 11 12 13 13 11 11 7 3 8 5 6 5 7 7 8 10 10 10 9 9
28 24 27 28 26 24 22 21 19 17 15 13 12 11 12 12 11 11 9 9 9 9 11 11 13 13 13 13 14 14 11 9 5 5 6 6 8 8 8 7 8 9 9
26 25 25 28 26 23 21 21 19 16 13 12 11 10 10 10 9 9 8 9 9 10 11 11 12 12 12 13 12 13 13 10 8 4 4 6 7 7 5 4 6 7 7
24 26 26 27 26 24 22 21 18 14 11 10 9 9 7 7 7 7 8 8 8 8 8 8 10 10 11 12 11 10 11 9 11 8 4 4 5 5 4 4 5 5 6
24 27 26 26 27 25 23 21 18 14 11 9 8 7 7 7 5 5 5 8 8 6 6 7 10 10 10 12 11 13 9 7 6 8 7 3 4 4 4 5 4 5 5
27 27 25 27 28 26 23 21 18 15 12 10 8 7 6 5 3 4 5 6 6 4 3 4 6 8 9 7 8 9 9 2 2 4 7 6 3 1 3 4 5 5 5
29 28 27 26 26 26 25 22 19 16 14 11 10 8 6 4 5 3 4 4 6 3 3 4 5 6 6 6 5 7 13 9 6 5 4 3 4 1 0 4 5 5 5
31 29 28 26 26 25 24 22 19 17 15 13 12 10 7 6 4 2 5 3 5 4 4 2 3 3 3 6 4 9 8 4 6 7 2 1 1 2 1 2 4 5 6
31 30 29 27 26 25 23 22 20 18 16 14 14 12 9 7 5 4 5 5 5 4 4 1 3 5 6 6 2 3 7 5 5 4 1 1 1 2 2 3 6 5 7
29 30 29 28 27 26 24 22 19 17 16 15 16 13 10 8 6 5 5 4 5 5 5 4 2 6 7 7 2 4 5 6 6 8 4 3 2 2 4 2 5 7 5
30 29 29 27 26 27 25 22 20 18 17 17 16 14 10 8 7 5 4 4 5 7 7 6 4 5 5 3 1 3 4 6 5 8 7 4 2 4 5 2 3 6 5
29 30 28 28 27 26 26 24 21 19 18 18 18 16 12 9 8 7 5 5 6 6 6 5 4 6 5 2 3 1 2 5 2 3 5 5 4 3 7 6 3 3 4
31 28 28 29 29 27 25 24 22 20 19 18 18 18 15 13 12 10 8 6 6 6 7 7 5 6 4 3 5 4 1 2 4 5 4 4 4 4 3 6 6 6 2
31 29 26 28 29 27 26 25 25 23 21 22 21 19 15 15 13 12 11 9 6 6 5 4 4 4 3 4 3 7 3 2 4 5 5 6 7 3 2 1 3 3 4
33 32 30 29 29 30 31 30 30 28 25 25 24 20 18 17 16 15 14 11 7 6 6 6 5 3 5 1 5 6 3 2 3 5 5 4 6 1 2 4 3 3 1
37 36 34 33 30 31 32 31 29 28 26 27 25 21 18 17 16 15 14 12 9 8 8 8 6 3 4 4 6 5 3 2 3 3 4 4 6 9 6 4 3 2 1
37 39 39 36 34 35 32 30 29 27 29 29 29 26 21 20 17 16 14 13 11 10 9 9 8 7 5 6 7 4 3 4 4 7 5 4 4 5 7 9 8 6 4
40 38 38 39 38 37 36 34 33 32 31 31 30 27 25 21 19 17 15 13 13 11 10 11 9 8 7 5 10 11 9 5 4 3 10 8 5 3 3 3 4 5 6
40 40 39 40 41 40 38 37 36 34 31 27 28 29 27 26 24 21 18 16 15 13 11 11 10 8 8 7 9 10 9 9 9 5 5 7 11 8 5 2 1 1 2
39 41 42 42 43 44 43 41 40 37 34 31 28 27 26 27 27 27 25 21 19 17 14 12 11 9 8 8 10 11 10 6 6 6 6 6 7 9 11 9 7 6 5

GFSSE_850_spd_024.txt.gz
Wind_Speed
36 39 36 36 32 30 25 20 20 20 18 15 13 11 10 10 9 9 10 8 8 7 6 7 6 6 7 8 10 11 8 6 4 5 6 6 8 7 8 14 13 6 9
31 34 34 33 30 28 22 19 20 19 16 13 12 10 10 10 10 10 10 9 9 9 7 8 7 7 8 8 8 8 11 9 8 9 8 9 8 9 11 14 14 9 10
30 31 34 30 27 22 21 21 20 18 15 13 11 10 10 10 10 9 9 9 9 8 8 8 7 7 8 8 7 6 9 9 8 10 15 7 6 9 10 12 11 11 10
28 27 26 26 23 22 22 21 20 17 15 13 11 10 11 10 9 9 10 10 9 8 8 7 7 6 6 7 8 7 7 8 6 7 12 7 6 9 10 11 9 9 9
26 25 24 26 24 23 23 21 18 16 15 12 11 11 11 10 10 10 10 8 8 9 9 8 8 7 6 5 4 6 6 6 8 9 5 8 8 7 10 11 9 10 11
26 25 29 26 26 25 22 19 18 17 14 12 11 12 11 11 11 11 9 9 8 9 11 12 12 10 9 8 4 5 6 7 12 5 6 7 9 7 11 10 8 8 9
25 25 28 27 27 23 20 19 18 16 14 13 12 12 11 10 9 9 9 8 10 11 14 15 14 13 12 12 10 7 7 7 6 7 6 6 8 10 10 10 9 9 9
25 25 25 27 26 22 19 18 17 16 14 12 11 11 10 10 9 8 8 9 10 13 14 15 13 13 13 13 14 11 11 9 5 6 8 6 7 10 8 8 9 8 8
25 25 24 23 25 21 18 18 17 15 13 11 10 11 9 8 8 8 7 9 11 12 13 12 12 13 13 11 11 13 12 11 4 7 7 4 7 8 6 5 6 7 7
24 25 24 22 21 18 18 19 17 14 12 10 9 9 8 7 7 7 7 7 9 9 10 11 11 11 11 11 10 9 10 12 6 6 5 4 5 6 4 7 6 6 5
25 25 24 23 21 19 17 19 17 14 11 10 8 7 6 5 3 4 3 6 7 6 7 9 10 11 9 12 12 13 10 3 4 4 4 3 4 4 3 5 5 5 5
28 27 25 24 22 19 17 16 14 10 7 6 6 6 5 3 3 4 3 4 4 3 4 7 9 9 10 5 7 10 6 2 3 4 2 6 4 5 3 4 4 4 5
28 27 25 24 22 20 17 15 13 10 9 7 8 6 5 3 2 2 3 2 2 1 1 4 5 5 3 4 5 8 9 6 2 2 2 2 3 4 4 4 5 5 4
27 26 25 23 22 21 17 16 13 12 10 8 7 8 6 3 1 3 4 1 3 1 2 2 2 3 4 3 3 6 7 3 1 1 5 1 2 2 2 4 4 5 4
27 26 25 23 22 21 19 15 14 13 11 9 8 9 7 5 3 2 2 2 4 2 1 1 2 3 5 3 3 5 6 4 2 1 2 1 2 3 2 2 5 5 4
26 25 24 23 22 21 19 17 15 12 11 10 9 9 10 6 5 3 1 1 2 2 4 3 2 5 6 5 3 5 6 5 4 5 3 1 3 4 3 2 4 6 5
27 25 25 24 22 22 20 18 16 13 12 11 10 13 11 10 6 6 3 2 3 8 5 3 2 3 4 2 3 3 4 6 4 6 5 3 2 6 5 3 3 5 3
25 25 25 23 23 22 21 19 16 15 13 12 12 11 14 12 9 6 6 3 4 4 2 2 2 3 3 2 1 2 4 5 5 4 4 3 5 2 5 7 4 3 3
25 24 25 24 23 23 22 19 19 17 15 13 13 13 15 14 10 8 7 3 2 4 3 2 1 4 3 2 1 2 4 5 6 5 5 4 3 4 2 4 7 6 3
25 24 25 24 24 24 21 21 18 17 16 15 14 14 16 15 12 10 8 7 3 4 2 1 1 2 2 2 5 7 5 5 7 7 7 6 4 3 2 1 1 1 1
27 26 26 26 27 26 25 23 22 21 18 17 17 17 18 15 13 12 10 8 5 5 1 0 2 2 3 4 6 6 4 4 5 6 5 5 5 3 3 3 2 2 1
30 28 27 28 29 30 27 25 22 20 18 17 16 18 20 17 15 15 12 11 7 7 3 2 3 2 1 4 4 4 6 4 3 4 4 4 6 5 4 4 3 5 4
33 32 30 31 29 31 25 24 23 20 19 19 19 19 20 19 17 15 13 11 11 6 6 2 2 4 1 3 7 2 3 1 5 4 4 3 4 3 3 5 5 3 4
36 32 31 31 32 29 32 25 28 25 22 20 19 18 17 20 18 16 14 12 11 7 9 4 3 5 4 3 5 6 5 3 3 5 5 6 4 3 3 2 1 3 4
32 32 31 32 34 31 33 31 29 27 21 17 18 19 22 19 21 16 16 15 12 10 10 8 5 3 5 5 6 6 6 5 6 3 5 5 7 8 6 5 4 3 2
32 31 31 34 39 39 38 38 35 29 27 22 21 20 19 19 18 22 19 18 14 13 12 9 8 6 6 7 7 9 7 5 4 5 5 4 6 7 8 7 6 5 6

GFSSE_850_spd_027.txt.gz
Wind_Speed
31 31 32 28 24 23 21 21 20 18 15 13 11 11 10 10 11 11 11 10 9 9 8 8 8 8 9 10 12 12 9 7 6 6 8 8 8 10 14 14 13 5 9
39 33 33 25 24 22 19 20 19 16 13 12 11 10 10 12 13 12 11 11 11 11 9 8 9 10 9 8 9 11 11 12 10 10 12 11 10 13 14 11 16 6 9
42 33 32 26 24 20 18 19 18 15 12 11 10 10 11 12 11 12 11 10 10 9 8 8 9 10 10 10 9 9 12 12 16 13 15 10 5 10 12 9 8 9 10
36 26 23 26 23 18 18 18 16 14 12 10 9 10 10 10 11 11 11 11 10 9 9 9 8 8 8 7 9 9 10 12 14 11 5 9 5 9 9 9 9 10 9
31 26 24 25 22 20 20 18 15 13 12 9 10 10 10 11 12 10 10 10 10 12 11 10 10 9 7 5 7 8 10 14 15 13 10 15 9 7 11 10 9 8 11
25 26 26 24 22 21 20 17 14 13 11 10 10 9 10 11 11 10 10 11 12 13 13 13 12 11 10 8 5 7 12 16 13 5 9 11 8 9 10 9 6 7 7
29 23 26 24 22 21 19 16 14 13 11 10 11 11 10 10 10 9 10 12 14 14 14 14 14 13 14 13 11 7 9 14 9 6 7 7 7 10 10 9 8 9 9
26 25 23 25 23 20 17 16 15 13 11 10 10 10 10 9 8 9 10 12 13 14 14 13 12 12 13 15 13 12 10 10 13 9 3 9 7 9 9 9 9 9 8
26 25 23 23 21 19 17 16 14 13 11 10 11 10 9 9 9 9 10 12 13 12 12 12 12 12 13 11 12 11 13 10 8 8 7 6 6 8 7 7 8 9 8
28 24 23 21 19 17 17 16 15 13 11 10 10 10 9 10 8 10 9 9 11 10 11 11 11 11 15 15 14 10 10 13 8 13 4 2 4 6 6 7 7 6 7
26 24 23 22 19 16 15 16 15 13 10 9 7 7 9 7 5 7 3 6 7 8 9 9 11 5 6 16 15 12 8 3 5 4 6 3 4 5 5 6 6 6 7
24 26 24 22 21 18 15 15 11 9 6 5 3 2 9 5 3 3 3 3 4 5 7 8 9 7 5 3 6 5 6 4 5 2 3 3 4 4 4 5 5 5 5
26 25 25 23 21 19 17 13 10 7 8 6 7 5 2 4 6 4 6 4 4 1 7 4 9 11 5 6 6 8 4 4 3 7 2 3 4 4 5 4 6 6 5
27 25 24 23 22 20 16 13 11 10 8 7 5 6 3 2 3 5 3 2 1 3 3 6 8 3 6 6 2 5 3 5 4 2 3 4 3 4 4 6 6 6 6
27 26 25 24 24 21 17 15 13 11 10 8 6 7 5 3 2 2 2 1 3 3 5 2 2 2 4 1 8 5 3 2 3 1 1 4 2 3 3 5 7 7 7
27 26 25 24 23 21 20 16 15 14 10 10 8 8 9 6 4 3 2 1 2 4 6 4 3 3 4 4 4 4 5 5 1 3 2 5 2 2 2 5 7 7 7
27 26 26 24 23 22 21 18 16 13 12 11 10 11 9 7 5 4 4 2 4 4 4 1 4 7 7 3 4 3 2 6 4 4 2 1 2 6 2 4 6 8 6
26 27 26 24 23 22 20 18 16 14 13 12 10 10 10 8 10 3 1 2 1 2 2 2 3 2 3 1 1 2 3 3 3 5 3 3 5 2 3 3 4 6 5
27 27 27 25 24 23 22 19 17 16 15 13 12 11 12 11 8 8 3 5 2 4 1 1 1 5 2 1 2 3 3 4 3 4 4 2 2 0 3 6 4 2 3
27 26 26 26 25 26 22 21 18 17 16 14 13 12 15 14 12 8 7 6 3 3 1 1 4 0 1 4 6 6 4 4 4 5 5 5 3 2 6 3 3 2 3
28 28 28 28 28 26 24 22 21 20 17 16 15 15 16 14 12 11 7 3 3 5 4 3 2 4 2 5 7 6 3 5 4 4 4 4 3 2 3 3 5 3 1
31 30 30 31 30 30 26 24 21 19 17 16 15 17 16 15 13 13 10 7 7 7 6 5 7 6 2 6 5 6 8 6 4 4 3 3 5 4 2 1 2 1 3
34 33 33 34 34 32 26 24 23 20 19 18 17 17 17 17 14 14 11 10 10 9 6 6 5 6 5 6 9 4 4 8 10 5 3 3 4 2 2 4 4 3 4
36 34 34 35 35 33 33 25 26 24 22 19 18 17 16 17 16 15 14 12 13 8 10 5 5 7 5 5 6 6 5 1 2 7 6 5 3 2 3 1 1 2 3
35 34 34 36 35 32 33 30 27 26 21 19 18 19 21 18 17 16 15 15 13 12 12 11 10 9 7 7 7 6 5 4 4 1 8 9 4 5 3 2 2 2 1
34 34 33 35 36 36 34 36 32 29 25 20 20 19 18 19 16 21 18 18 16 13 13 10 11 10 11 9 8 9 7 6 6 5 4 7 6 8 6 6 6 5 5

GFSSE_850_spd_030.txt.gz
Wind_Speed
26 24 26 23 20 20 20 19 17 17 17 15 16 17 15 14 15 15 15 14 13 12 11 12 10 10 11 11 13 12 10 9 9 10 10 9 11 13 13 16 15 5 10
31 32 27 23 20 20 19 18 17 17 16 16 16 15 14 15 15 16 15 15 13 12 13 11 11 11 9 10 12 14 15 15 15 18 18 12 10 13 10 10 13 8 10
30 33 27 23 20 18 17 17 16 15 15 15 14 14 14 14 15 15 14 14 13 12 12 12 11 11 11 12 11 14 15 16 16 14 13 7 8 10 11 11 10 11 12
32 29 23 22 18 17 16 16 15 14 14 14 13 13 12 14 15 14 15 15 14 13 13 12 10 9 9 10 11 13 15 15 14 13 17 11 5 9 9 12 11 12 11
32 20 23 21 16 16 16 15 14 13 13 12 13 11 12 13 14 14 15 15 15 15 14 13 12 10 9 8 11 14 18 17 12 14 15 13 6 11 10 11 9 11 11
28 22 25 21 17 16 16 15 14 12 11 12 12 12 12 12 14 15 16 16 16 16 16 15 14 14 13 8 12 15 17 12 11 12 8 6 8 11 11 11 8 9 7
23 20 25 21 19 17 16 15 13 11 11 11 11 11 12 12 13 14 16 17 16 16 16 15 15 15 14 13 11 12 15 15 11 12 7 5 8 10 10 10 9 10 10
24 20 24 22 19 18 15 14 13 11 10 10 10 11 11 11 12 14 15 16 15 14 14 14 14 14 13 13 12 11 11 17 11 6 4 7 8 10 11 10 10 10 11
23 22 26 23 21 17 15 14 13 11 10 10 10 12 11 12 11 11 14 15 13 12 12 13 15 15 13 13 14 14 15 13 10 2 6 8 7 8 9 10 10 10 10
26 22 21 21 20 18 16 14 13 11 10 10 11 11 13 12 12 9 10 10 11 12 13 11 11 15 11 15 13 11 14 12 9 10 2 3 4 7 7 9 9 9 9
29 23 22 19 16 14 15 15 13 11 10 9 9 5 10 9 8 6 5 6 9 11 11 8 8 7 8 11 11 9 4 7 9 5 3 2 3 5 7 7 8 9 9
28 25 23 20 17 14 13 15 13 12 10 8 5 1 8 12 5 4 5 5 8 7 9 8 10 7 12 11 11 9 6 8 10 6 6 6 2 5 6 6 7 8 8
29 28 26 22 19 14 17 13 9 8 6 6 5 7 6 10 6 6 7 6 4 11 10 8 10 8 6 5 6 4 4 11 6 6 5 6 2 4 7 6 6 7 8
31 30 28 26 23 16 21 11 9 9 9 9 5 2 4 7 8 3 8 5 7 3 6 9 8 5 7 5 9 7 7 11 15 3 7 9 3 2 4 5 6 6 6
29 30 29 27 24 22 15 9 13 12 9 9 7 1 6 4 6 4 4 3 3 4 4 2 2 3 4 12 9 8 2 3 5 3 7 6 1 0 3 6 6 6 5
29 32 31 27 24 24 20 15 13 15 10 8 7 7 9 4 5 7 6 7 1 4 6 3 5 7 5 10 4 4 7 2 0 5 3 9 6 3 2 3 6 6 5
31 27 32 28 25 28 24 17 17 10 10 8 5 10 9 6 2 5 4 2 5 3 4 1 3 7 8 9 8 3 6 5 7 3 2 5 8 8 6 2 4 6 5
29 31 28 23 22 27 29 22 19 13 12 10 10 13 11 10 7 4 6 2 3 6 1 2 4 5 6 6 5 2 6 5 5 5 4 3 4 6 8 6 2 4 4
31 32 29 26 25 21 23 22 20 14 15 11 10 11 10 8 9 8 6 4 2 2 6 2 1 2 5 4 4 7 5 3 4 3 5 2 3 8 9 8 8 4 2
32 34 33 29 26 25 22 21 16 17 17 15 13 12 13 10 10 9 6 5 3 4 3 2 3 1 2 3 13 10 6 5 7 3 6 5 3 3 6 9 6 5 3
34 35 35 32 29 29 24 24 22 19 19 17 14 13 16 15 14 10 7 7 5 3 4 3 7 6 3 7 7 8 4 9 6 5 9 4 3 8 3 7 2 4 5
38 36 35 36 33 32 30 25 23 20 20 18 17 17 19 18 15 12 12 7 5 7 8 3 8 8 3 9 6 7 7 7 4 7 4 3 6 5 4 2 3 3 1
39 40 38 37 37 36 31 26 23 22 20 20 19 19 21 20 15 13 12 10 11 10 6 4 9 9 6 5 5 4 6 4 10 3 7 8 7 5 3 5 3 4 3
40 42 40 38 39 38 35 31 30 30 29 23 22 21 21 18 19 15 14 13 14 9 9 5 7 10 6 5 7 7 3 3 5 6 4 8 3 4 4 2 1 5 7
41 41 41 39 39 39 37 32 31 31 27 25 22 21 21 19 16 19 19 15 13 13 10 8 8 12 10 8 4 5 5 2 2 4 10 10 6 6 5 5 7 3 2
39 40 39 40 39 40 37 39 32 35 30 27 25 23 24 22 19 18 19 18 15 13 14 12 13 11 12 12 10 8 5 6 6 7 9 12 9 11 7 5 9 6 5

GFSSE_850_spd_036.txt.gz
Wind_Speed
26 26 26 25 22 20 21 20 20 20 20 20 20 19 19 19 18 17 16 15 14 14 13 13 12 11 11 10 9 10 11 11 11 10 11 12 13 13 13 13 13 14 13
30 27 27 24 23 22 21 20 20 20 19 19 19 20 20 20 18 17 16 15 14 14 14 13 12 12 12 13 15 15 16 16 16 13 12 14 13 14 13 13 12 14 14
31 29 26 25 23 22 21 19 20 18 19 18 19 19 20 19 17 17 16 15 14 14 14 14 15 14 13 16 17 18 19 17 16 16 14 14 13 11 14 14 14 14 14
33 30 27 25 24 22 20 19 19 18 18 17 18 19 19 19 17 17 15 14 13 13 12 11 12 14 13 17 18 17 16 16 14 15 14 12 12 13 13 14 14 14 14
32 29 28 25 24 22 20 19 18 17 16 17 18 19 18 18 18 17 17 16 15 15 14 13 12 15 13 16 16 17 15 15 15 14 13 11 12 13 14 14 14 14 14
32 29 27 25 23 21 19 18 17 16 16 17 17 17 17 18 19 19 19 19 18 18 16 15 15 17 15 16 14 15 15 15 15 13 12 12 11 12 12 12 12 12 12
32 28 26 24 22 21 18 17 17 16 16 16 17 17 17 19 19 20 20 19 18 16 15 16 17 18 14 14 12 12 14 14 12 11 12 11 12 11 11 12 13 13 13
31 26 25 23 21 20 18 17 17 17 16 16 16 17 17 18 18 19 18 18 17 16 15 15 17 16 13 12 12 12 12 14 10 10 11 11 12 11 13 12 14 13 13
26 24 23 23 21 19 18 17 17 17 16 17 16 18 18 18 17 17 16 16 16 16 17 16 16 16 16 13 11 11 11 10 10 11 10 9 10 11 12 12 13 13 13
24 24 23 23 22 20 18 17 17 17 16 16 16 17 18 18 17 16 14 14 14 15 16 16 14 12 13 14 11 9 9 10 9 8 7 8 8 10 11 12 12 12 12
24 26 24 23 21 20 18 17 17 17 16 16 15 15 15 17 17 15 13 12 13 14 10 9 11 9 9 9 9 8 8 9 8 8 6 7 7 8 9 10 11 11 10
26 28 25 24 22 20 19 17 17 16 14 13 13 14 11 15 15 14 13 11 12 11 13 14 9 7 8 8 5 5 4 8 6 9 6 7 7 7 8 9 10 10 9
28 28 27 25 22 21 19 18 18 17 13 14 11 14 13 13 13 13 13 10 10 7 9 8 7 7 8 9 6 6 7 7 5 8 5 6 7 7 7 8 9 10 10
27 28 28 26 24 21 20 19 17 16 14 14 13 12 7 8 11 11 10 8 8 8 7 4 6 6 9 10 11 11 7 9 10 8 6 7 6 5 5 6 8 7 7
28 27 29 26 24 23 22 18 16 14 10 10 10 10 7 11 10 11 7 9 7 8 6 2 6 9 12 14 15 15 13 10 10 6 9 6 6 5 5 5 6 6 6
30 26 29 26 24 25 23 16 16 12 9 9 8 9 7 7 8 7 7 7 6 6 7 5 7 11 8 12 14 11 11 8 9 9 12 10 6 3 4 5 6 6 6
33 28 32 27 25 26 20 22 16 9 10 11 11 10 7 4 7 8 5 4 6 9 9 8 7 10 10 13 10 8 9 9 10 10 8 9 9 7 4 4 5 5 5
36 34 32 29 27 25 23 21 19 11 12 10 10 11 6 4 7 6 5 3 5 6 5 5 8 5 9 12 9 10 5 8 7 8 8 9 10 9 7 3 2 4 3
40 38 37 34 31 28 26 26 21 19 15 13 11 12 7 4 8 10 9 5 3 4 4 6 5 5 6 10 9 10 5 5 5 4 6 7 8 8 9 5 4 3 1
43 45 35 41 35 31 30 27 26 23 22 17 11 14 11 6 10 12 10 8 6 6 8 6 4 5 8 11 13 13 7 6 5 5 6 6 8 7 9 7 5 3 1
44 42 43 45 41 36 35 34 30 28 29 25 16 16 15 10 7 14 10 8 7 8 7 7 7 10 8 14 14 11 9 6 8 5 7 6 7 4 4 4 5 3 4
49 46 45 45 45 39 32 28 35 33 29 28 21 15 16 14 12 10 13 9 9 11 8 7 11 15 15 16 10 11 12 5 7 9 9 7 6 3 4 4 3 3 3
51 49 48 48 45 39 33 27 25 33 32 31 29 23 19 16 15 12 13 13 11 10 7 8 12 13 15 13 11 11 8 4 12 9 8 6 5 2 2 5 5 7 3
54 50 50 47 44 40 35 31 28 32 34 36 31 30 25 19 17 14 11 16 15 13 10 7 12 13 15 15 11 9 11 10 12 7 8 7 5 4 3 2 0 5 7
53 55 52 48 44 42 38 34 32 31 33 31 28 24 22 23 19 16 13 17 15 14 11 12 14 17 14 14 14 12 10 8 14 5 9 12 13 9 7 7 3 2 2
54 54 54 51 47 44 41 38 35 34 31 32 29 26 25 24 21 18 15 18 16 14 15 15 14 16 17 15 14 12 14 11 11 9 6 8 12 10 11 9 9 6 5

GFSSE_850_spd_039.txt.gz
Wind_Speed
26 27 25 24 23 23 22 21 21 19 19 18 17 17 16 16 15 15 13 12 11 10 10 11 9 8 8 8 9 10 10 9 8 8 8 9 11 11 11 12 13 13 14
31 28 26 23 24 22 22 22 21 20 19 18 18 18 17 16 16 15 13 13 12 11 11 9 9 9 10 11 13 13 12 12 11 11 11 11 11 10 11 12 12 12 13
32 29 26 24 24 22 22 21 20 20 20 19 19 18 18 18 17 16 15 14 14 13 13 12 10 11 12 14 16 17 16 14 12 13 12 11 11 10 12 12 12 12 13
32 30 27 25 24 22 21 19 20 19 19 19 18 18 18 17 17 16 15 14 13 12 11 11 11 13 15 16 15 13 15 14 15 14 13 11 12 11 12 12 13 13 13
32 29 27 25 24 21 20 19 18 18 19 18 18 17 16 17 16 16 16 15 13 13 13 13 12 13 14 14 14 15 13 15 14 13 13 11 11 12 12 12 12 13 13
32 29 26 24 23 21 19 18 17 17 18 17 16 17 17 17 18 18 18 17 16 15 14 15 14 15 15 14 13 14 14 14 13 13 13 12 11 13 12 12 12 11 11
32 29 26 23 22 20 18 18 17 18 17 17 16 17 19 19 20 20 19 17 16 15 15 15 15 15 13 13 10 11 13 13 12 13 13 11 12 11 11 10 11 11 12
31 28 25 22 20 19 18 18 17 17 17 16 16 17 19 19 19 18 17 16 15 15 17 16 12 11 11 12 11 12 11 11 11 11 11 10 10 10 11 12 11 12 12
28 27 25 23 20 18 17 18 17 16 16 15 16 17 18 18 17 16 16 15 17 18 17 17 13 10 11 12 11 14 12 11 10 11 10 9 9 10 10 11 12 11 11
27 25 24 23 21 18 18 18 17 16 15 15 15 17 18 18 16 15 15 15 18 18 16 14 13 12 10 10 9 12 11 10 9 8 9 8 9 9 9 10 11 10 10
26 23 23 22 21 18 17 18 17 16 15 15 15 15 16 16 15 15 15 14 14 13 11 11 11 12 10 8 7 9 12 10 7 7 6 8 8 8 8 9 9 9 9
28 25 23 22 21 19 18 19 17 16 16 14 13 14 14 13 13 13 14 15 13 11 11 10 8 9 9 6 4 7 8 7 6 6 6 6 7 7 8 9 8 8 7
29 27 24 22 21 19 18 19 17 15 13 13 12 11 13 12 12 11 11 13 10 12 10 8 6 6 8 7 4 6 8 5 4 5 5 5 7 7 7 8 8 7 7
30 28 25 23 22 20 19 18 17 15 14 13 15 13 11 9 10 10 9 9 8 8 8 7 6 8 8 9 8 11 11 7 6 5 6 5 6 6 6 6 7 7 6
29 29 27 25 22 21 20 19 18 15 13 13 14 10 9 8 10 9 8 9 6 7 4 6 7 10 12 10 11 11 12 9 7 6 6 5 5 5 5 5 5 5 5
30 29 28 26 23 22 22 20 18 16 12 10 11 9 8 8 7 6 9 8 7 6 5 6 9 11 11 12 15 10 8 10 9 9 9 8 5 3 4 4 4 4 4
32 29 29 27 25 25 24 20 18 13 11 9 9 8 8 6 5 6 7 6 8 9 9 10 7 9 9 10 10 9 10 10 8 7 8 7 8 5 3 3 3 3 4
32 30 28 28 27 27 25 22 19 14 10 10 13 10 9 5 4 6 6 6 8 7 7 8 9 8 11 6 7 7 10 7 9 7 8 9 9 8 7 4 3 4 4
34 33 29 31 29 28 26 24 21 15 11 12 12 12 11 5 5 6 6 5 7 6 7 8 4 6 9 6 5 5 6 5 7 6 6 7 8 9 8 4 3 2 1
36 34 30 33 30 29 28 27 22 18 14 14 11 10 13 6 4 7 7 5 4 5 5 4 5 6 10 10 10 6 4 6 4 4 3 4 6 6 7 6 4 2 2
38 36 36 35 33 32 31 30 28 24 20 17 13 11 14 9 5 7 9 7 5 5 7 4 6 7 8 11 11 8 6 8 4 3 3 2 3 4 4 3 3 3 3
45 41 39 39 38 36 33 32 29 27 26 22 18 13 14 12 10 6 7 9 7 7 6 6 8 9 9 11 14 10 5 3 8 5 6 6 4 2 4 5 4 3 4
48 49 45 43 40 39 37 35 33 30 29 28 26 21 16 15 14 10 9 10 10 9 8 6 9 12 14 13 9 9 6 2 7 6 7 7 8 3 2 3 6 6 4
51 50 48 47 45 41 41 38 34 31 33 33 31 26 20 16 15 14 12 11 12 10 9 6 12 12 15 13 12 9 10 5 7 5 8 8 7 4 3 2 1 2 5
51 54 52 49 47 45 44 41 36 32 29 34 34 31 26 21 18 16 15 11 14 14 11 9 10 15 14 16 11 8 12 8 11 5 5 8 9 9 6 4 3 3 1
51 51 54 53 49 48 46 46 40 35 30 28 31 33 29 27 24 20 16 14 14 15 14 12 11 15 13 15 14 13 12 10 10 13 8 6 7 7 7 9 8 6 5

GFSSE_850_spd_042.txt.gz
Wind_Speed
24 24 23 22 22 20 21 20 18 17 16 16 15 13 12 11 10 11 12 11 9 10 10 9 8 8 7 7 7 7 7 6 6 8 9 11 10 10 11 12 12 12 13
28 24 22 21 21 19 19 19 17 16 15 15 15 14 13 12 11 11 11 10 10 10 9 8 8 8 10 9 11 10 9 9 10 10 11 11 11 10 11 11 12 13 12
29 26 23 22 20 20 19 17 17 16 15 15 15 14 13 13 12 12 11 11 11 10 10 9 9 10 12 13 13 13 12 12 11 12 11 12 11 10 11 11 12 12 12
31 27 24 22 21 21 18 18 17 17 16 16 16 15 14 13 13 13 13 12 12 9 9 10 10 11 13 14 12 13 14 13 12 13 12 10 11 11 11 11 11 11 11
31 27 25 22 20 20 20 19 17 17 17 17 16 14 13 14 13 14 13 12 11 9 10 10 12 12 12 12 12 11 12 13 12 14 13 12 10 11 11 11 11 11 11
31 27 25 23 20 20 19 18 17 18 16 16 15 15 14 14 16 15 14 14 12 11 11 11 13 12 12 11 12 12 11 11 12 13 12 12 11 11 10 11 11 11 11
31 28 25 22 20 19 18 17 18 19 16 15 16 15 16 17 17 16 16 14 13 12 13 13 13 11 11 11 12 14 13 13 14 13 11 10 10 9 10 9 10 10 11
31 28 24 21 20 18 17 17 17 18 16 16 17 18 18 18 17 16 14 13 15 15 14 11 10 10 10 11 13 13 13 13 13 12 11 10 9 8 9 9 10 11 11
28 26 24 22 20 17 17 16 16 16 16 16 17 18 17 17 16 15 15 14 16 15 14 12 11 10 11 11 11 12 12 11 11 11 10 10 10 9 10 9 10 10 10
28 24 23 22 20 18 18 16 16 15 16 16 18 17 17 16 15 14 16 17 17 15 13 13 14 11 9 12 11 11 11 10 10 9 9 11 10 8 9 9 8 8 9
27 26 24 22 19 18 19 18 17 15 15 16 17 16 15 15 15 14 15 15 14 12 12 11 12 12 11 10 11 12 12 10 8 9 8 10 9 7 8 8 8 7 7
30 27 24 22 20 18 18 18 17 16 16 15 14 14 14 12 13 13 12 11 10 10 10 9 9 9 7 7 8 9 9 9 8 7 8 8 7 7 8 7 7 6 6
31 28 25 23 21 18 19 19 17 16 16 15 14 12 12 10 10 11 10 8 9 10 7 6 7 7 6 4 5 7 7 7 8 6 7 8 7 7 8 7 5 5 5
31 28 26 23 22 19 19 18 17 15 15 13 12 13 11 10 9 11 11 8 9 7 5 4 5 7 7 8 8 7 5 6 7 6 6 7 6 6 6 6 5 4 5
32 29 27 25 23 21 19 18 17 16 13 14 14 13 10 9 9 8 7 6 8 7 3 5 8 8 8 5 9 10 8 8 8 6 5 6 5 4 4 4 4 3 3
32 30 27 26 23 21 20 19 18 16 14 15 12 9 10 7 7 5 7 5 4 5 3 5 11 11 9 13 10 8 8 8 7 8 9 7 5 4 3 3 3 3 2
33 30 28 26 24 22 21 21 19 16 14 12 11 9 8 6 6 6 7 5 5 6 7 7 8 9 9 10 9 9 9 8 6 7 8 8 6 3 2 3 2 2 2
34 32 29 27 25 24 24 22 20 16 13 10 9 9 8 6 7 7 6 7 7 8 9 6 6 7 7 5 7 10 9 8 7 8 8 8 9 7 5 2 2 2 2
36 32 31 29 27 26 26 23 20 16 12 9 12 11 9 5 6 6 5 5 7 6 8 7 5 6 7 3 5 6 6 7 8 7 7 7 8 8 6 3 2 1 0
35 33 31 30 28 28 28 24 22 19 14 12 12 11 10 6 4 5 5 4 4 6 8 5 4 5 7 5 5 4 6 6 6 4 4 5 5 6 5 5 4 2 1
37 36 34 32 30 30 33 28 26 23 18 14 12 11 11 9 5 3 4 4 3 5 6 5 3 4 7 8 5 4 4 6 3 3 2 1 2 5 3 4 3 2 2
40 38 37 34 33 33 33 30 29 25 20 15 13 10 11 10 6 3 3 4 3 2 4 3 5 7 7 9 9 6 4 4 6 4 4 4 2 2 3 5 4 3 2
43 41 40 36 36 33 32 32 30 27 24 21 19 16 11 11 9 7 5 5 6 4 6 3 5 6 7 11 11 6 4 2 2 5 5 4 4 2 1 2 5 3 3
48 43 41 39 38 36 33 33 32 30 27 25 22 20 16 13 11 10 8 6 6 6 6 4 7 8 8 10 8 6 7 2 4 3 7 5 5 2 2 1 0 2 2
48 47 44 42 40 39 37 36 34 32 29 26 25 24 22 20 15 11 10 10 6 8 7 7 5 11 12 13 11 10 10 10 8 5 4 3 3 4 4 2 3 3 1
48 49 46 45 44 41 40 38 36 36 33 28 26 29 28 25 22 17 13 12 10 10 10 9 8 9 14 14 15 13 10 9 8 10 7 7 5 5 5 6 6 5 5

GFSSE_850_spd_045.txt.gz
Wind_Speed
25 26 23 23 22 21 19 18 17 15 15 14 14 14 11 10 10 11 10 9 9 9 8 7 7 6 4 5 6 5 6 8 8 10 11 11 10 10 11 13 15 14 14
30 26 23 23 20 20 18 16 15 14 12 12 12 11 11 11 11 10 9 10 11 9 6 8 10 10 11 10 8 8 7 9 10 11 11 11 11 11 10 13 14 13 13
30 26 23 21 18 19 17 16 15 13 13 13 12 12 11 10 10 11 10 11 9 8 8 8 10 13 14 12 13 11 11 10 11 12 12 11 11 10 11 11 13 14 14
29 24 21 20 18 18 16 15 15 15 14 14 13 12 12 11 11 11 11 10 8 8 8 8 11 13 14 13 13 12 10 11 12 12 11 11 11 10 10 12 13 13 13
28 24 21 20 19 17 16 16 15 16 15 15 14 13 13 12 13 12 10 8 6 7 8 9 11 12 12 12 11 11 11 12 13 12 12 12 10 11 11 12 12 13 13
27 22 21 20 18 17 16 15 15 15 15 14 14 14 14 13 13 12 11 9 9 9 10 10 11 11 12 12 10 11 10 11 12 12 11 12 12 12 11 11 11 12 12
26 22 22 19 18 17 16 16 16 15 15 15 15 15 15 15 15 14 12 11 11 12 12 11 11 11 11 10 12 12 12 12 12 11 11 11 11 11 10 10 10 11 12
27 23 22 20 18 17 16 16 16 15 15 14 16 16 16 16 15 12 13 13 14 13 12 11 11 11 11 11 12 12 13 13 12 12 12 11 10 9 10 9 11 10 11
25 23 22 21 18 17 16 16 15 16 16 17 17 17 17 16 14 13 14 15 15 13 12 11 12 12 11 12 12 13 13 12 12 11 10 9 11 9 9 10 10 10 10
24 22 22 21 18 17 17 16 15 15 17 17 17 16 16 15 14 15 16 15 15 14 14 14 13 13 14 11 12 12 12 12 11 11 10 9 10 9 9 9 9 9 8
23 22 23 21 20 19 17 16 15 15 16 17 16 15 15 13 14 14 14 14 13 13 12 13 13 13 13 13 13 13 12 11 9 9 8 10 8 7 8 8 8 7 7
25 23 22 21 21 20 18 17 16 16 15 16 15 14 13 11 11 12 11 9 9 10 11 10 10 10 10 9 10 11 11 10 9 8 7 8 7 7 6 6 6 6 5
25 24 24 22 21 21 18 18 18 17 17 16 15 13 12 11 9 9 8 7 8 8 8 7 6 8 8 7 7 8 9 10 8 7 6 7 7 7 6 6 5 5 4
28 27 26 23 21 20 20 18 18 17 16 15 14 13 11 10 9 8 6 6 6 5 4 4 4 6 8 8 6 7 6 9 7 6 5 6 6 5 5 4 5 4 4
30 30 27 24 22 21 20 19 19 17 15 12 13 12 11 10 8 7 6 5 5 5 3 2 5 5 5 6 7 8 8 9 9 6 4 4 4 4 3 3 3 2 3
31 31 29 26 23 21 21 19 17 16 14 15 12 11 9 9 7 5 5 5 3 3 3 3 7 8 11 11 6 8 8 9 9 9 5 4 3 3 3 2 2 2 2
33 30 29 27 25 23 21 19 18 16 15 14 10 10 9 8 5 4 3 2 3 4 5 9 9 7 10 8 8 9 8 7 7 7 7 7 4 2 2 2 1 1 1
32 31 29 28 26 24 23 21 20 17 15 13 10 9 8 9 7 5 4 4 5 7 7 7 6 7 7 6 10 9 7 6 6 7 7 7 7 4 2 1 2 1 1
34 32 31 29 27 25 24 23 20 17 15 12 9 8 7 6 7 6 5 5 5 6 5 6 5 6 5 7 8 6 5 6 6 7 6 6 6 6 5 3 2 1 2
36 33 32 30 28 26 25 24 22 19 16 12 11 11 9 6 6 6 5 5 5 5 9 5 4 7 6 4 5 6 5 5 3 4 5 4 5 6 6 5 4 2 1
36 36 34 33 30 29 29 28 25 23 18 14 12 11 10 7 5 7 7 5 5 5 8 5 4 5 7 6 5 4 6 4 2 1 0 1 3 5 5 4 2 1 2
38 39 35 34 33 31 31 30 29 24 19 15 13 11 10 9 6 5 6 5 4 4 7 6 5 5 6 7 6 5 4 4 6 4 2 2 1 2 3 5 4 3 3
35 41 38 35 35 33 32 32 29 25 22 19 16 13 9 11 9 6 4 5 5 4 5 3 4 6 6 10 8 4 2 1 1 2 3 3 3 3 2 2 5 2 2
37 40 40 38 36 34 33 33 34 29 28 24 19 15 12 9 10 8 7 6 5 5 5 3 5 6 6 9 7 7 6 1 1 1 3 4 3 2 3 2 2 2 1
35 42 40 39 39 35 36 35 34 32 28 24 22 18 17 15 12 9 9 8 6 4 5 5 4 8 8 9 7 6 5 7 7 3 2 3 2 2 4 4 4 3 2
35 37 41 41 40 39 38 37 35 33 29 26 24 22 21 19 18 16 12 10 8 6 8 8 7 6 10 11 11 10 7 3 4 5 4 6 4 4 4 5 5 6 6

GFSSE_850_spd_051.txt.gz
Wind_Speed
23 21 21 17 17 16 15 15 12 10 9 12 10 8 7 8 10 9 9 10 11 10 8 6 5 4 5 5 6 7 9 10 11 12 11 13 13 16 19 19 16 13 15
26 21 19 19 16 15 14 12 12 11 11 12 9 6 7 9 8 8 9 9 9 10 9 9 9 9 9 8 7 7 8 10 11 11 12 13 13 13 14 15 11 14 15
22 21 20 18 16 15 14 12 11 10 10 9 7 7 8 8 9 8 8 9 9 9 10 12 13 13 12 11 10 10 10 11 12 13 14 14 11 12 12 12 12 15 15
23 20 18 18 16 14 12 11 10 10 9 9 9 9 8 9 9 8 7 8 8 10 12 12 14 13 13 11 10 11 12 15 14 16 9 13 9 13 12 13 15 15 14
23 20 19 19 15 14 13 12 10 10 11 10 10 9 8 9 8 7 7 7 9 11 12 12 12 12 12 12 11 14 16 16 12 14 11 15 10 13 14 14 15 15 14
23 19 20 18 17 15 14 12 11 11 11 12 11 10 10 9 9 9 8 10 10 12 12 13 13 12 11 11 12 15 19 16 15 12 10 13 11 13 12 12 11 13 13
24 18 19 17 16 15 14 13 12 12 12 12 12 12 11 12 10 10 11 12 12 13 12 13 12 12 13 12 12 16 18 18 14 12 11 12 12 12 11 12 13 13 14
21 20 18 17 15 14 14 13 12 12 13 13 13 13 13 11 11 11 13 13 13 12 12 12 12 13 13 14 15 16 20 15 11 13 13 9 12 11 13 13 13 13 13
20 19 17 15 16 14 14 13 13 14 15 15 14 14 11 11 12 14 14 12 13 13 13 12 13 12 13 15 15 17 18 19 15 11 11 9 12 11 12 12 12 12 12
21 17 16 15 13 12 12 13 13 14 15 15 14 12 11 15 16 15 13 14 15 14 14 13 13 12 14 15 17 21 21 18 10 14 9 9 11 11 10 11 11 12 10
21 19 18 16 13 15 11 13 14 15 14 14 14 16 15 9 11 11 10 14 14 14 13 13 13 13 16 21 22 19 15 8 12 11 8 11 11 10 10 10 10 9 9
22 20 19 17 15 16 12 12 11 12 11 10 11 11 10 8 11 9 11 13 13 14 12 11 9 9 14 10 16 17 14 9 9 9 8 9 10 9 8 8 8 8 8
23 21 20 18 16 18 16 12 13 12 11 8 8 6 11 7 8 10 5 6 5 9 9 7 6 10 8 16 15 10 9 8 9 9 8 9 9 9 8 7 7 7 6
23 21 20 18 17 12 13 14 13 12 11 8 8 8 10 9 6 4 8 4 1 9 4 2 5 7 6 9 13 12 8 7 8 7 7 6 7 8 6 7 7 6 6
24 23 19 19 15 19 16 12 12 11 10 10 8 8 3 7 7 7 4 4 5 5 3 3 5 6 5 5 9 9 7 8 3 4 5 5 5 5 6 5 4 5 5
24 23 21 19 17 14 15 13 12 13 10 8 8 7 7 8 6 3 3 2 5 5 7 4 5 5 5 4 5 9 9 7 9 6 5 7 6 4 3 3 3 4 3
25 23 22 20 18 16 10 14 15 12 10 10 9 8 6 4 9 7 4 3 2 1 8 6 8 5 6 6 8 5 7 8 7 7 5 5 8 9 7 2 1 2 2
25 24 22 20 19 18 13 14 10 10 12 11 8 7 8 6 5 8 4 4 5 6 6 3 8 6 3 8 9 8 7 6 4 6 4 6 6 5 8 6 2 1 1
25 25 23 21 20 19 16 14 12 12 12 9 10 7 8 4 3 5 10 7 5 5 11 8 4 9 6 5 7 9 5 4 4 5 5 3 4 4 1 5 4 3 3
26 25 24 23 21 21 17 15 13 12 11 11 9 9 6 5 5 4 3 3 9 5 4 11 5 7 9 3 7 7 6 5 3 3 4 4 4 3 1 5 4 6 8
28 26 26 25 24 22 18 18 16 13 12 11 10 7 7 6 6 6 5 5 4 4 4 5 5 6 4 4 8 5 3 3 3 2 2 3 3 3 1 2 2 5 6
31 29 29 28 26 25 20 19 17 15 12 10 9 9 8 7 6 5 5 3 6 6 7 6 7 7 5 5 5 5 4 2 4 2 1 2 3 1 0 2 1 5 1
33 32 31 31 30 28 22 20 18 16 13 12 13 8 10 9 7 6 7 5 6 9 4 6 7 5 4 4 2 4 2 4 4 1 1 2 1 1 1 2 2 3 2
35 32 32 33 32 29 29 22 22 19 18 15 13 11 11 11 9 7 6 6 7 5 5 6 6 6 4 5 3 2 4 3 2 1 2 2 2 1 3 2 3 3 4
36 34 33 34 34 30 33 26 25 22 18 15 13 13 12 10 12 10 9 7 5 6 7 8 5 10 6 6 7 5 3 2 0 3 5 4 3 2 2 1 3 3 5
37 36 35 37 37 37 35 34 29 27 22 18 17 15 13 12 12 13 10 9 8 7 7 7 7 9 10 8 5 6 6 5 5 2 1 3 3 0 1 3 4 4 5

GFSSE_850_spd_054.txt.gz
Wind_Speed
25 21 20 17 15 16 14 11 9 9 11 11 10 10 11 12 11 12 13 13 12 11 9 8 6 6 7 8 9 11 12 13 13 13 13 16 18 19 20 19 12 17 16
27 24 18 17 15 14 14 11 9 10 11 9 9 9 10 10 11 12 12 12 11 12 11 11 11 11 9 8 9 11 12 13 14 15 15 14 15 15 17 14 13 17 17
23 23 18 17 15 14 12 11 10 10 10 8 7 9 9 10 11 11 10 11 11 12 13 13 15 12 11 10 12 12 13 14 15 17 18 11 14 14 14 14 15 16 16
24 19 19 17 15 14 13 11 10 9 8 8 8 9 9 10 10 10 10 10 12 12 13 13 13 13 11 12 13 15 16 16 16 13 16 12 14 15 16 16 16 16 15
22 21 18 18 14 13 12 11 11 10 10 9 9 9 9 10 9 8 9 10 12 13 13 13 12 12 13 13 16 18 16 16 15 19 17 9 13 16 16 17 16 15 16
26 21 19 18 15 14 13 11 12 11 10 10 10 11 11 11 10 9 11 11 13 14 12 13 12 12 12 15 18 19 17 15 17 11 12 12 13 15 15 13 13 14 15
25 18 20 17 15 14 12 12 12 12 12 12 12 12 12 11 11 11 12 14 14 14 13 13 13 13 14 17 21 20 19 16 18 12 11 13 14 13 13 14 14 15 14
23 21 20 17 16 14 13 13 13 13 13 14 14 14 12 11 10 13 13 14 14 13 13 13 14 15 16 18 20 18 19 23 14 12 9 13 14 15 15 15 14 14 13
25 21 19 18 16 15 13 13 14 14 15 15 14 13 12 12 13 12 12 13 13 13 14 13 15 16 17 19 20 21 22 18 11 15 11 13 14 14 14 13 13 13 12
24 19 18 15 14 14 14 14 14 16 15 15 14 13 17 17 16 16 13 14 14 14 15 14 14 16 19 24 24 21 19 18 13 8 6 12 13 13 13 12 12 11 11
21 20 17 15 13 11 12 14 15 15 15 17 17 17 15 13 11 14 13 15 15 15 15 15 16 17 18 18 17 13 12 15 14 8 10 12 12 12 11 11 10 10 9
21 22 20 21 15 14 13 15 16 17 16 13 12 16 10 16 6 11 14 14 13 15 14 12 15 15 13 17 17 17 16 19 8 5 7 11 11 10 10 10 8 9 8
24 22 23 21 15 21 14 15 17 16 13 9 7 11 10 8 9 6 5 8 11 9 8 6 11 9 15 12 8 5 11 10 3 9 7 10 9 9 9 8 7 7 7
27 24 25 20 18 13 10 13 14 15 15 7 5 9 11 9 5 5 1 4 7 6 7 9 7 11 13 14 15 13 8 9 5 11 7 7 8 7 8 8 7 6 6
25 24 18 19 22 20 15 18 14 12 13 13 8 9 15 8 6 5 1 7 3 6 7 11 6 6 9 13 8 14 10 9 8 9 9 8 6 5 4 5 5 5 5
26 23 20 21 21 19 17 4 15 13 10 4 5 6 9 8 6 4 2 1 2 10 9 10 9 3 8 7 6 9 11 4 7 9 11 13 11 7 4 3 3 3 3
25 23 20 13 13 21 18 13 17 15 11 9 11 4 4 6 8 6 6 1 4 8 6 6 6 9 9 4 5 12 9 9 8 5 7 8 9 9 8 5 3 1 2
25 27 21 18 17 17 20 16 17 12 3 9 6 4 3 5 9 5 4 3 10 9 9 10 11 8 3 5 10 9 11 6 8 4 5 6 7 9 6 10 5 4 4
26 27 22 21 20 20 18 18 12 14 9 11 8 4 5 1 4 8 7 7 7 4 6 7 8 10 6 6 14 13 5 5 9 5 3 3 4 3 7 9 7 7 8
26 26 20 22 22 21 18 17 12 12 8 11 11 10 5 4 3 2 7 6 8 9 11 5 7 3 7 5 9 9 7 6 5 3 4 7 7 5 6 9 3 6 9
30 28 25 25 26 24 20 20 16 15 13 14 10 8 7 5 6 1 5 8 11 5 6 6 4 6 7 7 9 7 2 4 6 2 2 5 6 3 3 6 6 4 5
32 32 31 28 27 26 20 20 17 14 12 12 14 12 6 6 7 3 7 4 5 7 9 9 9 7 5 5 1 3 4 2 7 5 3 1 2 2 3 1 8 4 3
35 34 34 32 27 27 23 23 19 18 16 11 15 14 9 8 5 6 5 4 10 7 5 9 11 3 7 3 1 5 4 3 4 1 4 5 3 4 4 7 2 8 2
38 36 34 36 29 30 26 24 25 20 16 17 18 15 10 10 8 6 7 6 8 5 7 10 8 5 9 5 2 1 0 2 2 4 3 5 3 4 2 4 6 9 10
39 40 36 35 35 31 33 26 26 23 20 15 15 18 15 12 12 11 7 6 8 6 5 9 7 11 8 5 5 3 3 1 0 1 4 5 5 1 5 3 2 7 10
38 41 38 37 39 37 35 32 30 29 22 17 16 19 15 10 12 14 12 8 7 10 9 10 10 14 11 7 10 5 5 4 2 6 3 4 4 2 2 3 5 3 7

GFSSE_850_spd_057.txt.gz
Wind_Speed
27 23 21 21 18 16 15 13 12 14 14 13 13 13 14 14 14 14 14 13 12 10 10 9 10 12 13 13 12 13 14 14 14 14 17 18 18 20 19 16 18 19 19
29 25 21 18 16 14 13 12 12 13 12 11 11 12 12 14 14 15 14 13 13 14 14 14 13 11 12 14 15 15 15 16 17 16 14 16 18 17 14 15 19 20 18
29 25 21 18 15 14 11 12 12 13 11 10 11 11 12 14 13 14 13 14 15 15 15 15 14 12 13 14 15 16 17 17 18 18 14 15 16 15 15 17 18 18 17
30 23 20 17 16 13 12 12 11 11 10 10 11 11 12 13 13 12 13 15 13 15 15 14 15 14 15 16 17 18 19 18 17 16 15 13 16 16 17 17 17 17 17
26 23 19 18 16 14 13 11 11 10 11 11 11 11 11 12 12 12 13 14 14 14 14 14 15 15 16 17 20 19 17 21 20 16 11 12 17 17 17 16 17 16 16
23 21 21 18 16 14 13 12 12 12 12 12 12 13 12 13 12 12 14 15 14 15 15 14 15 16 19 21 19 18 17 15 18 12 14 14 16 16 14 14 15 16 16
23 19 20 17 16 15 13 14 14 14 13 13 14 14 13 13 13 14 15 16 16 15 15 16 17 18 21 21 19 18 20 17 12 10 12 13 15 13 15 15 15 16 15
22 20 20 18 16 15 15 14 14 14 14 15 15 14 13 13 14 14 14 15 15 15 16 18 19 21 22 22 24 21 18 15 13 12 12 14 15 14 15 15 13 14 12
22 22 21 19 17 17 15 15 14 15 16 16 15 14 15 16 14 14 15 15 15 17 17 19 21 21 21 20 19 21 17 13 13 14 11 14 14 14 13 13 13 13 13
22 23 22 20 18 17 16 15 16 17 17 17 17 19 19 18 17 16 17 16 16 18 18 19 21 22 23 19 15 14 16 12 7 6 11 13 13 12 13 12 12 11 11
21 23 20 20 19 17 17 17 17 18 18 19 22 20 19 18 17 19 17 18 18 18 18 19 23 24 23 21 14 8 19 12 3 9 9 11 12 12 11 11 10 10 10
21 20 20 19 17 16 17 18 19 21 19 18 18 17 17 16 16 16 16 18 17 19 18 17 19 18 19 17 11 12 17 7 4 7 8 9 10 10 10 9 9 8 8
24 23 20 17 19 19 16 20 22 19 17 14 10 15 14 13 9 11 11 15 11 11 15 14 9 16 15 11 9 9 15 10 11 9 7 7 9 9 8 9 8 7 7
32 32 26 21 22 15 18 20 20 17 12 12 11 11 14 13 9 6 9 11 6 10 11 12 14 14 16 15 16 18 10 9 9 10 7 7 8 7 7 7 7 6 6
34 34 29 23 23 20 17 13 16 16 14 13 9 11 13 12 11 5 5 6 8 11 10 6 11 15 13 14 9 18 10 9 11 13 10 10 8 7 5 5 5 5 5
35 34 25 22 19 21 20 19 15 16 10 14 7 6 11 12 9 6 7 4 8 10 9 7 7 9 17 13 15 11 4 9 9 11 13 12 11 8 6 4 3 3 3
35 29 26 20 27 24 17 17 14 19 22 8 7 5 7 8 10 8 7 6 11 13 14 14 7 5 12 13 13 11 7 7 8 10 7 8 9 10 9 5 4 3 3
34 31 24 19 29 23 18 19 21 22 18 12 8 4 7 7 11 10 11 12 12 12 12 11 11 8 9 10 11 10 7 5 5 6 7 7 6 8 9 10 6 6 5
32 28 23 20 28 25 20 19 22 20 16 13 7 7 6 5 8 10 12 13 11 12 11 15 12 7 8 9 10 10 7 4 5 5 4 4 10 9 11 9 8 9 9
33 28 22 21 21 24 24 20 23 16 14 15 11 7 6 6 9 10 13 12 9 10 11 13 12 6 9 10 11 7 4 4 1 2 3 2 8 6 7 10 4 4 6
35 32 28 26 23 29 24 27 23 16 14 15 14 8 6 6 5 4 10 14 12 13 10 11 11 8 9 12 11 10 5 3 1 2 5 1 3 4 6 6 6 3 3
37 35 30 31 28 27 24 27 21 18 15 12 13 11 12 6 6 9 12 11 7 10 13 12 10 8 12 8 11 4 4 3 6 4 2 4 2 2 5 10 11 10 4
39 36 33 33 31 27 25 28 22 17 17 18 15 13 14 9 4 9 9 8 13 7 12 13 14 7 9 6 3 6 4 5 5 5 4 6 3 2 3 7 8 11 14
42 38 35 35 33 29 27 31 26 24 21 18 17 14 11 12 7 7 5 9 12 9 8 12 14 7 9 7 6 5 3 6 5 6 7 4 5 5 3 5 7 7 11
43 41 37 39 37 33 29 33 30 27 21 21 16 13 14 12 13 7 5 7 11 9 10 14 12 10 11 8 8 4 7 2 0 2 6 6 7 4 2 3 3 5 7
44 43 41 38 42 38 33 33 34 31 27 21 19 18 19 15 10 10 10 5 10 11 12 13 13 12 11 8 8 8 4 1 3 5 6 10 4 2 3 2 4 6 6

GFSSE_850_spd_060.txt.gz
Wind_Speed
28 26 26 23 20 19 17 17 17 17 15 14 15 15 13 12 11 12 11 9 9 8 9 11 12 12 12 12 13 14 15 14 14 16 16 16 18 16 15 18 18 18 18
32 27 26 23 20 18 16 15 17 15 13 13 15 14 14 14 13 13 11 11 12 11 12 12 12 14 13 14 14 14 15 15 15 13 14 15 14 14 15 18 18 17 18
31 27 25 22 20 17 16 16 16 13 12 13 14 13 13 13 13 12 14 15 12 15 15 13 12 14 15 16 16 15 17 17 15 14 13 14 15 15 15 17 16 17 17
31 27 23 21 19 16 15 15 15 13 12 13 13 13 13 13 13 13 13 14 15 15 15 14 14 16 17 17 17 17 18 16 16 14 12 14 15 15 15 15 16 17 17
29 25 21 20 17 16 15 14 12 12 13 12 12 12 12 12 13 13 14 15 13 14 14 15 16 18 19 19 18 16 15 15 14 13 12 14 16 15 14 16 15 16 16
28 23 21 19 17 15 14 13 12 13 13 13 12 12 12 12 13 14 14 15 14 15 15 16 17 20 21 18 16 20 15 14 12 12 13 14 15 13 13 14 14 16 13
27 22 21 18 16 16 14 14 14 14 14 14 14 13 12 13 15 15 15 14 15 16 16 17 19 21 20 18 17 18 14 12 9 8 11 12 13 13 14 14 14 14 11
26 23 21 18 17 16 16 16 15 15 15 15 14 13 13 15 15 14 14 14 15 17 18 19 22 22 20 19 17 17 15 12 8 8 10 13 13 12 13 12 12 11 11
21 22 21 19 17 16 17 16 16 16 17 15 14 14 16 15 14 14 15 16 17 18 19 22 23 22 22 20 18 15 15 13 10 9 10 12 13 12 10 11 11 12 11
21 19 20 20 19 18 17 17 18 18 18 17 18 17 17 17 17 16 16 17 18 17 17 21 21 21 20 18 14 13 11 10 8 7 9 10 11 10 10 10 10 10 11
24 22 20 20 19 17 18 19 20 19 20 21 21 20 20 18 17 17 18 18 17 18 17 19 20 17 15 16 13 14 12 6 5 7 8 8 9 9 9 8 8 8 8
26 24 21 19 19 18 20 21 21 20 23 20 21 22 19 17 17 16 18 20 18 20 19 20 18 16 11 9 15 14 11 6 4 5 7 7 8 8 8 7 7 7 7
25 24 21 20 19 19 22 23 22 23 21 18 17 18 19 17 17 12 16 16 17 17 16 17 14 14 11 8 10 8 10 8 7 6 6 6 6 6 6 6 6 5 6
26 25 22 19 21 20 22 25 21 18 17 15 14 14 15 13 12 11 12 10 12 15 16 17 15 12 9 15 9 11 10 9 9 8 8 6 6 6 5 5 4 4 5
26 27 23 23 22 21 23 23 20 18 16 16 13 12 13 11 9 8 6 6 9 12 14 16 17 14 15 11 14 12 11 12 14 11 9 8 6 6 6 4 3 3 3
27 27 23 23 23 24 21 19 17 19 17 15 12 11 11 8 10 8 10 7 11 9 12 12 12 13 13 13 11 10 10 11 11 11 10 11 9 7 6 5 4 3 3
29 28 27 23 20 20 19 19 17 15 13 15 12 10 14 12 12 10 8 9 10 10 12 10 13 15 12 12 9 8 7 6 6 6 8 8 10 11 8 5 5 4 3
34 32 28 27 23 23 22 19 14 15 15 14 14 7 16 10 10 10 9 13 12 12 10 9 11 10 13 15 10 6 6 6 5 7 6 7 7 10 7 7 5 4 4
32 34 28 30 25 23 18 17 20 17 15 13 11 7 10 8 8 12 12 13 14 15 13 9 8 5 10 11 10 7 5 6 6 6 6 10 9 8 11 6 6 6 5
36 33 28 27 29 25 25 20 21 14 15 14 11 9 8 9 12 12 16 16 13 10 11 13 11 6 10 10 9 8 5 3 2 2 4 4 5 5 9 8 4 3 5
38 34 30 27 31 28 26 22 23 20 19 15 12 10 8 11 9 14 14 13 10 14 14 16 10 8 11 12 8 7 8 7 6 5 4 1 1 2 6 8 8 2 3
40 35 31 25 26 31 27 24 27 23 17 15 14 12 9 9 8 11 12 14 13 15 13 13 13 8 12 13 12 6 4 5 9 10 9 6 1 3 5 7 9 11 5
42 38 33 27 26 29 29 28 25 23 19 19 18 15 13 10 11 11 14 14 14 13 13 14 11 9 12 10 9 4 5 3 5 5 4 5 4 4 5 5 7 7 10
43 38 34 31 29 27 32 28 30 26 26 23 18 17 13 13 10 12 12 10 13 12 15 15 12 11 12 10 7 7 3 3 1 3 3 6 6 4 4 5 5 6 7
45 42 38 34 31 28 28 31 32 27 25 21 20 15 14 14 11 10 11 12 15 13 15 17 15 12 12 9 9 6 4 4 2 1 3 5 8 5 2 4 6 7 6
47 44 41 37 34 30 31 31 35 30 26 23 22 20 17 16 17 12 11 10 16 13 14 18 17 13 13 10 9 6 2 2 3 5 5 4 6 4 3 2 4 6 7

GFSSE_850_spd_063.txt.gz
Wind_Speed
28 26 24 21 20 20 20 18 17 15 13 12 11 10 10 9 8 8 7 6 6 7 9 9 9 10 12 13 13 14 13 13 14 14 16 16 15 15 17 16 16 19 17
31 28 24 20 20 20 19 18 16 14 13 13 12 11 9 9 9 8 8 7 7 8 9 9 10 11 12 12 12 13 14 14 12 12 14 14 15 16 16 16 16 14 18
31 29 23 20 19 17 17 18 15 13 13 13 12 11 10 10 10 10 11 10 12 13 10 11 11 11 12 13 14 15 14 12 12 12 11 14 16 15 15 15 16 14 16
31 27 24 20 17 16 17 16 13 12 13 12 12 12 11 10 10 11 11 12 12 11 11 10 13 14 14 14 15 15 14 14 12 11 12 16 14 14 14 15 16 15 15
30 26 22 19 16 16 16 15 12 12 12 12 12 11 10 10 10 11 11 11 10 11 12 12 14 16 15 14 15 15 13 14 13 12 13 14 13 14 15 14 15 14 11
29 24 21 18 16 15 14 13 12 12 11 12 10 10 10 11 11 11 12 12 11 10 12 14 16 17 15 14 12 13 14 13 13 13 12 13 12 14 13 14 14 12 11
28 22 20 17 15 13 13 14 12 12 11 12 11 10 11 11 13 12 12 12 11 11 13 15 18 16 15 13 14 14 12 12 9 10 10 12 12 13 13 13 12 11 12
25 22 19 16 14 14 13 13 13 12 12 12 11 10 12 12 13 13 13 13 12 13 15 18 17 16 17 18 15 14 12 10 10 9 9 12 11 12 11 12 10 11 11
22 21 19 17 16 14 14 14 14 14 14 12 11 12 12 12 12 13 14 15 14 15 18 19 18 16 15 15 17 16 14 12 9 9 10 12 11 10 9 9 11 10 10
21 18 18 17 16 16 15 15 16 15 14 14 15 14 12 12 13 14 14 14 15 15 19 18 17 16 16 15 13 13 13 12 8 9 9 9 8 8 9 9 9 10 9
22 19 18 16 17 16 16 17 17 15 17 18 17 16 15 14 13 15 16 14 14 15 16 16 15 12 12 10 11 11 10 11 9 8 8 7 8 8 7 7 8 7 8
24 21 19 18 17 16 18 19 18 18 19 20 19 17 16 14 14 14 15 15 15 16 14 14 13 11 9 6 10 13 13 11 8 6 6 6 6 6 5 5 6 6 6
23 22 20 18 17 18 20 21 20 21 19 19 18 18 17 15 15 15 15 14 15 15 15 13 10 8 7 10 11 12 11 9 8 7 6 6 5 5 4 4 4 4 4
24 22 21 19 18 19 20 20 21 20 18 16 16 16 15 12 13 14 11 11 12 12 12 11 10 7 4 7 8 11 10 10 8 8 7 7 5 4 4 4 3 3 3
26 24 22 21 20 22 21 21 21 19 16 14 14 13 12 10 10 11 7 9 13 13 13 13 10 10 9 13 12 12 13 14 12 10 7 7 6 6 5 4 4 4 4
25 24 23 23 23 21 23 20 17 16 15 14 12 13 9 7 5 5 6 9 12 14 14 14 13 10 8 11 11 11 10 11 11 10 10 9 8 6 5 5 4 4 4
25 24 25 25 23 24 21 19 17 16 14 13 11 12 9 7 6 6 9 9 9 13 12 12 11 11 11 10 10 9 6 8 7 8 8 10 9 7 5 4 4 4 4
27 23 24 26 23 24 21 19 17 14 11 10 10 11 10 8 8 9 9 11 10 12 9 11 11 9 8 8 7 8 7 6 6 6 7 7 8 9 6 5 5 5 4
28 26 24 27 23 22 19 18 14 13 12 13 11 9 10 9 10 8 8 12 11 10 7 9 10 9 10 6 2 4 4 4 5 5 7 6 6 9 7 5 4 4 5
30 28 26 24 22 23 22 19 15 14 13 13 11 8 9 9 9 10 8 12 11 10 8 6 7 8 8 7 5 3 2 1 1 1 1 2 3 5 8 5 4 3 5
32 34 32 28 26 25 22 23 21 15 15 14 11 9 6 6 8 10 12 13 12 10 11 9 5 5 8 7 5 3 5 8 6 5 4 3 2 3 7 9 8 3 4
34 38 35 30 29 28 24 24 20 17 16 11 11 9 6 7 6 11 13 13 13 12 12 14 8 7 8 9 7 5 2 7 9 8 8 7 4 5 3 6 8 9 5
38 42 36 32 28 29 29 26 21 19 18 15 15 11 10 9 7 8 12 13 11 14 12 13 10 7 9 11 10 5 3 3 3 3 4 3 3 3 3 3 6 7 8
37 45 38 34 28 25 30 29 25 26 23 18 14 12 10 10 10 9 12 13 12 13 13 12 12 10 12 10 11 7 4 2 3 3 3 2 3 0 2 4 5 6 6
32 46 42 37 30 26 26 29 27 26 26 20 16 15 12 12 11 12 10 10 12 13 13 15 14 10 12 11 9 4 2 1 3 3 4 4 4 0 1 5 6 7 6
38 48 45 40 33 27 24 28 28 29 26 24 19 19 17 13 13 13 11 11 14 13 12 15 15 12 11 11 9 5 3 1 2 7 6 2 4 4 1 4 7 8 7

GFSSE_850_spd_066.txt.gz
Wind_Speed
26 23 19 16 16 16 16 15 14 13 11 9 8 7 6 6 6 5 5 5 6 7 7 8 10 10 11 12 13 13 13 14 14 15 14 16 17 17 16 18 19 20 18
29 24 20 17 16 16 15 14 12 9 9 9 8 7 7 7 7 6 5 5 6 7 9 9 11 11 11 12 13 13 14 13 13 13 15 17 17 16 17 17 16 18 17
29 25 20 18 17 15 14 12 10 9 9 9 8 8 8 7 7 9 8 9 10 7 8 10 10 11 11 12 13 12 12 13 13 12 16 17 16 16 17 16 16 15 14
28 25 20 18 16 14 13 11 9 8 9 8 7 8 7 7 8 9 9 11 10 10 8 9 10 10 11 13 12 12 12 12 12 12 15 14 14 14 16 16 16 17 16
29 24 20 17 15 14 13 10 8 9 9 8 8 7 6 7 9 8 10 10 9 11 11 10 11 10 11 11 13 12 13 12 12 13 14 14 16 15 15 15 14 14 15
28 22 20 17 15 14 14 11 10 9 9 8 7 7 7 7 8 9 9 10 9 10 12 12 12 12 12 11 9 11 12 13 13 14 13 14 15 13 14 14 12 13 14
27 22 18 15 14 13 11 11 11 9 10 9 8 8 7 8 9 9 10 9 9 9 13 14 14 13 12 14 13 12 12 13 11 12 12 14 14 14 13 11 11 13 12
25 21 18 15 13 12 12 10 10 10 10 9 8 8 9 9 9 10 10 9 8 11 14 16 15 13 14 12 12 11 11 12 11 10 12 13 12 11 11 10 11 12 12
21 20 17 14 14 12 11 11 11 10 10 9 9 10 9 8 8 10 10 10 10 14 16 15 16 16 16 15 14 13 12 11 10 12 12 12 11 9 9 11 11 11 12
20 18 16 16 13 13 13 12 11 11 10 10 11 11 10 9 9 11 10 10 11 14 15 14 13 13 14 13 13 13 12 10 10 10 11 10 7 8 9 9 10 9 10
20 18 16 16 15 15 14 13 12 11 12 13 12 11 12 11 10 11 11 10 11 13 13 13 12 12 12 12 11 10 11 10 9 8 9 8 8 8 7 8 8 9 9
23 19 17 15 15 16 16 16 14 15 14 14 15 14 14 13 12 10 10 10 11 12 11 10 10 10 9 8 11 11 10 10 9 8 7 7 6 5 6 6 6 7 7
23 20 18 16 15 16 17 17 16 18 16 16 16 15 15 15 14 14 12 11 11 12 12 10 9 7 10 11 10 10 11 10 8 8 7 7 6 5 5 5 6 5 6
24 21 19 17 16 16 17 18 19 18 17 15 16 15 15 15 15 13 12 10 9 10 8 6 6 5 6 6 8 9 10 10 9 8 8 7 6 6 5 5 5 5 5
23 21 19 19 18 18 19 19 19 18 16 14 13 12 12 11 11 9 8 8 8 6 7 6 5 7 6 8 9 11 12 12 11 10 9 8 7 6 5 5 5 5 4
23 23 21 20 19 20 19 19 19 17 14 13 11 10 8 8 6 7 8 8 7 8 9 6 6 5 8 8 9 9 9 11 11 11 10 9 7 5 5 5 5 5 5
23 22 22 22 21 21 21 18 17 13 13 12 10 8 7 4 3 5 7 10 9 8 8 8 3 2 5 7 8 6 7 7 9 9 9 9 8 6 5 5 5 5 5
23 24 23 23 24 22 22 17 16 13 11 10 9 9 6 3 4 3 7 9 10 8 6 7 5 3 5 5 5 7 7 7 9 9 8 8 11 8 7 6 6 6 6
24 24 24 24 24 22 23 19 15 12 9 9 7 5 5 5 3 4 6 9 10 9 7 6 4 4 5 4 2 3 5 5 6 7 7 6 8 9 6 6 5 6 7
28 25 24 24 24 24 22 19 17 14 12 11 9 5 4 6 4 5 5 10 9 9 6 7 5 4 3 1 2 3 3 3 3 3 3 4 5 7 8 7 5 4 6
29 28 26 26 23 23 24 22 19 15 13 12 9 6 5 4 7 7 7 9 8 8 6 5 6 5 4 2 1 1 3 5 5 6 6 6 5 5 6 8 8 5 6
31 29 28 26 25 26 26 20 18 16 14 12 10 8 6 6 6 11 7 9 8 8 8 6 2 3 5 3 1 6 5 5 6 7 8 6 4 5 4 4 5 7 6
32 32 31 29 28 27 24 20 21 19 14 14 11 10 7 6 4 7 9 9 8 11 8 8 6 3 3 6 5 5 6 5 9 7 6 2 1 2 2 2 4 6 7
31 32 34 33 30 28 26 24 24 21 19 16 10 8 8 7 5 5 10 12 8 12 9 9 9 5 6 6 5 7 6 6 6 6 6 4 3 1 2 3 4 5 7
33 26 33 36 32 31 30 29 26 23 18 15 11 11 9 8 6 7 8 11 9 10 10 11 10 5 8 7 7 5 6 5 7 7 6 6 4 3 2 4 5 5 6
35 32 32 39 35 34 31 31 30 26 21 20 17 14 12 10 9 9 10 8 8 9 10 11 12 9 9 9 8 5 2 3 4 9 11 7 6 6 5 4 5 6 7

GFSSE_850_spd_069.txt.gz
Wind_Speed
24 21 19 19 18 18 16 13 12 10 10 9 7 7 6 6 5 4 4 6 8 7 7 8 10 10 12 13 12 14 14 16 16 17 18 17 18 19 19 20 19 18 19
27 22 19 17 17 17 16 13 11 10 9 8 8 8 8 8 7 7 6 6 8 9 10 9 10 11 12 12 13 14 14 16 17 16 19 18 17 17 16 18 17 18 15
26 22 19 17 16 15 14 11 10 9 9 9 10 9 8 9 10 9 11 10 9 9 9 10 10 11 11 11 12 13 14 14 15 18 19 15 16 16 17 16 15 15 15
26 21 19 16 16 14 12 10 9 9 9 8 8 8 9 10 9 9 11 10 9 10 10 10 11 11 12 11 12 12 13 14 15 15 16 14 14 16 16 16 16 16 16
25 21 19 16 14 14 11 9 8 8 9 8 8 9 9 9 10 10 10 10 10 11 11 11 11 11 12 12 13 13 13 14 15 15 15 16 14 15 16 14 15 15 14
25 21 19 15 13 12 9 8 8 8 8 9 8 9 9 9 10 10 11 10 10 12 11 11 12 12 12 10 11 13 14 14 15 15 15 14 15 14 13 13 14 14 12
25 20 17 14 13 12 10 9 8 8 8 8 8 10 10 11 11 10 10 9 10 12 12 12 13 12 12 13 13 12 12 13 13 14 14 14 14 12 13 13 13 12 14
23 19 16 14 12 11 10 10 8 9 8 9 8 10 11 11 11 11 11 8 10 13 15 14 13 14 12 13 11 11 12 13 13 13 13 13 12 12 12 13 13 12 13
22 19 15 14 11 11 10 10 10 9 9 8 10 11 11 11 12 13 12 10 14 15 15 15 16 15 14 12 11 12 12 13 12 12 11 11 11 10 12 12 11 12 12
21 18 15 14 13 11 12 11 10 10 8 10 11 12 10 12 13 13 13 13 16 15 14 13 14 15 13 14 13 12 12 13 10 11 11 9 10 10 10 11 10 10 11
20 18 15 14 13 13 12 11 11 10 10 11 11 11 12 13 13 13 13 14 15 16 15 15 15 14 14 14 13 12 12 11 9 8 8 10 10 9 9 10 10 10 9
20 18 15 13 14 14 13 12 11 12 12 12 14 13 13 14 12 12 12 13 13 13 13 13 12 12 11 12 13 12 11 10 9 8 7 8 7 7 8 8 9 9 9
21 19 17 15 15 14 14 14 13 15 15 15 15 14 15 14 13 13 14 14 14 12 12 10 10 11 11 11 11 11 11 10 9 8 7 8 7 7 5 7 6 7 7
23 21 18 17 16 16 15 15 16 17 16 16 15 16 15 15 13 13 13 13 13 11 9 9 8 8 8 9 10 10 10 10 9 8 7 8 7 6 6 6 6 6 6
23 21 19 18 17 17 17 17 17 17 16 16 15 14 13 12 11 9 9 8 7 7 7 7 10 9 7 9 10 11 11 12 11 8 7 8 7 7 7 6 6 6 6
22 21 20 19 18 19 18 19 17 17 15 13 13 11 10 9 7 7 6 7 5 6 6 7 8 10 9 8 9 10 11 11 11 10 10 9 7 7 6 6 6 6 6
22 22 21 19 19 19 19 19 17 14 13 12 9 9 8 5 4 4 5 7 6 5 5 4 5 7 7 7 6 7 8 9 9 9 10 10 8 7 5 5 6 7 7
22 23 21 21 21 21 20 19 16 13 12 10 9 7 5 2 5 6 6 7 6 6 5 2 3 5 6 6 7 7 9 10 10 10 10 11 11 8 7 7 8 8 7
21 23 22 21 22 22 21 18 16 12 11 10 8 6 6 4 4 5 5 8 8 6 5 4 4 5 5 5 6 6 7 7 7 8 8 9 9 9 7 6 6 7 7
20 23 23 22 22 23 22 19 16 14 11 10 8 5 5 5 4 5 6 8 10 8 6 6 5 6 6 6 6 5 5 5 5 6 6 7 7 8 8 7 6 5 6
23 25 24 24 24 24 25 23 19 14 11 10 8 7 5 5 5 6 6 10 10 9 7 6 6 5 5 4 3 4 3 3 4 6 6 7 7 7 6 6 6 6 6
27 26 25 24 24 25 23 21 20 15 12 10 8 7 5 4 5 8 7 9 9 8 8 7 4 5 4 4 3 7 5 4 8 5 5 4 3 3 4 3 4 5 6
31 29 26 24 23 23 23 21 19 14 13 13 11 8 6 5 4 8 10 10 7 6 7 6 3 3 4 5 0 4 5 5 7 7 6 3 2 3 2 3 4 5 6
33 31 29 25 23 22 23 24 20 18 18 15 10 8 7 6 5 6 9 9 5 10 8 7 6 3 3 4 1 5 5 5 5 4 7 5 2 1 2 3 3 4 6
34 32 31 30 28 25 24 24 21 20 19 15 11 10 8 8 7 6 7 10 9 8 9 8 8 4 6 3 2 4 6 5 8 6 6 6 7 6 5 3 4 5 6
33 32 31 31 31 29 26 24 23 22 20 16 15 12 12 9 8 8 8 9 9 9 10 9 10 9 6 5 5 3 2 3 5 7 6 7 8 7 7 5 5 5 5

GFSSE_850_spd_072.txt.gz
Wind_Speed
17 17 18 17 17 17 14 13 12 11 10 9 8 7 7 7 6 7 7 8 9 9 10 11 12 12 13 14 14 15 17 17 18 18 19 20 20 21 21 22 19 17 18
21 18 19 17 17 16 14 12 11 10 10 11 10 10 10 9 9 8 8 8 10 10 10 11 11 12 13 14 14 16 17 18 19 22 20 18 17 18 18 18 16 16 16
21 18 19 17 16 14 13 11 10 11 12 11 9 10 11 11 11 12 11 10 9 10 10 11 12 13 14 14 15 15 14 17 21 25 20 14 16 16 15 15 14 15 16
21 18 16 18 16 14 12 11 11 12 11 10 9 9 10 10 11 11 11 11 11 11 12 12 13 13 14 14 13 12 14 17 22 19 15 14 14 16 16 16 16 17 15
21 17 17 16 15 13 11 11 11 10 10 10 10 10 10 11 12 11 12 11 12 11 11 12 13 13 14 16 13 13 16 17 19 17 17 14 13 14 14 16 15 14 15
20 17 18 15 14 12 10 9 11 10 10 10 10 10 10 11 11 11 11 12 13 12 12 12 13 14 12 14 14 15 17 21 16 13 14 13 14 13 13 14 13 14 15
19 16 15 13 12 11 10 9 9 9 10 11 11 11 11 12 12 11 11 12 11 12 12 13 13 13 13 14 14 15 15 20 14 14 13 12 14 13 13 13 13 14 15
18 16 13 13 11 9 9 9 8 9 10 10 11 12 12 12 13 13 12 13 14 15 14 14 15 14 15 13 13 14 15 19 13 13 15 11 13 13 14 14 13 13 13
17 15 13 10 10 9 9 9 9 9 9 11 12 12 13 13 14 13 14 16 17 17 17 17 16 15 13 13 14 13 15 21 13 13 11 11 12 13 11 12 13 12 12
16 13 14 12 9 8 8 10 10 10 11 11 12 13 14 15 15 18 16 17 17 18 18 19 16 15 16 15 14 15 19 19 12 13 8 11 11 11 11 11 12 11 10
16 14 12 11 9 12 10 10 10 9 12 12 10 16 16 12 12 14 16 18 19 18 19 17 16 16 15 16 15 16 18 10 10 10 7 11 10 10 10 10 10 10 11
16 14 12 12 11 10 8 12 9 10 9 10 10 12 12 12 14 12 16 17 17 17 16 15 14 17 12 12 11 14 9 11 10 9 7 9 8 9 8 10 9 10 9
17 15 13 12 12 11 11 10 10 9 10 10 12 12 13 11 12 11 12 10 11 16 10 10 11 10 11 10 10 9 10 10 10 8 7 9 8 6 7 7 7 7 7
17 15 14 12 13 11 10 9 11 11 11 10 11 13 13 11 12 12 11 10 10 9 9 10 8 9 9 10 9 9 10 9 9 7 6 10 6 7 7 6 7 7 7
17 17 14 13 13 12 11 11 11 11 11 11 11 12 11 10 11 10 10 8 8 8 8 10 8 9 10 10 10 10 9 9 9 8 4 7 7 6 6 6 6 7 7
17 16 15 14 13 12 10 13 12 12 12 11 9 8 10 8 9 7 8 7 7 8 8 9 10 9 9 8 10 9 9 8 9 9 6 6 7 6 6 6 6 6 5
17 16 16 15 14 13 12 12 11 10 9 9 8 9 9 6 6 6 6 7 6 7 7 7 8 9 7 7 8 7 7 8 6 7 7 5 6 8 7 7 7 6 6
17 17 16 15 14 14 13 12 10 9 9 7 7 6 6 3 5 7 7 8 5 7 6 6 7 7 7 6 6 7 8 8 7 7 6 6 5 3 7 7 7 8 8
18 18 17 16 16 15 14 12 10 10 9 7 6 5 5 4 5 8 8 7 8 6 6 6 7 7 7 7 7 6 6 5 6 4 4 5 4 4 3 5 6 7 7
17 17 17 16 16 17 15 14 11 9 8 7 5 5 6 4 5 6 9 9 8 6 7 7 8 7 6 6 5 4 4 3 3 2 2 3 3 4 4 3 4 4 7
17 18 19 18 18 19 17 15 13 9 8 7 6 5 5 6 5 7 7 9 9 7 7 6 7 7 4 4 3 2 2 2 1 1 1 1 0 2 1 2 4 2 4
18 19 19 19 19 21 17 15 12 11 8 7 6 6 5 6 7 7 9 9 10 7 7 8 6 6 4 4 4 3 3 4 4 2 1 1 1 2 2 2 1 2 3
20 20 20 20 20 22 17 17 13 11 9 9 7 6 6 7 6 9 10 9 11 10 7 7 5 6 4 2 4 4 1 6 3 4 4 3 3 3 3 3 2 2 6
22 20 19 20 19 20 21 16 14 11 8 8 7 8 6 7 5 9 12 11 9 8 9 7 5 4 6 5 2 3 4 3 3 8 5 3 4 4 2 3 2 2 4
24 21 20 20 20 19 19 17 15 14 10 9 8 10 8 7 7 7 11 12 8 8 9 9 8 5 6 5 2 2 3 4 7 1 8 6 6 5 4 4 3 3 3
26 24 21 22 24 22 20 20 19 14 13 11 11 9 8 5 8 9 9 12 11 10 10 9 8 6 6 6 3 1 1 2 6 5 6 5 6 4 4 3 3 2 3

GFSSE_850_spd_075.txt.gz
Wind_Speed
17 18 18 18 17 15 12 11 10 9 8 7 7 7 7 7 7 9 10 10 11 12 12 13 14 14 14 16 17 18 18 20 20 20 21 22 20 20 22 21 19 17 19
20 19 19 18 16 13 11 10 9 9 10 9 9 9 9 9 9 9 10 11 13 12 12 13 13 14 15 16 17 18 20 23 25 24 20 18 18 18 19 14 16 17 18
21 20 20 18 16 13 12 11 12 11 10 10 9 11 11 12 13 11 10 11 12 12 13 13 14 15 16 16 16 18 23 22 19 21 16 16 16 15 14 16 17 17 17
21 20 18 18 16 13 11 13 13 11 10 9 9 11 11 12 12 13 12 12 13 13 14 14 14 16 16 15 15 18 19 22 20 12 15 13 14 18 17 16 18 17 16
20 18 16 16 14 13 11 12 11 9 9 9 10 10 11 12 12 13 13 12 13 14 13 14 15 16 15 15 16 19 23 24 22 16 15 14 12 15 15 19 15 14 15
20 17 18 15 13 12 10 10 10 10 9 10 9 10 11 11 12 12 13 14 14 13 14 14 14 16 16 16 17 21 26 20 16 16 15 12 13 15 15 13 14 16 16
21 15 16 14 12 10 10 10 10 10 10 11 10 11 12 12 12 12 13 14 15 14 14 13 12 13 14 15 16 19 26 16 13 15 14 12 15 14 14 15 15 15 14
17 17 13 13 11 10 9 9 9 10 10 10 11 12 12 13 12 12 15 14 16 16 15 16 16 15 13 13 15 20 23 17 14 14 12 13 16 15 15 13 13 13 14
21 15 13 10 11 10 9 9 10 9 10 11 12 13 14 14 13 16 16 18 17 18 18 17 16 14 13 14 17 20 22 14 11 18 12 12 14 13 13 14 13 12 13
19 14 13 10 8 9 8 10 10 9 11 13 13 17 19 20 20 18 17 19 20 21 19 18 18 16 15 17 23 22 22 18 10 11 11 13 12 12 12 13 11 11 10
14 14 12 12 9 14 9 10 11 13 13 14 18 16 12 15 13 13 15 17 18 19 19 19 19 19 19 19 20 15 14 9 11 11 8 11 10 10 11 11 11 11 10
15 13 13 11 11 11 10 13 7 8 12 10 8 16 10 16 15 14 17 19 19 18 18 20 18 15 11 12 13 14 11 9 9 8 8 9 9 9 9 9 10 9 10
16 14 12 12 13 13 11 10 8 9 8 8 11 9 13 10 14 12 15 14 13 15 8 12 14 10 9 8 8 9 9 9 9 7 8 8 7 7 7 8 8 7 8
16 14 12 11 11 12 10 10 10 11 9 11 10 13 13 10 10 10 11 11 10 9 5 18 10 11 10 10 9 9 9 8 8 6 6 6 7 7 7 7 7 7 7
16 15 12 12 11 15 11 10 12 11 15 9 11 9 9 10 11 10 8 9 8 9 8 8 7 12 10 11 9 9 8 9 8 6 7 7 7 7 7 7 6 6 6
17 16 14 11 10 15 9 8 12 9 9 12 10 11 9 9 8 8 8 9 9 7 9 8 13 9 10 8 9 8 8 7 7 7 4 9 9 8 7 7 6 6 6
17 17 14 13 11 11 9 12 10 10 9 9 8 8 7 8 8 9 7 7 6 8 9 8 10 8 7 8 7 6 7 8 6 7 4 5 8 10 9 7 6 7 6
17 17 16 14 13 12 11 12 10 9 9 7 8 7 5 4 6 7 7 7 6 5 6 4 8 6 8 6 8 8 7 6 6 7 4 4 3 4 9 9 9 8 8
18 18 17 15 14 14 12 10 7 10 6 8 9 8 6 3 6 8 7 4 7 7 5 5 7 8 7 8 8 7 6 4 3 5 3 3 5 4 1 5 11 11 9
18 17 17 16 15 14 12 11 9 7 6 6 6 6 4 5 5 9 6 9 10 6 7 7 7 5 5 5 4 5 4 3 3 2 2 4 2 3 2 3 6 9 9
18 18 18 17 17 15 12 12 10 9 8 6 6 4 5 2 3 13 7 12 7 7 8 7 7 5 4 1 0 3 2 3 2 3 3 4 3 3 2 1 6 1 5
19 19 19 19 18 17 13 13 10 10 6 10 6 4 4 4 5 6 9 8 8 5 5 5 7 5 5 1 4 3 8 7 6 5 3 4 4 3 2 3 1 2 5
19 20 20 20 18 18 14 13 10 10 5 4 5 4 5 7 6 6 10 7 11 10 6 6 5 2 4 1 4 7 6 2 7 4 5 4 5 4 3 3 4 1 2
19 20 20 20 19 19 17 15 13 11 11 7 6 9 4 6 6 8 9 7 13 6 13 8 5 3 5 5 3 4 6 5 6 9 5 3 5 5 5 4 1 1 1
22 21 20 19 19 18 19 16 13 14 11 9 9 12 10 8 7 8 10 9 10 8 7 8 5 6 4 4 2 4 4 2 2 6 11 6 6 4 3 4 3 2 2
25 23 21 20 19 18 17 21 16 12 10 7 12 8 7 6 6 8 9 12 10 5 7 8 7 7 2 5 2 3 1 2 4 1 5 5 7 4 3 3 3 2 1

GFSSE_850_spd_078.txt.gz
Wind_Speed
15 18 18 17 16 15 14 12 11 9 8 8 8 8 8 9 10 11 11 12 13 14 16 16 17 18 19 20 22 23 24 24 22 22 22 20 22 23 22 21 17 20 18
20 20 19 17 14 12 12 11 10 10 10 10 11 11 10 11 11 11 12 13 13 14 15 16 17 18 19 20 24 24 26 28 27 19 19 19 21 19 14 14 19 18 17
21 21 19 16 13 13 12 11 11 10 11 12 11 12 13 13 12 11 12 13 13 14 15 17 17 18 18 20 23 22 22 23 24 24 18 17 17 16 17 18 18 17 18
22 20 20 18 15 13 12 12 11 11 11 11 11 11 12 13 12 11 12 13 14 15 16 17 16 17 18 20 23 24 22 19 14 13 12 13 18 18 19 18 18 17 18
24 20 20 17 15 14 14 12 11 10 11 12 11 12 13 13 12 12 14 14 15 15 16 16 17 16 18 23 26 25 21 22 14 19 15 9 13 17 18 15 15 15 17
23 18 20 17 15 13 13 11 10 10 10 10 11 12 13 13 13 14 15 14 15 15 16 16 17 16 20 24 26 21 21 18 14 10 9 10 16 15 15 14 15 17 16
22 17 18 16 14 12 12 11 11 11 10 10 12 12 12 12 13 14 15 15 14 15 15 14 14 17 18 22 20 18 24 17 16 11 12 15 15 15 15 16 15 15 15
19 19 17 15 13 12 11 10 10 10 10 12 12 12 13 13 14 15 15 15 16 15 15 15 16 15 17 21 22 17 22 15 13 8 14 16 16 15 14 14 14 14 15
21 16 15 14 12 11 11 10 10 10 12 14 15 15 14 16 16 16 17 17 17 17 17 16 15 16 17 20 20 18 17 12 14 14 13 15 14 13 13 13 13 13 14
20 19 16 9 11 11 12 11 11 13 14 17 19 24 24 20 19 17 18 19 20 19 18 17 17 18 23 24 23 20 18 13 13 8 12 14 13 12 12 11 11 11 12
19 22 17 17 11 10 12 14 16 16 19 16 14 16 20 16 15 16 18 20 20 20 21 22 22 23 23 22 19 14 8 15 8 9 9 11 11 11 11 11 11 10 10
20 17 19 13 14 11 14 17 14 18 16 9 5 18 23 13 12 17 19 21 21 22 19 17 15 17 18 17 16 16 16 18 4 6 7 10 9 9 9 8 9 9 9
18 20 21 14 13 16 8 10 14 11 15 9 11 13 17 12 16 18 20 20 14 14 12 12 9 9 13 8 10 9 12 7 5 8 7 8 7 7 7 7 7 7 7
19 16 14 19 13 15 8 8 11 14 7 9 15 16 10 6 12 12 14 9 12 6 7 16 10 10 14 14 9 6 8 5 7 12 9 8 7 7 6 6 6 6 7
22 22 18 10 14 14 9 14 11 11 9 14 11 11 11 9 9 11 12 13 8 5 11 9 12 11 14 10 9 7 10 10 5 10 14 11 8 7 7 7 7 6 6
18 19 16 13 17 12 10 14 7 16 12 11 10 10 12 7 8 8 7 9 8 10 10 9 13 12 10 7 6 10 7 7 8 3 10 12 13 12 9 8 7 6 6
19 17 12 9 20 14 12 11 18 12 13 11 10 2 13 13 8 9 8 6 9 5 8 3 9 9 14 10 7 10 7 8 5 4 6 8 10 12 13 10 8 8 8
19 13 14 16 13 8 17 14 11 9 13 9 9 7 3 11 8 17 5 10 8 7 9 12 8 14 5 12 10 7 3 5 10 7 2 6 7 9 10 11 11 10 10
20 16 18 18 17 13 14 11 10 11 11 10 10 11 6 5 15 9 4 10 10 5 7 8 10 8 6 5 6 6 5 1 5 4 5 2 4 4 9 9 13 14 11
19 19 18 14 18 14 13 12 7 8 7 11 5 5 7 5 11 10 13 11 15 5 2 6 4 5 3 5 7 1 4 3 1 2 3 6 7 4 2 2 9 11 13
21 20 20 16 18 17 14 14 11 11 7 7 4 4 6 5 8 11 6 14 7 10 6 10 7 6 4 0 4 6 3 6 7 4 2 9 7 7 5 8 6 5 6
24 23 22 17 19 18 14 16 12 10 8 7 8 8 5 4 9 11 13 10 2 10 8 10 6 3 4 2 5 5 6 6 5 6 4 4 2 0 2 3 3 3 4
23 25 25 22 21 22 14 14 8 17 9 16 11 9 8 6 12 9 12 10 8 7 5 8 9 5 5 1 7 7 4 3 6 5 9 5 9 6 3 2 2 8 7
27 24 24 25 21 25 20 16 14 10 10 4 4 14 11 9 9 8 13 10 12 11 12 10 5 8 6 1 3 6 5 5 5 9 7 2 8 4 3 1 7 7 11
27 25 26 26 23 22 25 18 18 12 13 11 11 14 8 10 8 11 9 10 12 7 13 11 7 7 6 1 5 2 3 1 2 2 10 4 5 3 7 5 1 5 9
29 27 26 25 26 23 26 22 19 14 10 14 11 12 8 5 9 9 10 10 10 13 8 14 10 11 8 2 4 5 2 3 4 13 9 8 9 5 3 1 5 1 3

GFSSE_850_spd_081.txt.gz
Wind_Speed
18 17 18 17 18 16 12 11 10 10 10 10 11 12 13 14 15 15 15 16 17 18 18 20 21 23 24 25 27 28 25 23 23 23 24 25 24 22 20 18 18 19 18
23 20 19 17 16 13 12 11 11 11 12 12 13 13 13 14 14 15 16 16 17 17 19 20 22 23 25 28 30 31 29 26 21 20 22 21 20 17 16 18 19 19 18
24 21 19 15 14 13 12 12 12 12 12 13 13 14 14 14 14 14 16 16 16 18 18 19 21 23 25 26 26 26 27 29 24 20 16 20 20 17 17 18 19 18 19
25 21 18 16 14 13 12 12 12 12 13 12 12 13 14 14 14 15 16 17 17 17 18 19 20 25 26 25 24 22 19 22 14 16 16 19 20 18 18 17 18 17 17
24 22 19 16 14 14 13 12 12 12 12 12 13 13 14 14 15 16 16 17 17 18 17 19 21 24 25 23 24 21 17 21 19 13 14 16 19 17 16 14 15 16 16
23 22 19 16 15 14 13 12 12 12 12 12 12 14 14 15 16 16 16 16 17 19 18 18 22 25 25 24 22 21 18 18 12 9 13 16 17 15 15 16 15 16 15
23 21 19 16 14 14 13 12 12 12 12 13 13 13 14 14 15 16 16 16 17 18 17 19 23 25 23 22 21 21 16 12 13 11 14 16 17 16 15 15 15 15 15
21 21 19 16 14 14 13 12 12 13 14 14 13 12 14 15 15 17 16 17 16 15 15 18 20 21 19 21 20 19 15 11 13 15 16 16 15 14 14 15 15 15 14
21 20 17 15 13 13 12 12 13 15 16 16 15 14 15 16 16 18 18 18 18 18 17 18 20 22 19 20 20 18 14 12 14 12 14 14 15 14 13 13 13 13 13
15 17 17 14 13 13 13 14 17 16 19 21 22 21 18 18 18 19 20 20 20 20 20 22 23 21 19 18 17 15 13 13 14 10 12 14 13 12 12 11 10 11 12
18 19 17 18 16 14 14 19 20 19 18 14 19 22 19 17 20 21 22 23 23 23 24 25 25 24 20 15 13 12 9 11 9 8 8 12 11 11 11 11 11 10 10
22 19 13 12 16 20 20 21 20 18 14 14 16 18 19 15 19 21 23 24 24 24 23 24 21 20 17 14 10 8 10 7 12 7 7 9 9 10 9 9 9 9 9
25 26 19 17 18 18 16 20 20 16 14 15 18 19 15 15 19 21 21 17 17 17 15 18 19 15 8 13 13 10 5 6 15 9 8 8 8 9 8 8 8 9 8
32 22 14 16 17 13 9 9 16 16 14 11 16 15 14 14 17 16 12 9 15 12 15 15 20 13 9 12 11 12 7 7 14 16 12 12 10 9 9 8 8 8 8
29 19 19 18 18 12 12 12 12 12 13 18 12 12 12 13 9 11 11 6 8 12 15 18 11 11 12 10 11 17 9 9 9 14 18 16 13 11 9 8 8 7 7
24 20 20 21 17 16 15 17 17 14 18 13 14 16 16 12 7 12 11 10 6 11 14 15 15 10 8 7 9 11 8 5 8 9 11 14 15 13 10 10 9 8 7
24 20 19 22 21 16 16 13 17 15 14 11 12 16 17 14 9 11 11 10 10 10 14 13 12 12 9 12 11 8 8 4 0 7 9 9 11 14 13 13 12 10 11
22 18 15 16 22 16 15 19 15 12 13 7 10 8 9 13 13 11 8 9 9 9 7 10 15 13 9 10 9 7 8 10 5 4 7 8 8 12 14 17 14 13 12
18 12 9 16 20 14 19 16 10 9 15 13 9 9 8 12 16 11 13 10 8 9 12 9 11 8 7 9 7 5 3 3 5 4 4 6 8 9 12 13 15 14 14
22 18 14 14 11 16 21 14 11 11 10 9 10 9 9 11 13 12 9 12 10 11 11 9 8 7 6 6 5 5 6 4 4 2 2 6 7 10 12 7 10 12 14
23 22 16 20 17 14 19 17 14 12 7 11 8 5 7 8 15 11 13 11 10 9 7 10 10 4 2 5 3 4 5 4 2 3 7 5 4 7 9 6 5 7 9
26 20 25 21 20 15 17 15 11 10 9 9 7 6 7 8 15 12 10 9 2 14 13 12 10 7 7 5 4 2 2 5 6 2 5 4 3 2 5 7 9 8 12
27 22 31 24 22 17 21 16 12 13 12 11 10 7 8 5 15 12 12 9 10 12 12 11 8 5 9 6 6 4 4 5 8 6 6 5 7 3 1 5 11 11 11
28 23 25 29 23 18 24 15 11 15 9 6 8 10 9 5 12 11 14 9 10 8 9 11 7 6 7 3 2 6 6 7 5 7 8 6 8 6 4 3 3 7 9
30 25 21 27 25 22 24 18 14 11 11 9 10 12 10 10 8 5 13 8 10 10 10 11 7 10 6 2 4 1 3 6 5 2 8 9 8 5 3 1 1 3 7
31 26 26 27 27 24 27 23 19 19 18 13 12 12 7 7 9 9 10 11 12 11 16 12 8 10 7 3 3 5 3 6 6 11 8 10 8 8 5 3 0 2 5

GFSSE_850_spd_084.txt.gz
Wind_Speed
18 16 15 18 16 14 13 12 12 13 13 13 13 14 15 15 16 16 18 19 18 18 18 18 21 22 24 25 25 24 22 21 23 23 24 22 20 18 18 19 18 18 17
21 18 19 18 15 13 12 13 13 14 14 14 15 16 16 15 16 17 17 18 18 19 20 20 23 25 25 24 25 24 23 21 19 19 19 19 19 18 19 19 18 17 16
23 21 19 16 14 13 13 14 14 14 14 15 15 15 16 16 17 17 18 18 19 20 20 22 24 26 24 25 26 27 26 22 18 16 18 18 18 17 19 18 18 18 19
24 21 17 15 14 13 13 13 13 13 14 14 15 15 16 16 17 18 17 18 18 20 21 23 23 22 22 21 19 20 18 17 18 16 17 18 18 17 17 17 15 18 17
23 18 17 15 14 14 13 12 13 13 13 14 15 15 15 16 16 18 18 19 20 19 20 24 22 22 20 19 17 14 16 16 16 14 16 17 17 15 15 15 15 15 16
22 19 16 14 14 13 13 12 12 13 14 14 15 16 15 17 17 17 18 19 19 20 20 21 21 20 19 18 20 16 14 11 12 13 13 15 16 16 15 15 15 14 14
24 19 16 15 13 13 13 13 13 14 14 14 15 15 15 16 17 17 18 18 20 21 21 21 22 18 19 17 17 16 13 11 9 11 14 16 15 15 15 14 14 14 14
23 19 16 15 13 13 13 14 14 14 13 13 13 15 15 17 17 16 17 18 18 20 21 23 21 18 19 15 16 14 11 11 12 13 14 15 14 14 14 14 13 14 13
20 18 16 15 14 13 14 15 15 15 13 14 14 15 16 17 17 18 17 17 19 19 20 19 20 18 17 15 16 18 16 13 11 11 14 13 13 12 13 12 12 11 12
19 15 15 15 14 15 16 17 16 17 17 17 18 17 17 18 19 19 19 19 19 20 21 21 20 19 17 12 14 16 15 12 11 10 12 12 11 11 10 10 10 10 10
19 16 16 17 16 15 18 19 20 20 19 20 21 20 19 19 21 20 20 20 21 23 23 23 21 17 16 12 10 9 13 12 9 9 8 10 9 9 10 9 9 9 8
24 22 18 21 20 19 19 20 20 17 15 16 20 21 21 21 21 20 22 23 24 26 25 22 18 14 10 10 8 6 11 11 9 9 8 7 8 8 8 8 8 7 8
23 21 22 26 23 22 20 17 19 21 19 19 19 20 21 22 22 20 19 18 19 22 20 16 11 9 6 3 3 3 11 15 12 11 9 9 8 8 7 7 7 7 7
21 23 25 23 20 20 19 18 17 18 16 15 16 18 21 22 20 16 13 12 12 15 18 15 13 12 10 6 4 6 11 13 16 14 12 10 9 8 7 7 7 7 8
24 22 23 21 17 16 16 14 14 14 15 13 10 13 16 14 10 9 12 11 15 14 16 14 14 10 10 8 13 11 9 11 12 14 16 15 11 8 7 7 8 7 8
25 22 22 19 14 13 16 14 14 13 11 11 7 11 13 13 9 11 12 10 13 12 11 11 11 11 10 6 8 10 7 8 9 10 11 13 14 10 8 9 10 9 9
24 25 23 19 15 15 14 17 16 17 16 10 7 7 10 12 12 7 11 11 11 12 10 10 9 10 11 8 6 6 5 2 4 7 9 11 13 13 12 12 12 12 11
27 27 24 20 16 15 13 16 16 16 13 13 12 7 9 9 11 10 8 9 9 10 9 7 9 9 9 12 9 7 3 3 3 7 9 10 13 14 15 13 14 13 13
26 26 20 21 22 16 18 16 17 12 12 10 12 10 11 11 9 9 9 8 6 7 9 10 10 7 9 7 4 2 5 4 1 6 7 11 10 10 12 13 13 14 14
25 18 14 18 20 13 18 17 14 10 12 10 10 9 10 13 15 8 12 11 7 8 9 8 6 5 4 4 2 3 4 5 5 1 6 9 9 10 8 9 12 12 12
24 19 17 18 19 18 20 16 12 12 11 10 9 8 9 15 13 8 10 12 10 11 8 7 6 5 5 2 1 1 3 5 8 9 3 4 6 7 8 5 5 8 10
25 21 21 18 16 15 19 14 12 10 6 9 8 9 9 11 16 13 10 9 7 8 9 9 6 3 6 3 2 1 2 3 2 1 5 3 5 3 7 9 10 9 9
27 23 23 21 17 13 17 17 14 11 10 10 10 10 10 8 15 13 14 11 10 12 11 10 7 5 6 3 2 2 0 2 5 5 2 5 3 2 3 6 9 9 10
26 23 24 21 20 16 15 19 11 12 10 11 7 7 9 8 15 12 14 14 11 13 12 9 7 7 6 2 1 2 4 5 1 4 5 4 7 5 1 2 1 4 8
26 24 24 25 23 19 17 22 13 14 11 8 10 13 9 9 14 10 14 11 12 9 10 12 9 6 5 2 1 0 4 7 3 3 6 8 8 8 3 1 3 0 4
29 27 23 22 21 20 21 23 16 15 13 11 9 13 10 10 11 10 10 12 10 13 12 12 11 9 5 4 2 5 5 6 7 6 6 8 6 7 4 1 1 2 3

GFSSE_850_spd_087.txt.gz
Wind_Speed
15 14 17 17 16 15 13 12 12 12 12 12 13 13 13 13 14 16 16 16 16 16 16 17 19 20 20 19 19 19 18 18 19 20 18 16 16 16 17 17 16 16 17
18 16 18 16 14 12 12 12 13 11 12 14 15 14 14 15 15 15 15 15 16 16 18 19 20 22 23 20 20 19 18 16 15 17 18 16 16 18 15 16 16 16 17
18 18 17 14 13 13 12 14 12 12 13 13 14 14 15 15 16 15 16 16 17 17 20 22 22 21 21 21 21 20 15 13 13 15 16 16 17 16 16 16 18 17 16
19 18 15 13 13 12 12 12 13 13 12 13 13 14 14 15 16 15 17 17 17 18 20 20 21 21 21 19 18 18 16 14 14 13 15 16 16 14 15 16 17 16 17
20 16 15 13 12 12 11 12 12 12 13 13 14 14 13 15 15 16 17 17 16 17 19 18 19 17 15 13 13 15 15 13 13 12 14 13 14 12 14 14 16 16 15
19 16 15 13 13 11 12 12 12 13 14 13 13 14 16 15 16 16 17 17 16 17 18 19 17 16 15 15 14 13 11 11 10 10 11 14 15 12 12 13 14 13 13
19 16 14 13 12 11 11 12 13 13 13 14 14 15 16 15 16 16 17 17 16 16 17 18 14 14 16 15 14 12 9 10 9 11 12 13 14 10 13 13 12 13 12
18 16 14 13 11 11 11 12 13 13 13 13 14 14 16 17 15 16 18 17 16 16 18 16 14 15 16 15 13 11 11 11 9 10 12 12 12 12 13 12 12 12 12
16 14 14 13 12 11 11 12 11 11 11 13 14 15 16 16 16 16 16 15 16 16 18 14 14 16 15 17 16 13 11 10 8 8 10 12 10 11 11 11 11 11 11
16 13 13 13 12 12 14 13 11 11 12 14 15 16 15 16 16 15 15 15 15 17 17 15 13 14 13 12 13 13 11 8 8 8 8 10 8 9 9 9 9 9 9
15 13 13 14 13 14 15 16 18 16 17 17 17 17 17 18 15 17 16 17 16 17 19 16 14 12 12 11 11 10 11 8 8 8 7 8 8 8 8 8 8 8 7
16 16 15 14 15 16 16 17 15 18 17 18 19 19 18 18 18 18 18 19 18 18 17 13 12 9 8 8 10 11 12 9 7 8 8 8 6 7 7 7 7 7 7
21 20 18 17 17 18 18 15 17 17 17 18 18 19 18 19 20 21 20 20 19 18 15 11 8 5 3 5 6 11 14 11 8 9 9 8 7 7 7 6 7 7 7
20 22 21 19 19 18 17 18 19 19 17 16 17 18 18 20 19 17 16 17 15 14 12 9 6 4 2 2 5 9 13 15 14 13 10 9 8 8 6 7 7 7 7
23 25 22 20 19 17 16 17 16 16 15 16 17 17 17 14 12 12 12 14 14 12 10 10 10 9 8 10 10 10 12 12 12 13 14 11 8 7 7 7 7 7 8
23 24 22 19 16 15 14 14 14 13 11 10 9 11 10 7 7 8 9 9 13 13 9 8 8 7 7 7 8 6 10 10 9 11 13 12 10 9 9 9 9 9 10
22 22 22 18 15 13 11 10 11 12 11 7 6 11 9 8 8 6 8 8 10 8 7 5 5 4 5 7 7 6 4 6 7 9 9 11 13 13 12 11 11 12 12
23 22 22 17 16 13 13 13 11 12 7 6 7 6 9 6 7 8 8 9 8 6 6 4 4 5 5 5 6 5 5 4 5 6 8 10 11 13 13 12 12 12 13
24 22 21 19 17 16 13 12 12 10 7 7 6 4 6 8 5 7 6 6 7 5 4 4 4 4 6 4 1 2 3 4 5 6 6 7 8 9 11 11 12 12 12
25 22 20 20 19 16 13 11 12 10 11 8 8 6 8 9 9 7 7 8 7 5 4 6 4 3 2 1 3 4 4 5 5 4 5 6 8 7 8 9 9 10 10
27 24 23 23 20 16 16 16 14 9 10 7 7 8 7 8 9 6 8 6 3 6 6 4 4 4 1 1 4 3 4 4 5 5 2 3 6 7 5 4 6 9 10
28 24 23 20 18 15 14 17 13 9 10 10 8 8 9 10 12 7 6 10 8 7 6 5 4 0 1 2 4 3 2 2 1 1 1 3 4 5 6 7 7 8 9
30 27 24 21 17 10 16 15 13 12 9 12 8 8 8 9 12 8 7 8 7 10 9 8 3 1 2 2 5 4 3 2 2 2 2 0 3 3 6 6 7 7 9
30 25 24 22 19 13 15 16 13 12 10 8 8 8 8 8 11 11 11 9 7 6 9 9 3 4 4 5 3 2 2 0 2 1 2 2 3 1 2 3 3 5 8
30 27 23 24 21 16 14 16 15 12 10 7 10 9 10 9 11 13 11 13 10 9 10 9 8 5 2 3 2 1 1 3 1 3 4 3 2 2 2 2 2 3 6
33 29 24 24 23 20 18 19 20 12 13 9 7 10 10 10 12 9 9 14 11 11 8 10 8 6 4 2 3 3 3 3 5 2 5 5 4 4 2 0 0 2 4

GFSSE_850_spd_090.txt.gz
Wind_Speed
13 13 14 15 13 11 9 9 8 8 9 9 10 10 11 12 13 14 15 15 16 13 15 15 16 17 18 18 18 17 16 19 18 17 16 17 17 16 15 16 17 17 16
16 17 13 11 10 8 8 9 8 7 9 10 10 10 11 11 12 13 14 15 16 14 16 17 20 19 19 18 17 17 17 16 16 16 15 18 17 15 15 16 17 17 16
18 17 14 10 9 9 9 9 8 9 11 11 11 11 12 12 12 13 14 15 15 17 16 17 19 18 19 18 15 14 13 14 15 15 15 16 16 16 17 16 15 16 17
18 17 13 11 10 9 9 8 10 10 9 10 11 12 13 13 13 13 14 14 15 17 18 18 18 20 20 17 17 16 15 15 14 14 16 15 15 14 16 16 15 15 16
18 15 13 11 9 9 9 8 9 9 10 10 11 12 13 14 14 14 14 15 16 16 17 17 16 14 14 15 16 16 14 13 13 13 12 13 14 13 13 15 15 15 16
17 15 12 11 10 9 9 8 8 10 11 11 11 13 13 14 15 14 14 15 15 15 16 15 14 13 15 14 12 12 12 11 11 11 13 13 14 12 12 11 12 13 13
17 15 13 11 10 10 9 9 10 10 11 11 13 13 14 14 14 15 14 13 14 14 15 14 14 14 16 15 14 11 11 11 10 11 12 12 12 11 12 12 11 11 12
15 14 13 11 10 10 9 10 11 11 12 12 14 14 14 14 14 14 14 13 13 14 14 14 14 15 14 15 14 13 12 11 10 10 11 11 11 11 12 12 12 11 11
14 13 13 11 12 9 9 10 10 9 11 12 13 14 13 13 15 14 13 12 14 15 14 14 14 15 15 17 15 14 12 11 9 9 10 10 11 10 10 11 11 10 10
13 12 11 10 10 10 11 10 9 10 13 13 14 14 13 14 13 13 12 11 14 13 12 12 12 13 14 15 15 15 11 10 9 8 9 9 7 8 9 9 9 9 9
14 12 11 10 10 12 13 13 13 14 16 15 14 13 15 14 13 14 13 12 14 13 12 12 12 11 12 13 14 14 11 10 8 8 8 8 7 7 8 8 9 9 8
14 13 11 11 13 15 17 16 17 16 16 17 16 17 15 15 14 15 14 15 15 14 12 11 11 10 10 12 13 15 12 10 9 8 8 8 7 7 8 8 8 8 8
14 14 12 14 15 16 13 14 17 16 17 18 18 17 16 17 17 17 17 16 14 13 11 9 8 9 6 10 13 15 15 13 10 8 8 8 7 7 7 7 7 8 8
17 15 15 17 18 16 15 15 17 16 17 16 17 19 19 20 19 18 16 15 13 10 7 7 6 9 5 8 11 13 15 16 15 12 9 8 7 7 7 7 7 8 9
19 18 18 19 17 16 17 17 17 16 15 16 17 19 17 15 13 12 11 10 9 7 7 7 7 9 10 9 11 11 12 12 12 13 12 9 8 8 8 8 8 10 10
22 21 21 20 17 15 15 14 15 15 15 13 15 15 11 9 9 9 10 10 9 7 7 5 6 6 8 7 7 7 9 10 11 11 13 12 11 10 10 11 11 11 13
23 20 20 19 18 15 14 12 12 13 11 9 9 8 7 9 10 9 9 10 11 6 5 5 4 5 6 7 8 8 7 9 10 11 11 13 14 12 13 12 13 12 14
21 21 20 18 16 14 12 10 11 11 7 7 9 6 7 8 7 8 9 8 8 5 4 4 5 6 6 8 9 9 9 9 9 9 9 9 11 12 13 13 13 13 13
20 20 19 17 16 13 12 11 12 10 7 6 5 5 5 6 6 7 6 5 6 5 3 4 3 4 3 5 6 8 7 7 8 9 9 9 9 10 11 12 11 12 12
21 20 19 17 17 15 15 13 11 10 6 5 4 3 5 6 4 5 6 6 6 5 5 5 4 3 2 3 5 5 7 7 5 5 6 7 8 8 9 8 8 10 11
23 21 21 19 19 18 16 14 14 10 8 6 5 5 4 6 6 5 7 7 3 5 6 4 2 3 2 5 5 3 5 6 5 4 5 6 6 7 6 6 8 10 12
25 23 21 20 19 15 12 11 11 9 9 8 6 6 7 7 8 5 7 6 4 7 3 2 3 2 4 6 8 7 5 3 4 4 4 5 6 7 8 8 8 9 11
28 25 22 20 18 16 13 15 14 11 10 9 9 7 8 8 9 7 6 8 5 7 5 4 3 1 4 8 8 5 4 4 6 3 1 2 6 10 9 8 7 8 8
31 26 23 22 19 17 15 16 13 11 9 7 7 6 7 7 9 11 10 7 4 8 7 7 3 1 3 7 5 5 5 5 4 4 2 1 8 6 6 4 3 6 7
33 30 25 23 21 18 15 17 13 10 9 7 7 7 7 8 8 12 9 9 7 5 5 6 5 2 1 4 6 3 3 5 7 6 5 1 3 4 3 2 2 4 7
36 29 28 26 23 20 17 15 16 13 10 9 4 8 8 8 7 12 9 12 7 5 6 7 6 4 2 1 4 6 3 7 10 7 4 5 4 2 0 1 1 3 5

GFSSE_850_spd_093.txt.gz
Wind_Speed
16 15 15 13 11 9 8 8 9 8 9 10 11 11 11 11 12 12 12 12 13 14 15 16 19 20 20 19 18 20 19 18 16 17 17 17 17 16 16 17 18 16 16
17 17 15 10 8 7 6 6 6 6 8 9 10 11 12 12 12 12 13 13 14 17 20 20 20 19 18 19 18 16 15 16 15 17 17 16 17 17 16 17 17 17 16
19 16 14 10 9 9 9 8 7 9 9 10 9 11 11 12 11 12 14 14 15 17 19 18 19 19 17 15 16 14 14 13 14 16 16 15 16 17 16 17 17 18 16
17 14 11 10 10 10 9 10 10 9 9 10 11 12 12 12 12 13 15 15 17 17 18 18 19 18 18 17 16 16 15 14 15 16 14 14 13 16 16 16 16 17 17
17 13 11 9 8 9 10 10 9 9 10 10 12 13 13 13 13 14 15 16 17 17 17 16 15 16 14 16 15 14 14 14 14 13 14 15 13 13 16 16 16 15 15
16 13 10 9 8 9 8 7 9 9 10 11 12 13 13 13 13 14 14 15 15 16 16 14 14 14 13 12 13 13 13 14 13 14 14 15 13 12 11 13 12 13 13
16 12 10 9 8 8 8 9 10 10 11 12 13 14 14 14 14 13 14 15 16 15 16 16 15 15 15 14 13 13 13 14 13 13 14 14 14 12 12 11 11 12 13
14 13 11 10 8 8 9 9 10 12 12 13 14 14 14 14 14 14 14 14 15 15 17 17 16 16 16 15 15 14 14 14 13 13 14 15 13 13 12 12 12 11 12
14 13 11 10 9 8 9 9 10 11 12 13 14 14 13 15 14 14 13 14 15 16 17 16 17 17 17 16 15 14 13 13 13 12 12 11 10 10 11 12 11 10 10
13 13 11 11 9 10 11 9 9 12 13 14 15 13 15 13 13 13 13 14 15 15 14 14 16 16 17 16 15 14 13 13 12 11 11 9 8 9 11 10 10 10 10
13 12 10 11 11 12 11 11 11 13 14 14 14 14 14 13 13 12 12 13 14 14 13 14 15 16 16 17 17 15 12 11 10 9 8 10 9 9 9 10 10 10 10
14 13 11 12 12 13 13 14 16 15 15 13 15 14 14 13 13 12 13 14 14 15 14 13 12 12 12 13 16 15 13 12 11 9 8 9 9 9 9 9 9 10 10
14 13 12 15 16 14 14 16 17 16 16 16 16 15 15 15 15 15 16 16 13 13 12 10 10 10 11 12 15 15 15 14 11 10 8 8 8 8 9 9 10 10 11
14 14 15 16 16 14 15 16 17 18 18 17 17 18 17 18 18 17 16 15 12 10 9 10 10 11 10 11 13 13 14 15 14 12 9 8 8 8 8 9 10 11 11
16 15 17 18 15 15 17 17 17 17 17 18 20 19 18 16 14 14 13 11 9 9 10 10 10 9 8 11 11 10 12 13 13 13 11 9 9 9 10 11 11 12 13
17 18 20 18 17 17 18 17 17 17 17 18 18 17 13 12 9 9 8 9 8 8 8 7 8 9 9 7 7 8 11 12 13 13 13 13 12 13 13 13 14 14 14
19 20 20 18 16 15 16 15 17 16 14 15 12 8 9 10 9 9 7 8 8 7 6 6 8 7 8 10 10 10 10 11 12 13 13 13 14 14 14 14 14 14 14
21 21 20 19 17 15 12 13 13 13 11 10 10 8 9 8 8 8 8 9 6 6 5 6 7 8 9 10 10 10 9 10 10 10 11 12 13 13 13 14 13 13 13
21 20 19 18 16 14 12 12 12 10 10 10 8 7 6 7 8 8 8 8 6 5 4 6 6 7 7 7 8 8 8 8 8 9 10 10 11 11 12 11 10 11 12
19 19 18 17 15 14 14 13 14 11 9 9 7 7 6 7 6 4 5 7 6 5 7 6 5 4 4 6 6 7 7 6 5 5 7 9 9 9 9 8 9 10 11
19 20 20 18 16 15 17 16 14 11 8 8 6 5 4 6 6 5 5 7 4 5 7 4 4 3 4 7 6 5 7 7 6 6 6 7 7 7 7 9 10 11 12
22 20 20 19 17 16 16 13 13 11 9 7 5 5 4 4 6 6 8 6 5 8 5 4 4 3 5 8 8 6 5 5 5 5 4 5 5 6 8 8 8 9 10
24 22 20 19 18 17 15 14 14 11 9 9 7 5 5 5 8 5 6 7 6 5 4 3 3 3 5 8 8 6 3 4 5 4 2 3 6 7 8 6 6 6 7
27 23 21 19 18 17 15 15 14 11 9 8 8 5 5 6 7 9 6 8 5 6 5 5 2 2 4 7 5 7 7 8 4 3 4 2 6 5 4 2 3 5 7
28 26 23 21 19 18 17 15 14 10 9 7 8 8 6 6 5 10 10 9 6 5 6 7 4 1 3 5 7 6 7 8 10 5 2 3 4 3 2 0 2 3 6
30 28 24 22 21 19 18 16 15 11 9 9 7 9 7 6 7 10 11 11 9 6 6 6 6 4 2 2 5 7 6 7 9 7 3 3 2 1 1 2 2 3 5

GFSSE_850_spd_096.txt.gz
Wind_Speed
10 10 12 11 9 8 9 8 7 8 9 9 10 12 13 14 15 14 16 15 15 15 16 19 20 20 19 19 19 19 18 18 19 18 18 17 17 18 18 21 19 15 15
14 12 12 8 6 5 6 6 6 7 8 8 9 11 11 12 14 15 16 17 19 20 19 19 17 18 19 17 17 17 16 17 19 20 19 18 17 18 18 17 17 16 15
15 12 10 7 5 7 8 8 10 9 8 9 10 10 10 12 14 15 17 17 18 17 17 18 17 16 16 15 15 16 15 17 19 24 18 15 16 15 18 18 18 17 16
15 13 9 9 8 8 8 10 11 10 10 10 11 11 11 13 14 16 16 17 17 16 18 18 18 18 16 16 16 16 17 17 19 18 15 13 14 16 16 17 19 18 17
13 11 10 10 10 9 9 9 9 10 11 11 12 11 12 13 14 15 16 17 18 17 15 15 15 15 16 15 16 16 16 16 23 14 15 14 11 15 18 18 17 16 16
12 10 10 10 10 10 9 9 10 11 12 12 12 12 13 14 14 15 16 16 16 15 15 15 15 13 13 15 15 15 15 20 14 15 14 13 12 12 14 14 16 14 15
12 8 8 9 9 9 9 10 11 12 13 13 13 13 14 14 15 15 15 16 15 17 16 16 16 15 15 14 15 15 15 19 14 14 14 13 14 13 13 15 15 13 13
12 10 8 10 9 9 10 11 12 13 14 14 15 14 14 14 15 15 16 16 17 18 18 18 17 16 15 15 15 15 14 17 14 14 13 12 15 13 13 14 13 12 11
12 10 10 7 9 10 11 12 12 14 15 15 15 15 15 15 15 14 15 16 18 19 18 18 18 18 16 15 15 15 14 18 12 11 11 10 12 13 13 13 11 10 10
11 10 10 9 10 9 8 10 12 14 15 15 14 15 14 15 14 14 16 15 16 16 15 17 18 18 18 17 15 14 16 17 10 11 9 10 10 11 12 11 11 11 11
12 10 9 9 9 11 11 11 12 14 14 14 13 15 15 12 12 13 15 14 14 14 15 17 18 16 17 18 16 16 16 9 9 10 7 11 11 11 11 11 11 11 11
12 11 9 11 11 10 10 11 12 12 10 11 12 12 12 12 14 12 15 14 15 15 14 14 14 14 13 11 12 14 7 9 8 8 8 9 10 10 10 11 11 11 11
13 11 11 12 11 13 12 12 11 10 10 11 12 11 12 12 12 11 12 11 11 13 8 8 7 7 8 9 10 9 10 9 8 8 8 9 9 9 10 10 11 11 11
12 12 12 12 12 12 12 12 13 12 11 10 11 13 13 12 12 12 10 10 9 7 8 9 7 9 8 9 8 10 9 9 9 8 7 9 9 10 10 11 12 12 13
12 13 13 13 11 12 14 13 13 12 11 12 12 13 12 11 12 10 10 8 7 7 8 8 8 8 9 8 8 9 9 9 10 8 6 10 11 12 12 13 14 14 14
13 14 14 13 12 13 13 14 12 12 13 13 12 12 12 8 9 7 7 7 6 6 6 7 7 8 8 6 7 7 9 9 9 10 8 11 13 14 14 15 15 14 14
14 15 15 14 14 14 14 13 12 11 12 12 10 10 10 8 8 7 5 6 6 6 7 7 8 9 8 7 7 7 7 7 6 7 8 7 10 14 14 14 14 14 14
15 16 15 14 14 14 12 14 11 11 10 9 6 6 10 8 8 7 6 6 4 5 6 6 7 8 8 7 6 6 5 6 6 6 6 7 7 6 12 12 12 13 14
16 16 15 14 14 13 13 11 9 9 9 9 7 6 7 7 8 7 6 5 4 4 5 6 6 6 6 5 4 4 4 5 5 4 5 6 5 6 6 9 11 13 13
15 15 15 13 13 13 11 11 9 7 8 8 7 7 7 6 8 6 4 6 6 4 5 5 6 4 4 3 4 4 4 3 4 4 4 5 4 5 5 8 7 7 12
15 15 15 14 13 11 9 11 10 9 8 7 7 9 7 7 6 7 5 5 4 5 6 4 4 4 4 3 3 4 4 5 5 4 4 4 3 4 5 6 8 7 6
16 16 16 15 14 12 10 12 9 9 8 8 7 7 6 7 7 5 9 5 6 5 4 4 5 4 4 5 3 3 5 6 4 3 3 4 4 5 4 5 5 7 7
18 17 16 16 15 13 12 12 13 10 9 8 6 6 6 6 8 8 10 8 7 8 3 4 3 4 3 4 6 3 3 4 3 2 3 3 5 5 4 3 3 4 7
19 18 17 16 15 15 15 10 11 11 7 8 6 7 6 8 9 9 8 10 9 7 6 4 2 4 5 3 3 5 7 5 1 6 3 2 4 3 2 2 2 4 6
20 18 17 16 16 15 16 12 10 8 9 6 8 8 7 7 8 9 10 10 8 6 8 6 4 4 2 4 3 3 4 4 5 1 4 4 3 2 1 1 0 2 4
20 18 17 17 18 17 15 14 12 8 7 8 9 6 5 5 6 9 10 11 9 8 6 5 6 4 4 3 3 4 3 3 4 3 1 2 2 2 1 0 1 2 3

GFSSE_850_spd_099.txt.gz
Wind_Speed
10 10 12 12 11 10 8 8 9 10 9 9 11 13 15 16 16 17 18 17 18 19 21 20 18 17 17 18 18 19 19 20 21 21 18 19 19 19 22 19 17 15 17
13 11 11 10 8 7 6 7 8 8 9 9 11 14 15 16 17 19 19 20 20 20 18 17 18 16 16 17 18 19 20 21 22 23 23 18 19 18 17 17 16 17 17
14 10 9 9 8 8 7 8 9 9 8 10 11 13 14 16 17 19 19 19 19 19 18 16 14 13 14 16 16 19 22 23 22 23 19 17 18 19 19 18 18 17 17
14 12 8 9 10 9 10 10 10 11 10 11 11 13 14 16 16 18 19 18 18 18 18 18 15 15 16 17 16 19 22 21 25 13 21 17 17 18 20 19 20 19 18
15 10 8 10 10 10 11 10 11 11 12 12 12 13 15 16 15 18 19 18 17 16 15 15 15 15 15 16 17 21 23 24 22 16 13 18 16 18 18 18 17 17 16
15 12 10 10 10 11 10 11 11 12 13 13 13 14 15 15 15 16 18 16 15 15 15 14 12 14 14 16 18 20 23 25 18 16 15 12 15 15 16 16 15 14 14
17 10 11 11 11 10 11 12 12 13 13 14 14 14 15 16 16 16 16 16 16 16 15 15 15 14 15 15 17 21 25 20 16 17 16 14 15 14 16 15 13 12 12
15 11 10 11 10 11 12 12 13 13 14 14 15 15 14 15 17 17 16 16 18 17 17 17 16 16 16 16 17 19 25 20 14 15 12 14 14 14 13 12 11 10 11
11 10 12 10 11 11 12 13 14 15 15 15 15 15 14 15 15 16 16 19 18 18 18 18 17 16 16 16 18 23 23 19 12 16 13 10 12 12 12 11 11 10 10
14 11 12 11 12 11 10 12 14 15 15 15 15 15 16 16 16 15 14 16 17 17 17 18 17 18 17 17 18 22 21 17 11 10 9 11 11 12 12 12 11 11 11
11 12 14 11 11 9 10 13 14 15 15 14 16 15 15 12 13 12 11 14 15 16 16 17 16 18 20 21 20 19 17 11 9 8 7 10 10 11 11 11 11 11 11
12 12 11 11 12 14 10 15 12 15 11 11 11 11 16 13 13 11 13 13 14 14 15 17 17 17 12 9 14 16 10 9 8 6 7 8 10 10 10 11 12 12 12
12 11 11 12 14 12 11 14 9 11 11 12 13 15 14 11 12 11 13 13 10 8 9 11 8 11 10 10 9 8 10 8 8 5 8 9 10 10 10 11 12 13 13
12 13 11 13 12 12 13 11 12 11 11 10 9 12 12 11 11 9 9 8 6 8 11 10 8 7 8 9 9 9 9 8 8 5 8 9 9 10 11 13 14 14 14
13 14 13 10 16 13 12 12 12 13 11 11 11 10 10 10 11 10 7 7 8 8 8 7 7 6 10 8 8 8 8 9 9 6 9 10 10 12 13 14 14 14 14
14 14 13 12 13 14 13 13 11 11 12 12 11 11 8 9 10 9 11 7 5 7 6 5 5 4 8 7 7 7 8 8 9 8 6 12 12 13 14 14 14 14 14
14 15 14 12 13 14 15 15 11 13 12 13 9 9 7 6 5 8 8 7 6 7 7 5 8 7 7 6 7 6 7 7 6 8 6 5 12 13 12 13 13 14 14
15 15 15 13 13 13 13 14 11 11 11 9 7 5 6 7 7 6 5 6 6 6 6 4 7 6 6 7 6 6 5 5 5 7 5 5 3 4 10 12 13 14 14
15 16 15 13 14 12 13 11 13 10 9 9 7 6 6 5 5 8 6 4 6 5 4 6 4 5 4 5 6 5 5 3 4 4 4 5 8 5 2 11 15 14 14
15 15 15 14 14 13 11 10 7 6 9 7 6 9 7 5 6 9 4 5 8 6 4 4 7 2 4 1 5 4 4 4 4 3 3 5 3 5 3 3 6 8 16
16 15 14 15 15 13 13 10 8 10 8 6 7 6 7 5 5 9 5 4 4 3 8 4 1 5 3 0 2 4 3 5 4 4 4 4 3 4 4 8 6 4 10
17 16 15 12 12 10 9 11 10 10 6 8 7 6 6 6 5 4 6 3 3 3 4 1 2 2 4 1 4 3 6 6 5 4 4 4 4 4 3 4 4 5 6
17 17 16 14 11 11 10 9 9 7 8 7 7 6 6 6 5 3 10 1 8 8 5 4 2 1 3 2 2 6 3 6 6 3 4 4 6 4 3 2 3 3 5
17 15 15 15 13 11 11 11 9 8 6 7 7 9 6 7 7 5 5 5 7 5 3 2 2 4 4 3 2 2 4 2 6 4 4 3 5 4 3 1 1 2 5
18 16 15 14 14 12 12 9 6 7 6 6 6 8 9 7 8 9 7 7 7 6 7 2 6 1 1 3 2 3 1 1 4 6 8 5 4 4 3 1 2 1 1
20 19 17 16 15 14 12 11 7 5 4 9 6 4 7 7 7 10 9 8 7 5 5 4 6 3 0 2 2 2 3 3 3 1 2 3 3 5 7 6 4 3 2

GFSSE_850_spd_102.txt.gz
Wind_Speed
12 16 15 15 14 12 9 10 10 13 13 14 14 15 16 17 18 19 20 21 22 21 20 20 20 20 20 20 20 21 23 24 22 20 18 20 20 20 21 19 14 17 16
16 15 14 13 11 11 10 8 9 11 11 13 13 15 17 18 19 19 19 20 19 19 20 19 19 18 19 20 21 22 23 24 25 23 19 20 19 19 17 15 17 18 18
17 14 12 11 10 10 9 10 10 10 11 13 14 16 17 20 21 20 19 18 19 18 16 16 16 16 18 20 22 21 21 21 18 20 16 19 21 19 18 18 18 18 18
16 14 12 13 11 11 13 12 12 12 13 14 14 16 17 19 20 19 19 18 19 19 19 18 18 17 19 20 21 21 22 21 22 22 16 16 21 20 20 19 19 18 17
18 10 13 13 12 13 14 13 13 14 14 14 15 16 17 19 20 19 19 17 17 16 17 18 17 17 19 21 22 25 26 26 21 15 19 17 19 18 19 17 16 16 16
16 12 13 14 13 12 12 13 13 14 15 15 16 16 17 17 19 18 16 16 17 16 16 15 15 16 19 22 24 27 25 20 15 11 8 15 18 17 16 14 14 14 14
15 12 14 14 13 13 13 13 14 15 15 16 16 16 16 17 17 17 17 17 17 17 17 16 15 16 19 20 25 25 20 14 11 11 13 16 16 15 16 12 12 11 11
20 12 14 14 14 14 14 14 14 15 15 16 17 17 17 16 17 17 18 18 18 17 17 17 17 17 19 22 22 20 20 19 13 12 13 15 14 12 11 10 11 11 10
17 15 15 14 14 14 14 15 15 16 16 16 17 17 17 16 17 19 20 19 18 18 18 18 17 18 20 24 22 20 20 16 15 13 10 13 12 12 11 11 10 10 10
14 21 13 14 16 12 15 16 15 16 17 17 17 16 16 17 16 17 17 17 18 18 18 20 22 22 21 23 20 18 18 18 7 5 9 11 11 12 11 11 11 11 10
16 21 17 13 16 6 16 16 16 16 16 17 18 18 17 15 12 14 14 16 17 18 19 21 20 22 21 20 17 18 20 18 3 6 9 10 11 12 11 11 10 11 11
21 22 19 14 13 17 14 19 20 18 15 9 13 15 15 12 8 9 12 15 17 16 16 18 19 15 16 14 17 14 14 10 4 7 9 10 11 11 11 11 12 13 13
25 19 15 17 16 11 17 15 18 15 10 11 12 11 14 13 11 11 12 12 13 11 7 17 16 13 11 9 11 13 10 8 5 9 9 10 10 11 12 13 14 14 14
14 14 17 13 15 8 15 10 16 18 10 13 11 13 10 10 5 2 10 1 5 5 17 15 9 19 18 13 14 11 10 9 5 10 9 10 11 12 13 14 14 13 13
16 14 12 15 19 11 9 14 14 14 12 14 10 8 8 14 9 6 4 8 16 14 11 8 6 7 13 11 11 9 11 11 3 12 11 12 13 13 14 14 14 14 15
15 12 11 19 18 13 17 14 15 13 13 12 11 9 9 10 9 7 8 3 10 8 8 8 17 13 13 11 8 11 7 8 8 6 16 14 14 13 13 14 14 15 16
16 15 15 13 18 11 18 15 10 10 15 10 12 8 5 4 8 14 9 12 8 9 11 14 11 11 10 7 13 10 8 8 12 1 7 9 15 14 13 14 15 16 16
18 14 14 14 11 19 19 11 11 11 5 7 4 7 9 11 6 6 4 8 3 2 4 7 3 8 6 8 9 8 5 5 12 11 4 3 4 11 13 15 16 16 15
17 17 18 16 15 17 10 12 8 13 11 9 4 2 5 7 13 11 5 8 8 4 10 6 6 7 4 8 7 8 6 3 7 3 10 5 4 2 7 12 16 18 19
18 17 20 16 13 12 15 14 10 10 13 9 8 9 4 6 5 7 4 9 12 6 6 9 6 5 7 4 4 6 5 4 7 1 8 6 9 8 3 6 4 9 13
19 17 15 17 17 16 11 11 10 10 9 8 7 7 6 7 9 9 6 6 9 10 7 12 8 8 5 1 3 6 4 6 8 2 4 7 3 8 2 9 6 5 6
21 18 21 17 16 15 16 10 9 12 10 10 7 6 12 6 6 8 4 5 4 6 6 10 6 7 2 2 6 7 7 9 6 7 5 7 5 3 3 4 4 5 1
23 21 17 17 14 16 14 14 11 17 8 13 6 6 6 9 8 8 8 9 3 5 3 4 3 7 5 2 4 4 2 3 10 6 8 7 8 7 5 2 5 9 7
25 19 18 14 13 15 10 10 11 10 10 6 8 7 11 9 7 6 8 9 3 8 8 4 3 5 3 2 0 5 5 1 3 7 4 6 6 7 6 8 9 2 6
27 24 22 19 14 14 13 15 9 8 2 3 8 6 10 12 9 9 8 9 10 8 8 11 7 5 2 0 4 2 5 6 5 2 11 8 6 9 3 4 6 5 3
29 26 20 19 18 16 13 11 11 12 8 4 5 8 8 8 7 8 9 7 5 6 6 4 6 8 5 2 2 5 8 5 8 4 3 3 7 9 7 5 4 3 4

GFSSE_850_spd_105.txt.gz
Wind_Speed
18 18 16 15 15 14 12 12 13 13 14 14 15 17 19 20 23 23 24 23 22 21 22 21 20 22 22 24 25 25 23 22 19 19 20 20 19 18 17 15 16 17 17
21 18 16 14 12 11 11 12 12 13 13 14 15 16 19 19 22 23 22 21 20 20 20 20 21 22 24 24 25 24 24 25 22 17 18 19 18 17 16 16 18 18 18
20 18 16 14 12 10 10 10 11 12 13 14 16 18 21 20 21 20 21 20 18 17 17 17 19 22 24 23 22 21 20 21 19 16 18 19 18 16 17 17 18 17 17
17 15 14 13 13 14 12 12 12 13 14 14 17 18 19 19 20 20 20 19 18 17 18 19 19 22 22 23 21 22 18 18 19 14 18 20 20 19 18 18 17 17 17
18 15 15 15 15 16 14 14 14 14 14 15 17 18 18 18 19 18 18 18 18 17 17 18 20 22 23 24 22 20 20 18 14 15 18 19 18 18 15 16 15 15 15
13 15 16 16 15 15 15 15 15 15 16 16 17 18 18 18 17 16 16 16 16 15 14 18 19 23 27 23 20 17 19 13 9 10 14 17 16 15 13 14 13 13 12
17 16 16 15 15 16 16 16 16 16 17 16 17 17 17 17 16 16 16 17 17 15 15 17 19 23 26 21 22 21 15 9 12 13 14 15 16 15 11 12 12 12 11
17 17 16 17 16 16 17 17 17 17 17 17 17 17 17 17 17 18 17 15 16 15 16 18 19 22 24 20 18 19 15 14 13 13 13 13 13 11 10 12 11 10 9
19 18 16 16 16 17 17 18 18 18 17 17 17 17 17 17 18 18 17 17 17 17 19 20 20 21 21 18 17 16 14 10 13 12 11 12 11 11 11 11 10 10 9
18 18 17 16 16 16 18 18 18 18 18 17 15 15 17 19 18 17 18 19 20 21 23 23 25 25 22 19 17 14 12 9 11 7 9 11 12 12 11 11 11 10 10
16 15 17 14 16 15 18 19 19 19 18 19 19 16 17 18 17 19 20 22 22 21 21 22 22 19 18 18 15 10 9 6 9 6 9 11 12 12 11 11 11 11 11
21 20 17 19 18 18 19 19 21 20 17 14 17 17 14 14 15 15 18 14 13 15 11 12 18 15 19 19 18 12 8 8 8 8 9 11 12 12 12 13 13 13 12
22 17 17 16 18 18 17 19 17 15 14 15 18 16 14 13 8 12 12 11 10 12 11 12 13 14 9 14 13 14 8 5 12 8 10 11 13 13 14 14 13 12 11
24 23 20 14 14 15 18 18 13 14 13 16 16 17 16 14 13 11 3 7 23 14 13 9 10 15 14 14 11 7 9 7 12 8 10 13 13 14 14 13 12 12 12
26 21 19 15 15 11 15 13 12 13 13 17 13 15 15 11 9 12 15 13 10 12 12 12 13 15 12 12 10 13 8 4 11 11 13 14 13 13 13 14 14 15 15
17 13 18 20 15 10 12 11 12 11 15 10 11 12 17 12 9 8 6 11 9 9 13 10 14 14 12 11 9 11 11 3 6 15 16 14 13 13 14 15 16 16 16
13 12 15 20 17 20 18 17 11 11 10 7 9 10 11 14 11 12 11 6 5 3 1 2 8 11 12 14 11 6 9 7 7 5 8 11 15 14 15 15 15 15 15
17 10 17 22 19 18 19 9 15 13 13 6 4 7 9 12 12 8 11 7 0 7 3 5 4 6 5 8 12 7 8 9 7 5 4 4 8 14 17 18 18 16 14
17 15 18 12 19 23 18 17 12 14 10 7 7 7 7 5 8 9 8 2 5 1 4 4 6 6 7 5 7 5 3 4 7 4 2 3 6 7 7 8 12 15 17
17 18 21 18 18 22 18 14 12 13 12 7 4 7 8 7 6 9 4 7 6 12 6 6 6 7 7 7 6 8 3 4 2 7 6 7 8 8 7 6 5 7 12
19 21 22 19 15 17 14 13 9 13 10 8 5 5 4 7 12 4 3 8 9 8 6 3 7 4 7 3 8 9 6 4 3 1 3 7 2 3 5 7 4 4 5
28 19 21 17 15 15 16 12 12 12 12 6 5 5 6 3 5 5 3 3 4 5 5 7 5 7 4 5 5 7 3 6 9 4 4 4 2 2 3 4 4 5 6
26 22 22 20 19 17 18 13 12 11 12 9 8 7 9 5 4 7 4 4 7 5 4 6 5 6 2 4 4 5 1 3 8 8 5 7 7 8 5 7 3 2 6
24 24 22 20 15 18 20 15 13 15 10 12 11 9 10 9 5 4 2 6 4 5 8 6 4 3 5 5 2 1 4 4 0 4 7 6 6 4 9 10 11 9 7
25 24 20 18 17 18 19 14 14 11 9 10 9 7 14 11 8 5 4 5 6 6 9 6 1 2 3 7 6 3 2 1 11 4 2 8 4 6 6 7 10 14 4
27 25 24 19 17 17 16 14 12 11 13 8 5 6 11 10 13 10 8 10 10 9 4 8 6 3 5 4 7 6 5 6 5 13 7 9 5 5 2 9 8 3 6

GFSSE_850_spd_108.txt.gz
Wind_Speed
20 16 18 14 10 13 13 15 14 15 15 15 18 17 19 21 23 24 22 20 20 19 19 19 19 19 19 19 20 20 19 18 16 18 18 17 17 15 14 15 17 16 16
20 17 15 13 12 12 14 13 13 14 13 15 18 18 19 22 20 21 20 20 20 19 20 20 21 20 21 21 21 21 20 19 17 17 16 16 16 15 15 17 17 17 16
19 16 14 12 11 12 12 12 13 12 13 15 18 19 20 21 19 19 19 19 18 18 18 20 22 21 19 18 20 17 20 18 17 16 17 16 16 16 16 16 16 16 15
18 16 14 11 10 11 12 12 12 13 14 16 19 18 19 18 19 18 16 15 16 18 19 20 21 19 18 17 16 15 16 15 15 15 17 18 18 16 16 15 15 15 15
16 15 15 13 13 13 12 13 14 14 15 16 17 17 17 17 17 17 18 16 16 17 18 20 21 18 18 19 19 17 16 13 13 14 16 17 17 15 15 14 14 14 13
16 16 15 16 15 14 14 15 15 15 15 16 16 16 16 16 15 14 14 14 15 15 17 19 20 18 15 14 15 15 15 10 9 11 13 15 14 12 13 12 13 12 11
18 17 16 15 16 15 15 15 15 16 16 17 17 16 15 14 14 14 14 14 14 16 18 21 21 18 15 15 15 13 12 10 9 10 12 13 13 10 12 12 12 12 11
18 17 15 15 16 16 17 16 16 17 17 17 16 15 16 15 15 14 14 14 15 17 18 21 22 18 16 11 14 14 13 10 8 8 9 10 10 8 9 9 9 8 8
15 16 17 17 17 17 17 17 16 16 17 17 17 16 15 16 15 14 15 16 16 17 18 19 21 17 15 14 10 11 11 12 8 6 7 7 7 7 9 9 9 8 7
17 16 16 17 17 19 19 18 18 18 17 17 17 17 18 18 18 17 17 17 17 18 18 19 19 16 14 12 10 7 8 12 10 6 6 7 8 8 9 9 8 8 8
19 17 17 17 17 18 19 19 19 18 18 19 18 18 17 18 17 16 18 21 23 23 20 20 18 15 13 10 7 3 4 11 9 5 5 7 8 9 9 9 9 9 9
22 18 18 17 19 19 20 20 19 19 18 19 20 18 15 15 14 16 18 17 16 19 18 15 13 13 14 12 8 4 2 9 8 5 5 7 9 9 10 9 10 10 9
22 25 21 20 20 19 21 21 20 18 18 16 16 16 16 13 11 13 11 10 9 11 18 15 14 14 12 10 8 3 4 9 9 6 6 8 10 10 9 9 9 9 8
22 23 20 22 21 20 21 18 16 16 20 18 17 15 14 11 9 6 3 9 8 9 13 12 11 9 8 8 7 3 2 8 8 7 8 10 10 9 9 10 10 10 10
25 23 19 19 18 17 17 20 18 18 18 16 13 12 11 7 7 11 14 12 9 9 11 9 11 12 11 8 6 6 4 7 11 11 10 10 9 10 11 12 13 13 13
23 22 22 16 15 14 13 14 15 18 15 11 9 9 9 6 6 8 11 11 10 8 6 6 10 10 8 5 4 2 5 5 12 15 13 10 11 12 13 14 14 13 13
23 24 21 16 12 15 10 14 18 16 11 10 10 10 7 4 6 9 8 6 3 5 8 3 3 5 9 8 8 4 1 5 4 6 9 13 13 15 14 13 12 12 12
21 19 22 19 18 19 16 15 18 13 9 6 7 7 7 6 9 3 4 7 15 11 5 1 1 6 9 9 6 5 3 4 5 6 5 7 11 15 15 16 16 13 12
16 19 27 23 21 22 15 16 15 16 11 8 8 9 10 10 7 6 6 5 5 3 5 3 8 1 5 6 4 4 5 3 5 3 6 6 6 4 7 9 10 13 15
17 24 21 24 20 19 16 17 17 16 12 8 9 7 8 9 8 8 6 6 3 9 6 7 5 4 1 4 4 6 4 2 1 3 9 9 8 9 7 8 8 8 12
21 24 19 21 24 21 18 15 17 14 15 10 9 5 5 7 5 3 6 9 7 8 6 6 4 8 7 4 1 6 8 7 8 3 2 3 4 6 6 9 7 5 8
23 23 23 21 21 20 19 15 16 18 13 11 9 9 8 7 8 4 7 9 8 7 4 3 5 7 6 4 2 5 3 6 7 11 5 6 2 4 5 5 5 5 3
25 25 24 20 20 20 20 16 15 16 15 13 12 9 11 8 5 5 4 3 6 5 2 4 6 7 4 3 4 3 2 3 6 9 8 13 12 11 9 7 7 8 6
26 24 23 20 20 19 18 16 15 14 15 12 12 9 11 9 7 6 5 6 5 6 7 5 3 7 6 3 3 4 4 1 3 5 6 3 3 6 8 11 13 12 9
23 25 23 20 19 19 19 18 15 13 13 10 12 12 14 13 10 9 3 6 6 6 8 6 5 3 4 4 7 1 2 2 3 2 5 4 3 6 6 7 10 10 12
24 23 22 23 21 19 20 19 14 15 16 12 13 11 14 15 15 11 10 7 4 9 7 8 9 5 2 2 5 6 6 2 3 3 4 6 7 5 5 8 13 8 7

GFSSE_850_spd_111.txt.gz
Wind_Speed
20 16 13 13 12 15 15 14 14 14 14 14 12 13 16 18 18 17 17 16 15 16 17 16 16 15 17 16 16 16 14 13 14 14 14 15 14 13 13 13 14 14 12
19 16 13 13 13 14 14 13 13 14 15 15 14 15 17 18 16 15 15 15 15 15 16 17 17 17 17 17 18 17 16 15 15 14 14 14 13 13 14 14 14 12 12
17 14 11 11 13 12 14 12 12 13 14 15 15 16 16 15 15 15 15 15 16 15 16 17 17 17 16 16 17 18 15 14 13 13 13 14 14 14 14 14 14 14 12
14 14 13 12 11 12 12 12 13 13 14 15 16 16 15 15 14 13 13 13 13 15 17 17 16 13 13 13 14 15 14 14 13 13 13 15 14 13 12 12 12 12 11
14 12 10 9 10 12 12 13 13 13 15 15 15 15 15 14 13 12 14 14 14 14 16 15 15 16 16 15 15 14 13 13 12 13 14 14 14 13 12 12 11 11 9
14 12 9 9 10 12 13 13 13 14 14 15 14 14 14 13 13 12 12 13 13 14 15 15 14 13 12 13 14 14 11 10 10 10 12 12 12 11 10 10 10 9 9
15 13 12 13 12 13 14 14 14 15 16 15 14 14 12 12 11 11 12 12 13 13 14 15 13 11 11 13 14 14 12 9 7 8 9 11 10 9 8 8 8 8 8
14 14 14 14 13 13 15 14 15 16 16 15 13 12 12 12 12 12 12 13 14 14 14 16 13 11 11 12 14 17 14 11 8 6 7 8 9 6 6 6 6 6 6
14 13 14 14 14 15 15 15 16 16 15 14 14 14 14 13 13 12 12 13 14 15 16 15 12 9 10 11 12 14 14 12 8 5 4 4 5 6 6 6 6 5 4
13 14 14 16 16 16 16 14 14 15 14 14 14 17 16 15 14 14 15 15 14 14 15 14 12 10 8 9 9 10 11 11 8 6 5 5 6 7 7 8 7 7 6
15 14 14 15 16 16 16 15 15 15 16 15 15 15 14 16 15 15 16 16 15 15 15 14 11 9 7 4 6 9 11 11 9 8 6 6 7 8 8 9 8 8 7
18 17 16 16 17 17 17 16 16 15 16 16 17 16 15 15 16 17 20 18 16 15 14 11 9 7 5 1 3 6 9 11 9 7 7 8 8 9 9 9 8 7 7
20 18 17 18 18 18 18 17 18 17 18 17 16 14 14 13 14 12 10 10 10 9 9 7 6 5 3 2 2 4 6 10 8 7 8 9 9 9 8 7 7 8 8
23 20 19 19 18 19 18 16 16 16 16 14 14 13 12 11 10 7 3 5 10 12 10 9 7 4 4 3 5 6 7 10 9 9 10 10 9 9 9 9 10 10 10
23 24 21 20 19 19 16 15 14 17 15 14 14 12 10 9 10 9 10 8 9 11 10 9 8 8 6 5 9 10 7 12 12 11 11 9 10 10 10 11 12 12 11
23 26 22 20 18 17 16 15 16 16 13 11 9 8 8 9 7 8 6 6 8 8 5 6 9 7 6 5 3 6 10 12 14 15 10 11 12 11 10 11 11 11 11
23 25 23 19 16 16 14 13 15 15 9 8 5 8 8 9 9 8 7 8 8 6 7 6 5 5 5 4 5 6 5 8 8 9 12 11 13 13 11 10 10 9 9
25 24 20 17 17 13 11 15 15 13 10 9 6 7 6 5 9 7 8 10 11 7 5 6 5 5 5 4 2 4 4 5 5 6 7 11 12 11 13 13 14 13 10
24 25 23 16 19 17 15 17 15 11 7 8 8 7 7 7 7 5 7 14 7 8 7 9 9 4 2 2 2 3 3 3 2 2 6 8 5 5 7 8 9 10 11
26 27 23 19 18 19 14 16 14 13 11 9 6 9 8 7 4 5 3 7 7 7 7 5 6 3 1 3 2 4 3 1 2 4 8 6 5 6 6 5 5 4 5
26 30 30 23 22 19 17 17 16 14 12 9 8 8 7 8 5 6 4 5 7 4 5 6 3 6 4 1 2 3 4 7 7 3 3 2 1 3 4 4 3 3 5
28 29 33 27 24 20 18 16 16 14 14 10 11 8 9 8 6 4 5 8 7 5 4 5 3 5 2 2 2 2 2 4 6 10 4 6 6 7 8 6 6 5 6
31 28 27 27 28 24 20 17 17 16 15 13 11 11 9 8 7 5 6 6 8 6 6 4 4 5 3 2 4 3 2 2 0 4 7 10 11 11 12 9 8 8 8
30 29 25 24 25 25 21 18 16 20 17 14 11 10 12 11 9 8 4 6 7 7 8 7 3 4 5 1 0 2 2 2 1 3 4 6 7 9 10 8 10 14 12
28 29 28 25 24 22 22 20 16 17 15 14 13 12 12 12 10 11 8 7 7 7 10 8 5 4 3 2 3 1 2 2 2 1 5 8 8 7 6 8 8 9 8
29 28 28 25 24 20 21 20 19 16 16 14 13 15 15 15 14 11 11 9 8 8 10 10 9 5 3 0 3 2 3 3 4 1 0 4 9 9 7 7 11 10 10

GFSSE_850_spd_114.txt.gz
Wind_Speed
17 16 12 12 11 11 13 12 9 10 11 11 12 13 16 15 16 15 14 13 14 14 14 13 14 14 13 13 12 12 12 13 14 14 14 14 14 12 12 13 13 13 12
18 15 13 13 12 11 10 12 11 11 11 11 12 16 16 16 15 15 14 12 15 14 14 14 15 15 14 15 14 14 14 13 14 13 14 14 13 15 13 13 13 12 11
16 14 12 11 11 10 10 12 11 11 11 13 15 15 14 13 14 14 14 14 13 15 15 15 15 15 16 15 15 15 14 13 13 14 15 15 14 15 16 15 14 13 12
15 12 12 11 11 9 9 10 10 12 12 12 14 13 13 13 13 11 11 12 14 14 15 14 13 14 13 15 15 15 14 13 13 13 15 14 14 13 13 13 12 12 11
12 10 9 9 10 9 9 9 11 13 13 14 13 13 12 12 11 11 11 12 12 14 14 14 17 14 16 15 15 15 14 14 14 13 14 14 14 13 12 12 11 10 9
12 11 9 9 10 11 11 10 12 12 12 13 12 13 12 14 13 11 12 11 11 13 13 13 14 14 16 16 16 14 13 12 11 11 12 12 12 11 11 11 10 9 9
11 10 10 10 11 11 12 11 12 13 12 12 12 11 10 10 10 11 11 11 10 12 12 12 14 14 16 18 18 16 13 11 10 10 11 12 10 7 8 8 8 9 7
10 10 12 11 12 12 12 12 13 13 12 12 11 10 11 11 12 12 12 11 11 13 12 12 13 16 16 16 18 17 14 11 10 9 9 10 7 5 5 6 6 6 5
11 11 12 11 13 12 12 13 13 13 13 12 12 11 12 12 11 12 13 12 12 14 13 11 12 14 14 14 15 15 14 11 9 8 7 7 6 6 6 6 6 5 4
10 11 13 14 14 14 13 12 13 13 13 12 13 13 13 12 12 12 13 13 13 13 12 10 11 12 11 12 13 13 13 12 10 8 7 7 7 7 8 8 8 8 7
12 12 14 14 15 15 14 13 14 14 13 14 14 13 13 14 14 13 13 13 13 13 11 9 8 7 8 8 9 11 13 10 9 9 8 8 8 9 9 10 10 9 8
15 14 14 14 14 14 13 13 14 15 14 14 14 13 13 15 16 15 15 15 15 14 11 9 8 6 4 5 7 9 10 9 9 9 9 9 10 10 10 10 9 8 8
16 16 16 15 15 16 15 15 14 15 14 15 15 13 14 16 15 13 11 12 13 11 9 6 5 5 3 4 6 8 9 9 9 10 10 11 10 10 10 10 9 9 10
18 18 18 18 16 15 14 14 14 15 16 13 13 12 13 13 11 7 9 9 10 10 10 8 4 2 3 9 11 8 10 10 11 11 11 11 11 11 10 11 11 11 11
20 20 20 19 18 17 16 15 15 14 13 12 11 10 9 7 6 8 8 10 12 10 9 7 5 4 4 8 13 12 14 14 11 11 11 12 12 11 11 11 11 11 12
20 21 20 19 19 17 14 13 14 13 12 11 9 9 7 6 7 8 7 8 8 8 5 8 8 6 5 6 9 13 15 15 15 12 12 13 12 12 10 10 10 11 11
22 22 21 20 18 17 15 14 14 12 11 8 7 7 7 7 8 7 7 8 7 5 5 5 4 5 6 8 9 6 10 11 11 12 11 13 13 12 12 10 9 9 8
23 22 22 21 20 16 13 14 14 10 8 8 9 7 7 7 8 6 6 8 6 6 4 4 5 6 7 9 8 6 7 8 8 9 10 11 11 10 9 9 10 10 9
24 24 22 20 19 15 13 15 14 11 6 8 7 7 7 8 7 7 7 11 8 8 9 8 6 7 6 6 6 6 6 6 4 5 7 6 2 1 3 4 5 6 7
24 25 20 19 18 16 16 17 14 11 7 8 6 7 8 6 5 7 8 8 8 8 8 7 6 5 4 3 1 2 1 3 4 4 4 3 2 0 2 2 3 4 4
25 25 23 19 23 20 19 19 16 12 10 8 7 9 6 6 3 4 7 4 7 6 6 4 4 6 4 3 3 1 1 1 1 6 5 3 3 3 3 3 3 3 4
26 27 24 21 21 21 16 18 16 13 12 9 8 7 8 7 5 5 5 6 5 3 3 3 3 3 1 3 2 2 1 2 4 5 5 5 5 5 5 6 5 6 7
29 31 29 26 23 22 18 18 18 15 14 11 10 9 8 8 7 4 4 7 6 4 5 3 3 2 2 4 3 0 1 1 2 5 5 6 7 8 8 8 8 9 11
30 30 32 29 24 22 19 18 17 16 16 12 12 11 9 9 9 7 6 6 5 8 7 7 4 3 1 2 1 1 2 1 2 3 5 5 5 6 7 7 9 9 11
32 31 32 31 28 27 23 20 16 16 15 12 11 11 10 11 10 9 8 5 7 6 8 8 6 3 2 1 3 4 3 3 3 4 6 7 9 11 9 8 8 11 10
34 32 29 28 24 25 25 21 19 15 17 15 14 13 12 12 12 10 10 7 8 7 8 9 7 5 5 2 1 1 2 4 5 4 3 5 6 10 12 10 10 10 9

GFSSE_850_spd_117.txt.gz
Wind_Speed
14 13 12 13 12 9 7 8 10 12 13 13 15 16 16 17 16 14 14 15 14 13 13 13 13 13 13 12 13 13 13 14 15 14 15 15 13 13 13 14 15 12 11
19 12 9 12 11 9 6 8 8 9 11 14 15 16 17 17 16 15 15 14 15 14 14 14 14 14 16 16 15 15 14 14 15 15 16 15 15 14 14 14 14 12 12
17 12 17 13 9 8 6 8 9 11 13 14 15 15 15 15 15 15 15 14 15 14 15 15 16 16 16 17 16 16 15 14 14 16 17 14 16 16 15 14 13 12 11
17 14 13 12 10 8 6 8 10 12 12 15 13 14 14 14 12 13 14 14 14 15 15 14 14 14 16 16 16 15 14 14 15 14 15 14 14 13 14 13 13 12 12
16 12 9 8 8 8 8 8 12 12 13 13 13 13 13 13 13 13 13 13 14 15 17 17 17 17 15 16 16 16 16 15 14 14 14 14 12 13 12 12 11 11 10
13 13 10 9 7 7 9 9 12 12 12 13 12 14 14 14 14 12 12 12 13 13 15 16 16 16 15 15 14 14 15 14 12 12 12 13 12 12 12 11 10 10 9
12 11 10 10 9 8 9 11 11 11 12 13 12 12 13 12 12 12 12 13 13 14 15 15 16 17 18 17 16 15 14 12 12 12 11 11 10 9 8 8 9 8 7
11 12 12 11 10 10 10 11 12 12 11 11 11 12 12 12 12 13 12 12 14 15 15 15 16 16 16 17 17 14 12 11 11 10 10 9 7 6 6 6 7 6 6
12 14 12 11 10 10 9 10 11 12 11 11 11 13 13 11 11 12 11 13 14 14 14 15 15 13 14 15 15 14 12 11 10 9 8 7 7 6 7 6 6 5 6
12 13 12 12 12 11 11 10 11 11 11 11 13 13 13 12 11 12 12 13 15 13 13 13 12 12 13 13 14 15 13 11 9 9 9 8 8 9 9 8 8 8 8
12 13 13 13 13 12 11 12 11 11 12 13 12 11 12 13 13 13 12 13 14 13 11 9 9 10 10 11 12 13 12 10 9 9 9 10 10 10 10 10 10 10 9
12 14 15 14 15 13 12 12 11 11 13 12 13 13 13 14 14 14 14 13 13 11 10 8 7 8 9 10 12 12 10 8 9 9 10 10 11 10 10 10 10 9 9
13 15 17 16 16 13 13 13 13 13 13 12 13 13 15 15 14 13 12 12 12 10 8 6 6 6 7 8 9 10 9 10 10 11 11 10 10 11 11 11 11 11 11
15 15 17 17 17 14 13 14 13 13 13 12 12 12 12 11 10 7 7 8 8 7 7 6 4 6 9 11 10 10 11 11 11 11 11 12 13 13 13 13 13 12 12
17 17 18 18 16 13 13 13 14 14 12 12 10 9 8 6 5 6 6 7 8 6 4 3 3 5 8 12 12 15 14 13 13 12 13 14 14 14 13 12 11 10 10
19 19 19 19 18 16 15 13 13 12 11 11 9 9 7 7 9 8 7 7 5 6 3 4 4 5 6 8 13 14 15 16 14 13 14 14 13 12 10 9 8 8 9
20 20 20 20 19 16 14 14 14 13 13 11 9 7 6 7 7 8 9 8 6 4 3 3 2 4 8 9 8 10 11 13 13 13 13 13 11 10 9 8 7 7 7
20 21 21 21 19 16 16 15 13 11 9 7 8 8 8 8 7 7 8 8 5 4 3 2 3 6 8 8 7 8 8 10 11 13 12 10 8 7 7 7 7 7 7
19 21 22 21 19 17 16 15 12 10 8 8 9 8 7 8 7 6 9 6 6 5 7 5 6 8 8 9 9 7 6 6 8 9 7 4 2 2 3 4 4 5 5
20 20 20 21 19 15 15 16 14 11 9 8 9 9 9 9 7 6 10 5 7 6 6 6 7 4 6 5 3 2 3 4 6 6 4 1 1 1 2 3 4 5 6
21 22 22 20 20 17 17 18 15 12 9 10 8 11 9 6 7 7 9 6 6 6 4 5 4 5 3 3 4 3 2 3 3 6 5 3 2 2 3 5 6 7 7
23 25 25 21 20 20 18 18 15 12 11 10 9 10 9 8 5 7 7 7 6 4 1 2 2 0 1 2 3 3 1 2 3 5 5 5 5 5 5 6 9 8 8
26 25 24 23 20 22 18 19 17 15 13 12 10 8 8 8 6 5 6 7 6 5 4 2 2 1 1 1 3 2 1 1 2 5 6 7 7 7 7 7 8 10 11
27 24 24 22 22 21 18 16 17 17 17 14 10 9 8 8 8 8 6 6 7 6 5 6 4 4 3 3 1 0 1 0 1 2 5 4 4 4 5 6 9 9 10
29 25 25 24 24 22 20 17 15 16 16 14 11 10 11 9 9 8 7 7 7 7 8 8 8 5 4 4 5 4 4 3 3 4 6 6 8 8 8 8 7 11 11
30 28 26 28 27 24 22 18 17 15 14 16 13 12 12 10 12 11 11 9 9 9 9 10 10 7 5 4 3 3 3 5 6 5 5 6 5 6 7 6 6 9 6

GFSSE_850_spd_123.txt.gz
Wind_Speed
18 17 17 17 17 15 17 20 17 15 13 14 15 15 16 16 16 16 16 16 15 16 15 14 13 13 14 14 15 15 15 16 16 16 15 15 16 18 19 20 16 12 13
20 14 16 15 13 13 15 15 14 16 16 16 17 17 17 17 17 17 17 17 17 17 17 15 15 15 15 15 15 15 16 18 21 21 15 16 16 15 15 17 14 13 13
19 17 16 14 12 12 13 15 14 17 16 16 16 17 17 17 16 17 17 16 16 16 16 16 17 17 16 16 16 16 19 20 21 20 19 12 13 14 12 11 12 13 12
18 16 13 13 12 11 12 14 17 16 14 15 16 16 17 18 16 17 17 17 16 16 16 17 17 17 16 16 16 18 19 22 23 21 15 13 11 14 14 14 14 14 11
15 18 13 12 12 12 13 14 15 15 14 15 15 14 15 16 16 18 18 18 16 16 16 16 17 16 16 17 18 20 24 22 14 13 15 14 10 13 14 15 11 12 10
15 15 11 10 10 11 14 14 14 15 14 14 14 15 16 15 15 17 16 17 17 17 17 15 15 15 15 17 18 22 24 18 11 13 14 11 11 13 11 11 9 9 8
13 9 10 10 10 12 14 14 14 14 14 14 14 13 14 14 13 15 15 16 14 16 17 17 16 15 15 15 16 19 22 20 9 10 11 9 10 10 10 9 8 7 7
11 12 7 12 12 12 13 13 14 14 13 12 12 11 12 13 13 15 14 15 15 15 17 17 17 17 16 14 15 17 20 17 10 11 9 8 9 7 8 7 5 6 6
11 11 9 10 12 13 13 13 13 13 13 12 11 12 12 13 13 14 15 15 15 15 16 15 17 16 16 14 13 15 17 17 9 9 8 6 8 7 7 7 6 6 7
11 15 18 10 11 12 13 14 12 12 12 13 13 13 11 13 13 13 13 14 14 15 14 15 15 15 15 12 14 17 17 15 7 9 6 7 9 10 9 9 8 8 7
12 13 14 19 11 18 11 13 13 12 13 13 16 19 17 9 9 10 11 13 13 13 13 13 14 15 13 15 16 15 15 8 7 6 6 8 9 10 9 9 8 7 7
13 18 19 14 12 14 13 14 10 12 11 11 9 11 10 9 11 9 12 11 12 13 12 14 15 15 11 3 8 11 10 8 7 5 6 8 9 9 8 9 9 9 10
15 15 15 15 15 15 12 13 12 9 9 9 11 9 8 10 9 8 10 10 10 10 7 7 10 9 2 5 4 5 7 7 8 5 6 8 9 10 11 12 12 11 11
16 14 15 14 15 12 13 11 14 11 9 9 10 11 11 8 7 8 6 8 7 5 7 3 4 6 5 5 6 7 7 7 8 5 8 9 10 11 12 12 11 10 9
17 16 15 14 16 16 13 11 12 10 12 9 10 9 7 5 6 6 7 4 6 6 6 6 5 5 7 7 7 7 7 9 9 6 8 10 11 10 10 9 9 8 8
17 17 16 13 16 14 8 10 12 9 11 10 9 9 7 4 7 4 6 6 6 5 5 4 2 3 6 6 7 7 7 8 9 8 5 8 9 8 7 7 7 7 6
17 17 17 14 13 14 11 14 11 10 10 8 7 6 6 5 6 8 6 7 6 3 6 4 4 5 6 5 6 7 7 7 6 8 6 1 7 6 6 6 6 6 6
17 17 17 15 14 13 12 12 11 10 9 11 7 5 7 8 8 10 7 6 4 6 5 4 4 4 5 4 5 5 5 4 5 6 5 4 2 2 7 5 5 6 6
17 17 17 15 15 13 12 11 12 12 9 5 7 8 8 6 8 8 7 5 7 6 6 6 6 6 5 5 5 5 4 4 4 4 4 3 3 3 2 7 5 5 7
17 17 17 16 14 12 14 12 11 9 7 6 8 8 8 6 6 10 6 6 8 6 7 6 7 5 5 5 4 6 4 5 6 6 5 3 4 3 2 5 8 11 11
17 18 18 17 16 14 12 10 9 9 9 9 8 6 9 6 6 13 6 7 8 1 12 7 6 6 4 4 2 4 6 9 10 9 6 5 6 3 4 6 8 7 12
18 18 18 17 16 16 13 12 9 8 8 9 7 8 7 8 6 6 7 6 8 3 3 4 5 4 2 4 9 7 12 11 15 11 8 7 6 5 5 6 6 10 9
19 20 20 19 18 19 15 12 11 12 6 7 9 7 8 9 6 6 7 6 10 4 6 2 4 3 8 4 6 10 9 8 12 9 10 7 6 6 6 6 9 7 8
20 19 20 20 18 17 19 16 13 11 11 9 10 8 8 9 8 6 7 6 7 5 6 2 3 5 7 5 3 8 9 6 13 3 6 18 4 6 5 5 6 4 6
21 19 21 21 21 18 19 15 16 13 11 10 9 10 9 10 8 8 8 6 6 7 7 11 7 6 1 7 7 9 8 11 14 14 14 5 10 4 1 3 6 7 6
22 20 20 22 22 20 19 19 18 14 9 12 10 6 8 8 7 10 9 9 8 7 8 6 6 6 8 6 6 6 9 12 13 16 14 13 9 10 6 4 5 5 3

GFSSE_850_spd_126.txt.gz
Wind_Speed
16 20 24 20 19 21 20 25 21 22 17 14 13 14 15 15 16 15 14 15 15 14 13 14 14 14 14 15 16 16 15 15 14 14 15 16 17 19 20 20 11 15 13
21 22 22 21 20 18 19 21 24 17 16 15 15 16 16 16 16 15 16 16 16 15 14 14 14 14 14 15 17 18 22 25 24 20 16 16 15 14 14 14 8 14 12
21 21 20 19 19 19 17 18 19 19 16 16 16 16 15 16 16 15 15 15 15 16 17 16 16 16 15 17 17 21 21 22 23 22 15 13 14 13 11 10 12 11 10
22 19 19 19 19 20 17 17 18 17 16 17 16 16 15 16 16 15 15 16 17 16 18 17 16 17 17 18 21 22 22 22 18 15 16 8 15 15 14 13 13 13 10
21 17 18 18 18 19 16 17 17 16 16 16 15 16 16 17 16 17 15 15 16 15 16 16 16 16 18 20 23 19 18 21 16 21 16 6 12 14 14 14 11 12 9
20 13 17 18 19 18 17 16 16 17 17 16 16 16 15 16 16 17 16 17 17 16 16 15 15 15 19 23 22 19 16 18 19 16 12 7 11 12 12 9 8 9 8
16 17 15 17 18 18 17 16 17 17 16 15 16 15 15 14 15 14 15 15 16 15 15 15 13 15 17 22 21 21 20 18 8 6 4 8 10 12 9 8 8 7 7
32 20 15 18 19 18 17 17 17 16 16 15 15 15 14 14 15 15 14 16 16 16 17 16 15 15 16 19 20 20 19 16 14 7 3 8 9 8 8 7 7 7 7
22 17 17 19 19 19 17 17 16 15 14 15 14 15 15 14 14 15 14 16 15 15 16 16 16 15 15 15 18 18 18 15 7 7 6 7 9 8 7 7 8 7 7
18 15 16 17 17 19 18 16 16 15 16 16 16 17 14 15 14 13 13 15 15 15 15 15 17 18 17 16 18 19 18 15 10 6 4 7 9 9 9 9 8 8 8
18 16 13 19 15 13 17 17 16 16 18 23 24 21 18 13 10 13 12 14 14 14 16 17 13 14 19 19 16 14 11 10 13 5 6 8 8 9 9 8 9 9 8
19 19 16 13 16 14 15 20 18 15 16 14 17 15 15 12 6 11 11 13 13 15 17 14 11 9 7 7 11 12 11 9 3 3 5 7 8 10 10 10 11 11 10
12 18 19 15 17 16 10 20 20 13 12 12 18 10 10 10 11 13 14 14 11 8 4 7 9 8 6 3 6 6 8 9 4 5 5 7 9 11 12 12 12 12 11
21 18 18 17 14 16 10 12 15 19 8 13 13 15 17 13 9 3 3 10 6 6 6 6 3 3 9 8 10 3 8 7 3 5 8 10 10 11 11 11 11 10 10
17 18 22 15 14 13 13 19 14 16 17 10 15 10 12 7 11 8 11 3 8 3 5 6 1 6 10 9 7 8 8 10 1 7 9 10 10 9 9 9 8 8 8
17 17 16 17 19 9 9 16 14 12 9 13 11 9 11 6 8 11 12 10 6 8 7 6 5 8 7 3 8 7 7 10 6 3 8 8 8 7 6 6 6 7 6
17 21 14 13 17 12 11 17 11 9 16 10 5 13 7 3 13 8 3 9 9 8 11 6 7 7 8 7 6 10 7 6 10 7 2 6 9 8 6 5 5 5 6
19 18 11 15 16 10 13 17 11 10 11 12 11 6 14 10 13 11 10 9 9 12 8 5 5 6 8 4 6 6 5 5 3 10 5 4 5 4 4 5 3 4 5
22 18 16 21 13 14 18 11 6 9 11 7 9 11 7 9 16 11 10 7 9 8 10 12 7 10 11 9 8 8 3 6 1 2 4 8 6 8 6 5 3 3 6
21 18 17 16 14 15 12 11 15 8 10 10 8 11 6 6 13 7 9 6 12 9 13 15 8 9 8 8 7 7 4 6 1 10 8 3 10 6 12 12 6 2 6
19 20 17 18 17 17 15 16 15 14 10 15 8 8 9 9 14 4 5 8 12 8 5 6 2 3 3 5 4 5 6 6 5 5 7 13 16 12 14 11 12 7 5
21 21 22 18 19 16 16 12 12 12 11 9 12 8 11 6 8 4 7 5 4 7 7 3 13 4 6 6 7 5 7 7 11 6 11 9 11 16 15 21 6 7 12
25 23 22 20 20 20 19 16 16 11 13 17 11 6 11 10 9 8 8 5 10 7 6 4 12 8 7 5 3 1 7 2 10 12 7 9 18 15 22 6 16 24 6
28 25 22 21 19 24 21 16 12 13 10 11 9 9 9 9 7 7 7 11 13 3 6 3 2 4 5 4 6 1 6 1 8 10 19 16 18 13 24 7 20 17 4
30 27 26 24 20 21 19 21 17 16 13 9 14 11 9 10 12 10 9 12 14 10 4 7 7 4 1 1 1 2 6 6 14 6 14 19 8 2 5 8 7 5 5
31 28 28 25 23 22 20 22 20 18 12 19 11 13 12 10 8 9 10 11 11 10 7 10 9 9 9 8 5 3 7 8 9 10 11 11 11 13 7 5 6 4 4